     2.10           OBSERVATION DATA    G (GPS)             RINEX VERSION / TYPE
teqc 2005May6 SOPAC 20050707 00:28:01UTC                    PGM / RUN BY / DATE
Linux 2.4.20-8|Pentium IV|gcc|Linux|486/DX+                 COMMENT
BIT 2 OF LLI FLAGS DATA COLLECTED UNDER A/S CONDITION       COMMENT
3 TRI 74.22                                                 MARKER NAME
2NG3                                                        MARKER NUMBER
Tim Habon                                                   OBSERVER / AGENCY
0220223931 TRIMBLE 4700 1.30                                REC # / TYPE / VERS
0220063964 TRM22020.00+GP NONE                              ANT # / TYPE
 -2595752.0000 -4048719.0000  4176573.0000                  APPROX POSITION XYZ
        2.0000        0.0000        0.0000                  ANTENNA: DELTA H/E/N
     1     1                                                WAVELENGTH FACT L1/2
     6    L1    L2    C1    P2    P1    D1                  # / TYPES OF OBSERV
    15.0000                                                 INTERVAL
Northern California Height Modernization 2004               COMMENT
                                                            COMMENT
SOPAC - Scripps Orbit and Permanent Array Center            COMMENT
IGPP - Institute of Geophysics and Planetary Physics        COMMENT
SIO - Scripps Institution of Oceanography                   COMMENT
UCSD - University of California, San Diego                  COMMENT
                                                            COMMENT
email: archive@gpsmail.ucsd.edu                             COMMENT
ftp://garner.ucsd.edu                                       COMMENT
http://sopac.ucsd.edu                                       COMMENT
                                                            COMMENT
                                                            COMMENT
Approximate Lat, Lon : 41.162, -122.665                     COMMENT
                                                            COMMENT
SNR is mapped to RINEX snr flag value [0-9]                 COMMENT
L1 & L2: 2-19 dBHz = 1, 20-27 dBHz = 2, 28-31 dBHz = 3      COMMENT
32-35 dBHz = 4, 36-38 dBHz = 5, 39-41 dBHz = 6              COMMENT
42-44 dBHz = 7, 45-48 dBHz = 8, >= 49 dBHz = 9              COMMENT
  2004     9     8    20    57   30.0000000     GPS         TIME OF FIRST OBS
                                                            END OF HEADER
 04  9  8 20 57 30.0000000  0  5G 8G13G16G23G27
    -53827.26658    -27053.02254  23213330.4064   23213329.0514
      3398.0634
    -18266.02059    -11915.13758  20347961.8754   20347958.7154
      1014.7194
     44527.01457     12173.93253  23916297.2274   23916294.2074
     -2458.1564
     26468.48759      5481.33457  21458945.5944   21458940.8674
     -1444.0944
    -39569.25959    -18618.79758  21690691.2344   21690689.5274
      2148.9694
 04  9  8 20 57 45.0000000  0  5G 8G13G16G23G27
   -104892.28848    -66843.92744  23203612.6804   23203611.5944
      3411.2034
    -33548.23549    -23823.37648  20345054.3364   20345050.9734
      1023.4844
     81314.12947     40839.17643  23923296.6564   23923295.0944
     -2446.1254
     48060.33049     22306.11847  21463053.8594   21463049.0664
     -1434.2034
    -71894.38349    -43807.20147  21684540.3594   21684538.3094
      2161.6724
 04  9  8 20 58  0.0000000  0  5G 8G13G16G23G27
   -156170.46448   -106800.93344  23193855.5084   23193853.9344
      3425.4694
    -48978.23149    -35846.75248  20342117.9144   20342114.9224
      1033.4224
    117906.11547     69352.37343  23930259.2734   23930257.9264
     -2433.1414
     69488.61549     39003.45747  21467132.3984   21467126.4454
     -1423.3284
   -104426.05249    -69156.56447  21678349.0474   21678347.6914
      2175.4534
 04  9  8 20 58 15.0000000  0  5G 8G13G16G23G27
   -207667.71648   -146928.63944  23184054.8914   23184054.4804
      3440.2194
    -64561.94449    -47989.91548  20339152.6024   20339149.3554
      1043.7504
    154296.81947     97708.73043  23937185.3524   23937182.3634
     -2419.4694
     90747.53549     55568.83147  21471177.6564   21471172.7344
     -1411.8444
   -137170.14549    -94671.43447  21672118.3984   21672116.6294
      2189.7974
 04  9  8 20 58 30.0000000  0  5G 8G13G16G23G27
   -259387.91748   -187230.05544  23174212.6254   23174212.5824
      3455.7034
    -80303.09249    -60255.74248  20336156.7664   20336153.3634
      1054.8444
    190482.20347    125905.08443  23944070.9924   23944067.7424
     -2405.2504
    111833.04849     71999.07047  21475189.2504   21475185.5634
     -1399.6564
   -170130.58049   -120354.88547  21665846.1954   21665844.7194
      2204.8284
 04  9  8 20 58 45.0000000  0  5G 8G13G16G23G27
   -311322.73648   -227698.72044  23164329.8674   23164329.5354
      3469.7974
    -96193.21049    -72637.66048  20333132.9844   20333129.6454
      1064.6564
    226470.19847    153947.59843  23950919.7344   23950916.0704
     -2392.0624
    132753.57549     88300.76247  21479170.9064   21479166.5354
     -1388.7814
   -203298.97749   -146200.38447  21659534.6334   21659532.7504
      2218.5634
 04  9  8 20 59  0.0000000  0  5G 8G13G16G23G27
   -363466.06748   -268329.88044  23154407.1564   23154406.9494
      3483.0784
   -112226.05749    -85130.80648  20330082.1414   20330078.5944
      1073.5164
    262266.43847    181840.77143  23957731.4534   23957728.6764
     -2380.1414
    153514.89449    104478.40547  21483121.6804   21483117.4224
     -1378.7974
   -236669.40849   -172203.32347  21653184.0704   21653182.5554
      2231.3914
 04  9  8 20 59 15.0000000  0  5G 8G13G16G23G27
   -415803.61448   -309112.36744  23144448.6334   23144447.4734
      3495.0004
   -128387.20149    -97723.89948  20327006.8984   20327003.4964
      1081.0784
    297884.78946    209595.27942  23964508.3834   23964507.0354
     -2369.3124
    174131.24749    120543.05747  21487044.8054   21487039.8874
     -1370.1874
   -270227.71449   -198352.63747  21646798.2814   21646797.1604
      2242.8754
 04  9  8 20 59 30.0000000  0  5G 8G13G16G23G27
   -468320.74548   -350034.79544  23134454.1334   23134453.7504
      3506.6884
   -144661.95149   -110405.52648  20323909.5864   20323906.4844
      1088.4064
    333339.59946    237222.34642  23971255.6644   23971253.8164
     -2358.6724
    194617.15849    136506.10047  21490943.0394   21490937.9734
     -1361.7504
   -303959.12849   -224636.84547  21640379.3834   21640378.1214
      2254.1414
 04  9  8 20 59 45.0000000  0  5G 8G13G16G23G27
   -521007.89448   -391089.68344  23124428.6724   23124428.0124
      3517.9534
   -161040.69349   -123168.18448  20320792.9064   20320789.8554
      1095.1884
    368640.13845    264729.26442  23977971.8444   23977971.5124
     -2348.5624
    214982.05249    152374.83347  21494818.0314   21494813.6334
     -1353.8124
   -337854.21149   -251048.60447  21633929.4614   21633927.4804
      2264.8914
 04  9  8 21  0  0.0000000  0  5G 8G13G16G23G27
   -573853.11148   -432267.77044  23114371.8284   23114371.1094
      3528.0004
   -177511.39049   -136002.50048  20317658.7344   20317655.1174
      1100.8284
    403797.85846    292124.86042  23984663.0864   23984662.0084
     -2339.4064
    235237.64449    168158.38247  21498673.0164   21498668.2234
     -1347.0474
   -371901.16349   -277578.69547  21627450.6414   21627448.2074
      2274.5004
 04  9  8 21  0 15.0000000  0  5G 8G13G16G23G27
   -626836.84948   -473553.76444  23104288.8914   23104288.7544
      3536.8444
   -194054.35749   -148893.12848  20314510.4304   20314507.4924
      1105.1884
    438832.11445    319424.25142  23991330.7974   23991328.8364
     -2331.7034
    255403.53549    183872.05247  21502510.6954   21502506.0044
     -1341.4534
   -406080.40649   -304211.85847  21620946.4224   21620944.3284
      2282.9534
 04  9  8 21  0 30.0000000  0  5G 8G13G16G23G27
   -679940.24848   -514933.00744  23094183.7894   23094183.7504
      3543.8444
   -210650.65649   -161825.32448  20311352.6724   20311349.3674
      1107.8594
    473761.18547    346641.69243  23997977.8054   23997975.4494
     -2325.4694
    275498.41449    199530.36447  21506334.0944   21506330.7704
     -1337.5944
   -440373.25549   -330933.55947  21614420.5784   21614419.0904
      2289.6414
 04  9  8 21  0 45.0000000  0  5G 8G13G16G23G27
   -733144.37448   -556390.73244  23084060.5084   23084059.3954
      3549.7504
   -227281.43949   -174784.36148  20308187.7344   20308184.7194
      1109.2814
    508603.65646    373791.59243  24004607.7034   24004605.8754
     -2320.5004
    295540.89849    215147.85647  21510148.6884   21510144.1414
     -1335.0164
   -474760.83249   -357729.05847  21607877.1954   21607875.7704
      2295.0474
 04  9  8 21  1  0.0000000  0  5G 8G13G16G23G27
   -786436.07948   -597916.73944  23073919.4144   23073917.6374
      3555.3284
   -243933.35449   -187759.89848  20305019.0394   20305015.8094
      1110.4534
    543372.32146    400884.05843  24011223.7114   24011221.0514
     -2315.7664
    315544.04649    230734.71347  21513954.9614   21513950.2304
     -1332.5474
   -509230.03349   -384588.17547  21601317.6954   21601316.0554
      2300.3914
 04  9  8 21  1 15.0000000  0  5G 8G13G16G23G27
   -839807.45448   -639504.81044  23063762.4144   23063761.2734
      3561.0004
   -260598.56949   -200745.77848  20301847.8204   20301844.5274
      1111.7194
    578074.67246    427924.81143  24017827.8284   24017824.5004
     -2311.0164
    335515.55949    246296.90647  21517755.2664   21517751.2664
     -1330.1254
   -543773.06449   -411504.81047  21594744.4534   21594742.2344
      2305.5634
 04  9  8 21  1 30.0000000  0  5G 8G13G16G23G27
   -893247.03248   -681146.01644  23053593.9614   23053592.9184
      3564.5634
   -277265.23049   -213732.78848  20298676.2344   20298673.5044
      1110.8284
    612722.10146    454922.75042  24024420.1804   24024418.3914
     -2308.2814
    355467.05449    261843.49447  21521551.8834   21521547.8444
     -1329.7504
   -578378.33549   -438469.96147  21588159.0634   21588157.3554
      2308.7034
 04  9  8 21  1 45.0000000  0  5G 8G13G16G23G27
   -946742.42748   -722830.70344  23043413.1334   23043412.7624
      3568.7504
   -293920.59149   -226711.00248  20295506.6724   20295504.0084
      1110.5634
    647326.47546    481887.12542  24031004.4774   24031003.7544
     -2304.8914
    375410.67449    277383.94847  21525347.2504   21525342.6484
     -1328.7344
   -613033.64249   -465474.08847  21581564.9224   21581562.3874
      2312.5004
 04  9  8 21  2  0.0000000  0  5G 8G13G16G23G27
  -1000302.11048   -764565.49844  23033221.3134   23033220.3444
      3572.6254
   -310573.40449   -239687.22048  20292338.1884   20292334.6174
      1109.9844
    681879.09446    508811.23542  24037580.2584   24037578.8284
     -2301.9064
    395337.83249    292911.60547  21529139.3754   21529135.0864
     -1328.0474
   -647747.34249   -492523.71747  21574958.6334   21574956.6764
      2316.0164
 04  9  8 21  2 15.0000000  0  5G 8G13G16G23G27
  -1053928.80548   -806352.50644  23023017.4304   23023015.4614
      3577.4384
   -327226.40749   -252663.58048  20289168.9304   20289165.9344
      1110.2974
    716376.73846    535692.47042  24044145.4144   24044144.0084
     -2297.9534
    415245.73649    308424.24847  21532927.2734   21532924.1254
     -1326.4844
   -682522.38249   -519621.13747  21568341.0634   21568339.5274
      2320.4224
 04  9  8 21  2 30.0000000  0  5G 8G13G16G23G27
  -1107618.85948   -848188.89044  23012799.9304   23012798.4024
      3581.2344
   -343875.86749   -265637.19848  20286000.4924   20285997.6954
      1109.6724
    750822.69446    562533.42943  24050700.7424   24050698.7974
     -2294.8284
    435137.85049    323924.54547  21536713.0004   21536709.3794
     -1325.8124
   -717355.12449   -546763.53347  21561712.5234   21561710.6134
      2323.9064
 04  9  8 21  2 45.0000000  0  5G 8G13G16G23G27
  -1161373.24948   -890075.41144  23002571.0084   23002569.7344
      3586.0634
   -360522.69449   -278608.75547  20282833.1024   20282829.8444
      1110.0004
    785215.41346    589332.93742  24057245.4064   24057242.8404
     -2290.7814
    455012.99349    339411.65147  21540494.6174   21540490.6454
     -1324.2034
   -752246.70449   -573951.76447  21555072.9224   21555070.5394
      2328.3754
 04  9  8 21  3  0.0000000  0  5G 8G13G16G23G27
  -1215193.21748   -932013.02144  22992328.9064   22992328.4884
      3590.2034
   -377167.94849   -291579.07748  20279665.7504   20279662.2814
      1109.6094
    819553.52946    616089.89842  24063780.2114   24063776.7114
     -2287.4064
    474869.79849    354884.48047  21544273.7274   21544268.8054
     -1323.2034
   -787198.37149   -601186.83047  21548421.9144   21548420.0904
      2332.0944
 04  9  8 21  3 15.0000000  0  5G 8G13G16G23G27
  -1269079.64648   -974002.40444  22982074.5394   22982073.9964
      3594.7034
   -393812.46949   -304548.84848  20276498.0634   20276495.0594
      1109.7344
    853835.67346    642803.23742  24070302.4694   24070300.8284
     -2283.4844
    494707.21449    370342.16447  21548048.6644   21548043.8754
     -1321.7194
   -822211.14149   -628469.50847  21541759.2814   21541756.8984
      2336.3284
 04  9  8 21  3 30.0000000  0  5G 8G13G16G23G27
  -1323029.52348  -1016041.24244  22971808.4614   22971807.6844
      3598.0944
   -410453.23549   -317515.67448  20273331.6094   20273328.3794
      1108.5164
    888064.46947    669475.00442  24076817.2114   24076815.0314
     -2280.8444
    514527.97649    385786.90147  21551820.5784   21551816.1054
     -1321.5314
   -857282.07649   -655797.50147  21535085.4064   21535084.2234
      2339.2974
 04  9  8 21  3 45.0000000  0  5G 8G13G16G23G27
  -1377036.51148  -1058124.59444  22961530.8444   22961529.8674
      3602.4534
   -427083.73449   -330474.51448  20270166.6564   20270163.4024
      1108.4534
    922245.94147    696109.87642  24083320.2894   24083319.7734
     -2277.0164
    534338.50049    401223.66347  21555589.9774   21555585.4144
     -1320.3284
   -892404.75749   -683165.81247  21528401.7584   21528400.0514
      2343.2974
 04  9  8 21  4  0.0000000  0  5G 8G13G16G23G27
  -1431093.56248  -1100246.96844  22951244.1884   22951243.4774
      3605.2504
   -443696.73149   -343419.71748  20267005.3364   20267002.5744
      1106.7034
    956386.79846    722713.07542  24089819.1334   24089816.5204
     -2274.9694
    554145.63749    416657.76247  21559359.5164   21559354.8634
     -1320.6414
   -927572.30249   -710569.08947  21521709.6724   21521707.6884
      2345.7344
 04  9  8 21  4 15.0000000  0  5G 8G13G16G23G27
  -1485201.95048  -1142409.32844  22940947.4844   22940947.4414
      3608.8594
   -460293.35849   -356352.14647  20263846.9384   20263844.2464
      1105.7974
    990485.50646    749283.49342  24096305.8054   24096304.8444
     -2271.9534
    573948.13449    432088.24747  21563128.0234   21563123.8134
     -1320.1254
   -962785.83449   -738008.20647  21515009.2034   21515007.1914
      2348.9844
 04  9  8 21  4 30.0000000  0  5G 8G13G16G23G27
  -1539357.94548  -1184608.78244  22930642.0314   22930641.8714
      3612.0004
   -476869.88549   -369268.92548  20260692.6024   20260689.4224
      1104.4064
   1024545.38946    775823.63342  24102787.5394   24102786.1604
     -2269.4374
    593749.48449    447517.85647  21566895.9924   21566891.0784
     -1320.1414
   -998041.87749   -765480.43747  21508300.3364   21508297.6684
      2351.7664
 04  9  8 21  4 45.0000000  0  5G 8G13G16G23G27
  -1593555.36948  -1226840.52344  22920328.5784   22920328.3164
      3614.2974
   -493419.83249   -382164.99548  20257543.3984   20257540.3364
      1102.1414
   1058572.47945    802338.20042  24109263.4534   24109261.8244
     -2267.5314
    613555.87349    462951.37647  21570664.9454   21570659.3914
     -1320.8444
  -1033334.10049   -792980.86547  21501583.9224   21501581.4614
      2353.7504
 04  9  8 21  5  0.0000000  0  5G 8G13G16G23G27
  -1647792.98547  -1269103.57044  22910006.8594   22910007.0314
      3617.2974
   -509942.19349   -395039.56148  20254399.1484   20254396.3834
      1100.7194
   1092567.51546    828827.77142  24115733.2424   24115730.5944
     -2265.2034
    633368.31149    478389.61847  21574435.7664   21574430.5084
     -1320.8914
  -1068661.40449   -820508.62747  21494861.3134   21494859.5204
      2356.4694
 04  9  8 21  5 15.0000000  0  5G 8G13G16G23G27
  -1702072.55548  -1311399.33244  22899678.7504   22899678.3554
      3619.7814
   -526438.92949   -407894.15748  20251259.9384   20251257.0044
      1098.6414
   1126527.98546    855290.49142  24122196.0634   24122193.3094
     -2263.2034
    653184.63749    493830.91247  21578206.5084   21578201.7114
     -1321.4694
  -1104025.93249   -848065.39447  21488132.0704   21488130.7584
      2358.5944
 04  9  8 21  5 30.0000000  0  5G 8G13G16G23G27
  -1756390.09948  -1353724.64844  22889342.7584   22889342.6214
      3621.9224
   -542905.89949   -420725.57148  20248126.5634   20248123.3874
      1096.3284
   1160457.51246    881729.02742  24128651.7344   24128649.1954
     -2261.2664
    673008.71749    509278.21747  21581978.6094   21581975.0904
     -1322.3754
  -1139423.71349   -875648.07247  21481395.8984   21481394.6684
      2360.4534
 04  9  8 21  5 45.0000000  0  5G 8G13G16G23G27
  -1810746.00148  -1396079.88845  22878999.1334   22878997.7624
      3624.8284
   -559343.11749   -433533.80448  20244998.7274   20244995.7934
      1094.6254
   1194355.72146    908143.21442  24135101.2114   24135100.1024
     -2258.9844
    692840.09849    524731.20547  21585752.5234   21585747.6094
     -1322.5164
  -1174854.96249   -903256.84247  21474653.2034   21474651.0474
      2363.0164
 04  9  8 21  6  0.0000000  0  5G 8G13G16G23G27
  -1865136.47048  -1438462.03545  22868648.4694   22868647.7894
      3626.8754
   -575746.81549   -446315.89948  20241877.2504   20241874.3284
      1092.0784
   1228225.92646    934535.53542  24141546.8754   24141545.6844
     -2257.3444
    712682.50949    540192.80647  21589527.9534   21589523.4774
     -1323.5314
  -1210316.04349   -930888.84147  21467905.5864   21467903.6454
      2364.6884
 04  9  8 21  6 15.0000000  0  5G 8G13G16G23G27
  -1919555.21248  -1480866.22345  22858293.3134   22858292.4144
      3628.8284
   -592110.53249   -459066.84748  20238763.2734   20238759.9884
      1089.5314
   1262074.20246    960910.76242  24147989.1024   24147986.5634
     -2255.7974
    732542.19849    555667.88847  21593307.0314   21593302.9924
     -1324.6254
  -1245800.63349   -958539.16947  21461152.8834   21461151.1884
      2366.4224
 04  9  8 21  6 30.0000000  0  5G 8G13G16G23G27
  -1974001.17848  -1523291.62944  22847931.8754   22847931.4654
      3630.7664
   -608432.81249   -471785.51548  20235657.0864   20235654.3364
      1086.9384
   1295901.55946    987269.66642  24154425.8364   24154423.0984
     -2254.3444
    752420.40849    571157.35447  21597089.6414   21597085.8134
     -1325.7034
  -1281307.25649   -986206.66747  21454396.2814   21454394.5084
      2367.9844
 04  9  8 21  6 45.0000000  0  6G 3G 8G13G16G23G27
    -82490.18514                  23152701.406
      2166.016
  -2028475.40048  -1565739.07544  22837566.6804   22837564.9574
      3631.6884
   -624715.03949   -484472.97748  20232558.8834   20232555.6134
      1083.2974
   1329706.16946   1013610.92242  24160859.6564   24160856.4924
     -2253.7504
    772315.50749    586660.00447  21600876.8444   21600871.7504
     -1327.7034
  -1316837.56049  -1013892.62747  21447634.9384   21447633.1374
      2368.6254
 04  9  8 21  7  0.0000000  0  6G 3G 8G13G16G23G27
   -114962.32914                  23146526.492
      2162.625
  -2082974.63148  -1608205.99744  22827195.3984   22827194.4654
      3634.1414
   -640954.12849   -497126.81148  20229468.5944   20229465.2974
      1081.2034
   1363490.62846   1039936.41342  24167288.7344   24167285.9654
     -2251.5474
    792230.40549    602178.10447  21604665.6804   21604661.1134
     -1328.3284
  -1352388.50049  -1041594.63547  21440869.8834   21440867.5944
      2370.7344
 04  9  8 21  7 15.0000000  0  5G 8G13G16G23G27
  -2137499.54948  -1650692.91644  22816820.3444   22816818.8094
      3635.7194
   -657150.35149   -509747.24448  20226386.6564   20226383.3794
      1078.1724
   1397254.24246   1066245.63141  24173711.6024   24173711.0744
     -2250.3914
    812164.58649    617711.21547  21608458.5554   21608454.4414
     -1329.7194
  -1387960.65549  -1069313.19847  21434100.8444   21434098.7664
      2372.0474
 04  9  8 21  7 30.0000000  0  5G 8G13G16G23G27
  -2192044.39248  -1693195.40145  22806439.9844   22806439.0354
      3636.5634
   -673297.80949   -522329.68548  20223313.8914   20223310.9144
      1074.5004
   1431002.43746   1092542.91541  24180135.0864   24180132.7934
     -2249.7344
    832123.60949    633263.66547  21612257.4924   21612252.5084
     -1331.7194
  -1423548.35649  -1097043.87447  21427329.1564   21427326.6024
      2372.6884
 04  9  8 21  7 45.0000000  0  5G 8G13G16G23G27
  -2246604.45348  -1735709.71044  22796057.2974   22796056.9884
      3638.1724
   -689392.02249   -534870.62447  20220251.2194   20220248.3484
      1071.5634
   1464739.37245   1118831.38341  24186553.3674   24186553.0514
     -2248.3444
    852111.92949    648838.97247  21616061.1254   21616056.3484
     -1333.1874
  -1459146.99449  -1124783.04847  21420554.5634   21420553.0864
      2373.9694
 04  9  8 21  8  0.0000000  0  5G 8G13G16G23G27
  -2301188.09748  -1778242.37645  22785671.0004   22785670.5164
      3639.6884
   -705440.98849   -547376.31848  20217197.3054   20217194.1914
      1068.4064
   1498456.65346   1145104.54341  24192970.9454   24192969.3674
     -2247.2034
    872121.19449    664430.56947  21619868.1644   21619864.0554
     -1334.6874
  -1494764.71949  -1152537.12447  21413776.9144   21413774.9804
      2375.1254
 04  9  8 21  8 15.0000000  0  5G 8G13G16G23G27
  -2355789.59648  -1820788.99745  22775280.2194   22775279.5354
      3640.5634
   -721438.98649   -559842.29948  20214152.6024   20214149.1844
      1064.6724
   1532159.38846   1171366.37141  24199383.5474   24199382.6414
     -2246.5004
    892156.99849    680042.86847  21623681.2664   21623676.4384
     -1336.7504
  -1530396.00149  -1180301.75547  21406996.2974   21406994.2664
      2375.7814
 04  9  8 21  8 30.0000000  0  5G 8G13G16G23G27
  -2410405.96948  -1863347.17545  22764887.0784   22764886.5904
      3641.3134
   -737382.82749   -572266.08148  20211119.1024   20211115.9304
      1060.8754
   1565850.49345   1197619.14041  24205795.3134   24205794.1414
     -2246.0004
    912222.23149    695678.08347  21627499.4534   21627495.2384
     -1338.8914
  -1566037.74749  -1208074.54447  21400213.5084   21400211.7544
      2376.2664
 04  9  8 21  8 45.0000000  0  5G 8G13G16G23G27
  -2465031.87648  -1905912.79544  22754491.7504   22754491.4924
      3642.0944
   -753267.32349   -584643.61248  20208095.8754   20208093.1054
      1057.1414
   1599534.64545   1223866.53942  24212204.6724   24212204.4804
     -2245.3914
    932321.96649    711340.19947  21631324.8284   21631319.5514
     -1341.0314
  -1601684.95549  -1235851.58247  21393430.5864   21393428.4534
      2376.7344
 04  9  8 21  9  0.0000000  0  5G 8G13G16G23G27
  -2519670.78348  -1948488.55545  22744094.7034   22744093.6094
      3643.1254
   -769095.95249   -596977.61148  20205084.0474   20205080.8054
      1053.4694
   1633207.98946   1250105.44841  24218613.2344   24218612.8834
     -2244.5314
    952452.34849    727026.19047  21635155.2734   21635150.5664
     -1342.9844
  -1637341.14849  -1263635.62147  21386645.0234   21386643.2464
      2377.4694
 04  9  8 21  9 15.0000000  0  5G 8G13G16G23G27
  -2574321.54948  -1991073.54945  22733695.0554   22733694.3524
      3643.7974
   -784867.31549   -609266.98148  20202082.4614   20202079.4224
      1049.5314
   1666871.48246   1276336.74642  24225019.3674   24225018.5944
     -2243.9064
    972614.68449    742737.08747  21638992.0704   21638987.1334
     -1345.2034
  -1673005.10049  -1291425.71647  21379858.3134   21379856.8524
      2377.9064
 04  9  8 21  9 30.0000000  0  5G 8G13G16G23G27
  -2628984.76348  -2033668.24645  22723293.3134   22723292.3364
      3644.1884
   -800581.79849   -621512.03748  20199092.3524   20199089.2114
      1045.3134
   1700524.21246   1302559.56842  24231424.1334   24231422.3554
     -2243.5164
    992808.32049    758472.35746  21642835.0004   21642829.8594
     -1347.6724
  -1708677.43749  -1319222.33447  21373070.2734   21373068.5394
      2377.9844
 04  9  8 21  9 45.0000000  0  5G 8G13G16G23G27
  -2683655.84148  -2076269.06144  22712889.2424   22712888.3204
      3645.2504
   -816235.01749   -633709.34448  20196113.3754   20196110.6094
      1041.7034
   1734170.28146   1328777.22942  24237826.4064   24237824.1414
     -2242.6414
   1013037.40149    774235.28146  21646684.2814   21646679.3834
     -1349.6094
  -1744353.76849  -1347022.06247  21366281.5634   21366279.6454
      2378.7344
 04  9  8 21 10  0.0000000  0  5G 8G13G16G23G27
  -2738335.00248  -2118876.18845  22702484.1334   22702483.4454
      3646.1724
   -831827.13149   -645859.05548  20193146.3204   20193144.0514
      1038.0634
   1767809.13345   1354989.27242  24244225.3444   24244225.4964
     -2241.8284
   1033301.64049    790025.57047  21650540.7424   21650535.8204
     -1351.5314
  -1780034.30249  -1374825.07547  21359491.6884   21359489.3014
      2379.4694
 04  9  8 21 10 15.0000000  0  4G 8G13G23G27
  -2793025.41448  -2161492.08845  22692077.5084   22692076.0864
      3646.2194
   -847361.18249   -657963.53148  20190190.5864   20190187.5984
      1033.4384
   1053597.69849    805840.64547  21654402.5004   21654398.2114
     -1354.3914
  -1815722.31549  -1402633.92547  21352700.5944   21352698.7774
      2379.2664
 04  9  8 21 10 30.0000000  0  4G 8G13G23G27
  -2847722.61548  -2204113.25145  22681669.1094   22681667.0394
      3646.5474
   -862832.79549   -670019.31347  20187246.7814   20187243.5664
      1029.2344
   1073929.88349    821683.88947  21658271.6724   21658267.0984
     -1356.7814
  -1851413.52649  -1430445.24247  21345908.3284   21345905.9924
      2379.3134
 04  9  8 21 10 45.0000000  0  4G 8G13G23G27
  -2902424.06048  -2246737.75345  22671259.1024   22671258.7344
      3646.5164
   -878239.13049   -682024.26348  20184314.7664   20184311.5664
      1024.6414
   1094300.60149    837557.14947  21662148.3834   21662143.2274
     -1359.5784
  -1887105.11649  -1458256.87447  21339116.6094   21339113.9844
      2379.1884
 04  9  8 21 11  0.0000000  0  4G 8G13G23G27
  -2957127.54848  -2289363.81445  22660849.3834   22660848.3054
      3647.2344
   -893577.98349   -693976.61548  20181395.7114   20181392.9264
      1020.5944
   1114711.94749    853462.08247  21666031.5864   21666026.9384
     -1361.7974
  -1922795.22249  -1486067.34147  21332325.1024   21332323.3754
      2379.5164
 04  9  8 21 11 15.0000000  0  4G 8G13G23G27
  -3011836.24948  -2331993.95945  22650438.4774   22650438.0744
      3647.5004
   -908852.44249   -705878.79248  20178488.9774   20178486.1134
      1016.2344
   1135160.64849    869396.12146  21669922.9774   21669918.4574
     -1364.4224
  -1958486.84149  -1513878.99247  21325533.3364   21325531.6884
      2379.6254
 04  9  8 21 11 30.0000000  0  5G 3G 8G13G23G27
    -17431.40513                  23037534.734
      2074.766
  -3066547.85148  -2374626.36245  22640027.6094   22640025.9734
      3647.6724
   -924060.03349   -717728.86848  20175594.8674   20175592.2194
      1011.7344
   1155648.95249    885361.01247  21673822.0164   21673817.8714
     -1367.0004
  -1994177.78749  -1541690.10947  21318741.7974   21318739.6174
      2379.4844
 04  9  8 21 11 45.0000000  0  4G 8G13G23G27
  -3121258.08648  -2417257.70845  22629616.0004   22629614.9924
      3647.5164
   -939196.62949   -729523.62948  20172715.2584   20172712.0044
      1006.9694
   1176180.73349    901359.77647  21677729.5234   21677724.7624
     -1370.0164
  -2029863.87949  -1569497.45647  21311950.5394   21311948.7034
      2379.1564
 04  9  8 21 12  0.0000000  0  4G 8G13G23G27
  -3175971.40748  -2459891.43745  22619204.3524   22619203.9304
      3647.6094
   -954266.42549   -741266.32748  20169847.3674   20169844.0274
      1002.3444
   1196751.55249    917388.98047  21681644.0944   21681639.6954
     -1372.7664
  -2065549.56449  -1597304.47547  21305159.7424   21305158.1024
      2378.9534
 04  9  8 21 12 15.0000000  0  4G 8G13G23G27
  -3230679.00348  -2502520.70045  22608794.7734   22608792.8014
      3647.0634
   -969260.51049   -752950.02648  20166993.4064   20166990.6454
       997.1564
   1217370.00149    933455.28247  21685566.6174   21685563.0354
     -1376.1254
  -2101226.11449  -1625104.38647  21298370.8524   21298368.3834
      2378.1724
 04  9  8 21 12 30.0000000  0  5G 3G 8G13G23G27
    -26281.23315                  23013984.852
      2051.031
  -3285384.94748  -2545148.69645  22598384.0394   22598382.3094
      3647.1414
   -984182.78449   -764577.78448  20164154.3674   20164151.0664
       992.5474
   1238032.11249    949555.61047  21689499.2664   21689495.2854
     -1378.8284
  -2136897.41549  -1652900.20547  21291582.9304   21291580.9264
      2377.9694
 04  9  8 21 12 45.0000000  0  5G 3G 8G13G23G27
    -57000.143 4                  23008137.086
      2045.406
  -3340087.19448  -2587773.79445  22587974.6334   22587973.0434
      3647.2504
   -999031.48549   -776148.18747  20161328.5554   20161325.8364
       988.0164
   1258739.36649    965691.12546  21693439.5004   21693435.3834
     -1381.3914
  -2172561.75749  -1680690.58847  21284795.7664   21284794.2194
      2377.9844
 04  9  8 21 13  0.0000000  0  5G 3G 8G13G23G27
                                  23002307.742
      2039.094
  -3394789.84448  -2630399.20844  22577564.2344   22577563.4224
      3646.9844
  -1013810.69449   -787664.46548  20158516.4844   20158513.3634
       983.0634
   1279487.58649    981858.53447  21697388.4534   21697384.1994
     -1384.3914
  -2208223.45249  -1708478.92347  21278009.6804   21278008.0634
      2377.4694
 04  9  8 21 13 15.0000000  0  5G 3G 8G13G23G27
   -118175.22714                  22996496.672
      2033.281
  -3449490.34048  -2673022.95345  22567156.0164   22567154.7664
      3646.7974
  -1028517.72049   -799124.49148  20155717.6484   20155714.4964
       978.2504
   1300279.24649    998059.81347  21701344.9844   21701341.2034
     -1387.3444
  -2243879.81249  -1736263.09747  21271224.9384   21271223.0784
      2377.1094
 04  9  8 21 13 30.0000000  0  5G 3G 8G13G23G27
   -148631.419 4                  22990702.734
      2027.469
  -3504191.77548  -2715647.42245  22556746.9064   22556745.4024
      3646.7504
  -1043155.28649   -810530.40448  20152932.4844   20152929.2854
       973.3914
   1321111.23549   1014292.48946  21705308.7974   21705304.6454
     -1390.2504
  -2279533.88149  -1764045.49247  21264440.2584   21264437.4614
      2376.8134
 04  9  8 21 13 45.0000000  0  5G 3G 8G13G23G27
   -178998.841 3                  22984922.992
      2021.406
  -3558891.98048  -2758270.93545  22546337.8834   22546336.0864
      3646.5164
  -1057721.55649   -821880.75148  20150160.1174   20150157.9414
       968.5004
   1341985.28249   1030557.95446  21709280.9534   21709276.5394
     -1393.1564
  -2315183.78049  -1791824.63147  21257656.5084   21257653.6724
      2376.3134
 04  9  8 21 14  0.0000000  0  5G 3G 8G13G23G27
   -209273.00513                  22979165.664
      2014.828
  -3613586.75748  -2800890.22145  22535929.4534   22535928.4654
      3645.9694
  -1072212.17749   -833172.13448  20147402.8594   20147399.7664
       963.3444
   1362905.55349   1046859.45647  21713262.6334   21713257.5084
     -1396.3914
  -2350825.31049  -1819597.25447  21250874.0164   21250871.4224
      2375.6884
 04  9  8 21 14 15.0000000  0  5G 3G 8G13G23G27
   -239452.404 2                  22973417.969
      2009.422
  -3668274.58948  -2843504.08845  22525522.9304   22525521.2424
      3645.8594
  -1086625.59349   -844403.37147  20144660.3984   20144657.0434
       958.5164
   1383873.54848   1063198.11747  21717251.8524   21717248.6214
     -1399.2034
  -2386456.82749  -1847362.05647  21244092.7504   21244091.0984
      2375.3594
 04  9  8 21 14 30.0000000  0  5G 3G 8G13G23G27
   -269546.37113                  22967697.023
      2003.234
  -3722965.32248  -2886120.22245  22515114.5314   22515113.9884
      3645.9064
  -1100971.55349   -855582.05148  20141930.3594   20141927.2304
       953.9064
   1404879.05349   1079566.01846  21721249.6174   21721244.6374
     -1401.8594
  -2422088.42549  -1875126.93147  21237312.5554   21237310.9494
      2375.2034
 04  9  8 21 14 45.0000000  0  4G 8G13G23G27
  -3777656.09948  -2928736.40145  22504707.5944   22504706.5314
      3645.9064
  -1115247.08149   -866705.84948  20139213.6414   20139210.5984
       949.1884
   1425924.68349   1095965.20846  21725253.7344   21725250.0704
     -1404.6414
  -2457717.15349  -1902889.58047  21230533.1804   21230530.4344
      2374.9844
 04  9  8 21 15  0.0000000  0  5G 3G 8G13G23G27
    -21128.99314                  22956290.203
      1990.891
  -3832343.00748  -2971349.52345  22494300.7664   22494300.5824
      3645.4064
  -1129448.23749   -877771.68148  20136511.3524   20136508.2424
       944.0474
   1447014.40149   1112398.73046  21729266.8524   21729262.2304
     -1407.6564
  -2493339.30649  -1930647.10347  21223753.8834   21223751.8594
      2374.3134
 04  9  8 21 15 15.0000000  0  4G 8G13G23G27
  -3887027.48749  -3013960.77045  22483896.2114   22483894.7584
      3645.4534
  -1143576.36149   -888780.61348  20133822.8204   20133819.6914
       939.3284
   1468146.60749   1128865.35246  21733288.1644   21733284.8874
     -1410.3594
  -2528956.11349  -1958400.45047  21216976.5944   21216974.9694
      2374.1414
 04  9  8 21 15 30.0000000  0  4G 8G13G23G27
  -3941706.63148  -3056567.86545  22473489.6094   22473488.4064
      3645.0004
  -1157628.66949   -899730.46748  20131148.9304   20131145.6294
       934.2664
   1489323.87849   1145367.10846  21737318.7274   21737314.1174
     -1413.3594
  -2564565.03449  -1986147.66047  21210200.2664   21210197.9734
      2373.6414
 04  9  8 21 15 45.0000000  0  4G 8G13G23G27
  -3996381.80348  -3099171.87445  22463086.0084   22463084.6524
      3645.0314
  -1171606.32849   -910622.15447  20128488.7274   20128486.0944
       929.5004
   1510544.92949   1161902.95646  21741357.2734   21741352.7194
     -1416.0624
  -2600167.24949  -2013889.64247  21203425.3984   21203423.2274
      2373.2974
 04  9  8 21 16  0.0000000  0  4G 8G13G23G27
  -4051054.36748  -3141773.85245  22452681.9924   22452680.6334
      3644.5784
  -1185510.72349   -921456.75848  20125842.9614   20125839.5204
       924.3284
   1531808.07849   1178471.60946  21745404.2274   21745398.5434
     -1419.0944
  -2635764.30049  -2041627.60147  21196651.6334   21196649.4144
      2372.7504
 04  9  8 21 16 15.0000000  0  5G 3G 8G13G23G27
    -24793.56815                  22928093.859
      1960.516
  -4105724.40648  -3184373.85945  22442278.5554   22442276.6684
      3644.5164
  -1199341.76149   -932234.18448  20123210.9304   20123208.1454
       919.5784
   1553113.14649   1195072.95546  21749457.2584   21749452.3134
     -1421.8444
  -2671356.11249  -2069361.47047  21189878.6564   21189876.4694
      2372.5474
 04  9  8 21 16 30.0000000  0  5G 3G 8G13G23G27
    -54157.064 4                  22922503.930
      1954.813
  -4160394.74348  -3226974.10945  22431874.9614   22431873.3874
      3644.8284
  -1213102.28349   -942956.68048  20120592.3984   20120589.2624
       915.0474
   1574457.07349   1211704.55346  21753519.0234   21753515.0984
     -1424.1874
  -2706945.83849  -2097093.72947  21183106.6094   21183103.3714
      2372.6254
 04  9  8 21 16 45.0000000  0  5G 3G 8G13G23G27
    -83428.95545   -408892.62551  22916933.9694   22916932.6764
      1948.2814
  -4215063.09348  -3269572.78245  22421472.2974   22421471.0274
      3644.4384
  -1226789.87149   -953622.33247  20117987.9454   20117984.8834
       910.0004
   1595842.10449   1228368.19947  21757588.9064   21757584.4804
     -1427.0944
  -2742531.01449  -2124822.43447  21176334.6254   21176332.2424
      2372.1724
 04  9  8 21 17  0.0000000  0  5G 3G 8G13G23G27
   -112601.84744   -431624.76641  22911381.8754   22911380.9574
      1941.0634
  -4269721.95548  -3312164.09245  22411070.4844   22411069.6214
      3643.3284
  -1240396.99349   -964225.29348  20115398.2504   20115395.5044
       904.1564
   1617275.46249   1245069.49646  21761667.0164   21761662.8484
     -1430.8124
  -2778104.29849  -2152541.86147  21169564.9924   21169563.0474
      2370.8444
 04  9  8 21 17 15.0000000  0  5G 3G 8G13G23G27
   -141677.27745   -454280.96541  22905850.7194   22905847.9224
      1934.6094
  -4324372.96849  -3354749.26445  22400671.1414   22400669.6094
      3642.7664
  -1253925.47049   -974766.96948  20112823.7344   20112820.9884
       898.8914
   1638755.37049   1261807.07546  21765754.2034   21765751.0594
     -1433.8914
  -2813667.49249  -2180253.44148  21162797.7974   21162795.6294
      2370.1724
 04  9  8 21 17 30.0000000  0  5G 3G 8G13G23G27
   -170659.79744   -476864.65241  22900335.4534   22900332.2194
      1929.0314
  -4379020.97949  -3397332.12145  22390271.4694   22390270.6134
      3643.0784
  -1267379.81849   -985250.87848  20110264.0164   20110260.9184
       894.5314
   1660276.95249   1278577.10047  21769850.3594   21769846.3204
     -1436.0784
  -2849225.17749  -2207960.72547  21156031.6484   21156029.3674
      2370.3594
 04  9  8 21 17 45.0000000  0  5G 3G 8G13G23G27
                                  22894840.523
      1923.141
  -4433663.00748  -3439910.30245  22379873.4534   22379872.9964
      3642.9224
  -1280756.79249   -995674.51148  20107718.1954   20107715.4844
       889.4694
   1681842.98049   1295381.77747  21773954.6414   21773949.9574
     -1438.9374
  -2884774.62049  -2235661.58147  21149266.7194   21149264.5234
      2369.8914
 04  9  8 21 18  0.0000000  0  5G 3G 8G13G23G27
   -228336.438 3                  22889356.234
      1916.484
  -4488299.17049  -3482483.92645  22369475.8524   22369475.6644
      3642.4384
  -1294057.16449  -1006038.44348  20105187.0864   20105183.9344
       884.3444
   1703452.87549   1312220.60846  21778066.3914   21778061.4064
     -1441.9064
  -2920316.08349  -2263356.24147  21142503.0944   21142500.9574
      2369.4224
 04  9  8 21 18 15.0000000  0  5G 3G 8G13G23G27
   -257028.965 4                  22883901.063
      1909.516
  -4542928.04249  -3525051.83645  22359080.9844   22359079.8714
      3641.5314
  -1307279.01749  -1016341.17948  20102670.9774   20102668.2424
       878.6414
   1725108.19249   1329094.86946  21782186.7034   21782182.9304
     -1445.3124
  -2955847.97649  -2291043.41847  21135741.5634   21135739.2344
      2368.2504
 04  9  8 21 18 30.0000000  0  5G 3G 8G13G23G27
   -285618.91044   -566443.27051  22878457.0474   22878455.5904
      1903.1884
  -4597544.54549  -3567610.13245  22348688.7274   22348686.5044
      3641.1254
  -1320417.27149  -1026578.78848  20100171.1254   20100167.8364
       873.5314
   1746813.75849   1346008.27846  21786317.7504   21786313.6604
     -1448.2344
  -2991365.40849  -2318719.33047  21128983.0314   21128980.7234
      2367.8134
 04  9  8 21 18 45.0000000  0  5G 3G 8G13G23G27
   -314112.56444   -588646.01241  22873035.8054   22873033.2894
      1896.7664
  -4652155.32949  -3610163.96045  22338295.6644   22338294.8984
      3640.9694
  -1333478.64049  -1036756.48348  20097685.3984   20097682.7934
       868.5944
   1768562.61349   1362955.42047  21790456.5084   21790452.3484
     -1450.9534
  -3026875.17549  -2346389.27447  21122225.6024   21122223.9304
      2367.5004
 04  9  8 21 19  0.0000000  0  5G 3G 8G13G23G27
   -342509.11044   -610773.19541  22867631.8444   22867630.4964
      1889.5944
  -4706759.56948  -3652712.70745  22327904.8594   22327903.4884
      3639.8134
  -1346462.21849  -1046873.56548  20095214.8524   20095212.0784
       862.6724
   1790355.47449   1379936.81746  21794603.3284   21794598.9344
     -1454.6414
  -3062376.46249  -2374052.61447  21115470.0784   21115468.1294
      2366.1884
 04  9  8 21 19 15.0000000  0  5G 3G 8G13G23G27
   -370801.36945   -632819.16041  22862248.1414   22862246.5944
      1883.0004
  -4761350.40149  -3695250.98245  22317516.8054   22317516.2664
      3639.3444
  -1359361.20849  -1056924.72347  20092760.3134   20092757.3444
       857.5004
   1812199.12749   1396957.81146  21798759.7814   21798755.7504
     -1457.5944
  -3097862.32449  -2401703.93147  21108717.5394   21108715.2664
      2365.5474
 04  9  8 21 19 30.0000000  0  5G 3G 8G13G23G27
   -398989.56044   -654783.93341  22856885.2734   22856881.9694
      1875.7504
  -4815928.14949  -3737779.09245  22307130.9064   22307129.8134
      3638.0944
  -1372175.85649  -1066910.17747  20090322.0314   20090319.0744
       851.4844
   1834092.93249   1414017.92046  21802926.3754   21802922.0514
     -1461.2194
  -3133333.33749  -2429343.68147  21101967.6334   21101964.8714
      2364.2664
 04  9  8 21 19 45.0000000  0  5G 3G 8G13G23G27
                                  22851537.7664   22851538.3444
      1869.5944
  -4870494.11849  -3780298.00745  22296746.8834   22296746.2624
      3637.6884
  -1384907.31549  -1076830.78948  20087899.0164   20087896.1954
       846.2974
   1856035.57949   1431116.06546  21807101.3914   21807098.1724
     -1464.1094
  -3168790.67049  -2456972.77047  21095220.0314   21095217.6644
      2363.7034
 04  9  8 21 19 59.9990000  0  4G 8G13G23G27
  -4925044.09849  -3822804.48545  22286367.5894   22286365.4014
      3635.5164
  -1397554.04349  -1086685.38848  20085492.5424   20085489.4684
       839.3594
   1878026.03149   1448251.45746  21811286.4564   21811282.2494
     -1468.7344
  -3204231.36949  -2484588.89547  21088475.9404   21088473.4834
      2361.3594
 04  9  8 21 20 14.9990000  0  4G 8G13G23G27
  -4979578.42049  -3865298.72645  22275989.3944   22275989.0854
      3634.6254
  -1410110.74949  -1096469.84548  20083102.9254   20083099.7414
       833.7974
   1900073.91449   1465431.61047  21815482.2304   21815478.6404
     -1472.0164
  -3239653.32049  -2512190.40847  21081735.2924   21081732.6404
      2360.4844
 04  9  8 21 20 29.9990000  0  5G 3G 8G13G23G27
    -48569.41854   -713457.66751  22835628.1834   22835627.3514
      1847.1414
  -5034101.53249  -3907784.26645  22265613.8394   22265612.9954
      3634.0164
  -1422584.73449  -1106189.84048  20080729.3234   20080726.4374
       828.3914
   1922169.56149   1482648.94746  21819686.7844   21819683.0384
     -1475.0944
  -3275062.30649  -2539781.83447  21074997.4334   21074994.7844
      2359.6414
 04  9  8 21 20 44.9990000  0  5G 3G 8G13G23G27
    -76229.18153   -735010.63751  22830365.4724   22830363.3434
      1840.5634
  -5088607.40549  -3950256.34345  22255241.5424   22255241.4014
      3633.3594
  -1434969.96349  -1115840.65847  20078372.6984   20078369.5814
       822.9224
   1944318.83149   1499908.09646  21823901.8784   21823897.5344
     -1478.1874
  -3310452.41349  -2567358.52247  21068262.8084   21068260.6674
      2358.9224
 04  9  8 21 20 59.9990000  0  5G 3G 8G13G23G27
   -103782.07753   -756480.44151  22825126.2454   22825120.3864
      1832.7504
  -5143098.37049  -3992716.82246  22244872.5654   22244871.1594
      3632.0314
  -1447268.73549  -1125424.12248  20076031.9644   20076028.9684
       816.7974
   1966519.09649   1517206.99546  21828126.0264   21828121.3664
     -1481.9374
  -3345826.03349  -2594922.38047  21061531.2144   21061529.3084
      2357.5314
 04  9  8 21 21 14.9990000  0  5G 3G 8G13G23G27
   -131234.33844   -777871.84841  22819897.7534   22819895.8554
      1826.7344
  -5197580.33149  -4035170.28645  22234504.9874   22234503.6984
      3631.9064
  -1459486.84249  -1134944.73848  20073706.9404   20073704.1324
       811.8914
   1988764.25949   1534540.86946  21832359.4174   21832355.3584
     -1484.4224
  -3381188.99049  -2622477.93247  21054802.2374   21054800.1404
      2357.2504
 04  9  8 21 21 29.9990000  0  5G 3G 8G13G23G27
   -158574.34145   -799175.80241  22814693.9254   22814693.0544
      1818.9224
  -5252042.22049  -4077608.08745  22224140.8944   22224139.9834
      3630.1724
  -1471613.19449  -1144393.84048  20071399.7374   20071396.2614
       805.4064
   2011065.40049   1551918.34646  21836603.5034   21836598.5424
     -1488.5314
  -3416530.30849  -2650016.61347  21048077.0654   21048074.2184
      2355.4224
 04  9  8 21 21 44.9990000  0  5G 3G 8G13G23G27
   -185805.62746   -820394.95242  22809512.0584   22809511.3154
      1811.7344
  -5306487.27449  -4120032.78845  22213780.3394   22213779.3704
      3629.0314
  -1483651.12549  -1153774.06448  20069108.8784   20069105.7334
       799.4384
   2033418.84849   1569336.56746  21840856.8864   21840852.8314
     -1492.0314
  -3451853.43249  -2677541.12347  21041355.0814   21041353.1164
      2354.1564
 04  9  8 21 21 59.9990000  0  5G 3G 8G13G23G27
   -212927.30246   -841528.67842  22804351.6514   22804349.3354
      1804.7034
  -5360914.93949  -4162443.95145  22203423.2144   22203421.1204
      3628.0164
  -1495599.81849  -1163084.73748  20066835.0974   20066831.8584
       793.6884
   2055825.29149   1586796.10846  21845121.2064   21845116.4094
     -1495.4224
  -3487157.59149  -2705050.86047  21034636.3394   21034634.5624
      2353.0634
 04  9  8 21 22 14.9990000  0  5G 3G 8G13G23G27
   -239938.55245   -862576.43442  22799210.4954   22799208.8234
      1796.7814
  -5415324.43649  -4204840.94245  22193069.0114   22193068.2884
      3626.3754
  -1507458.65249  -1172325.39247  20064578.3554   20064575.1904
       787.2814
   2078285.13849   1604297.26746  21849394.6364   21849390.9874
     -1499.3754
  -3522442.26049  -2732545.40847  21027922.4874   21027920.0264
      2351.3444
 04  9  8 21 22 29.9990000  0  5G 3G 8G13G23G27
   -266840.83345   -883539.18642  22794091.0034   22794090.0854
      1790.0314
  -5469717.49049  -4247225.12245  22182718.8234   22182716.9994
      3625.6724
  -1519229.22849  -1181497.27647  20062338.2614   20062335.2804
       781.7974
   2100796.54849   1621838.60246  21853678.3004   21853674.2334
     -1502.3754
  -3557709.03649  -2760026.00547  21021211.6834   21021209.5304
      2350.5784
 04  9  8 21 22 44.9990000  0  5G 3G 8G13G23G27
   -293630.98745   -904414.62742  22788992.3154   22788991.8704
      1782.1724
  -5524090.69849  -4289593.83446  22172371.6204   22172371.0654
      3624.0314
  -1530908.32749  -1190597.87347  20060115.4724   20060113.0264
       775.3754
   2123362.48949   1639422.41446  21857973.0504   21857968.8194
     -1506.4534
  -3592954.93249  -2787490.33447  21014504.0114   21014502.4054
      2348.8444
 04  9  8 21 22 59.9990000  0  5G 3G 8G13G23G27
   -320309.40045   -925203.02642  22783916.7614   22783915.3514
      1775.2344
  -5578444.83149  -4331947.69545  22162028.5194   22162026.8474
      3623.4224
  -1542496.49349  -1199627.61848  20057910.8784   20057907.4954
       769.9384
   2145982.25349   1657048.18746  21862276.8234   21862272.8584
     -1509.2974
  -3628180.39249  -2814938.74147  21007800.9724   21007798.9994
      2348.1414
 04  9  8 21 23 14.9990000  0  5G 3G 8G13G23G27
   -346874.85244   -945903.32042  22778862.0114   22778860.5854
      1767.1724
  -5632778.85349  -4374285.88845  22151688.8944   22151687.8234
      3621.5634
  -1553992.47349  -1208585.54048  20055723.2224   20055720.6594
       763.3134
   2168656.97149   1674716.78246  21866591.9094   21866588.0114
     -1513.5624
  -3663384.35749  -2842370.40447  21001101.9874   21001099.6634
      2346.1414
 04  9  8 21 23 29.9990000  0  5G 3G 8G13G23G27
   -373326.68645   -966515.14942  22773828.9874   22773827.2104
      1759.2664
  -5687092.01249  -4416607.79745  22141353.2694   22141352.1444
      3619.8134
  -1565395.73449  -1217471.19147  20053552.9804   20053550.2064
       756.8134
   2191386.85549   1692428.33746  21870917.0424   21870913.2144
     -1517.4224
  -3698566.41749  -2869784.99347  20994407.2614   20994404.4014
      2344.4064
 04  9  8 21 23 44.9990000  0  5G 3G 8G13G23G27
   -399660.34344   -987034.97142  22768817.0584   22768815.3624
      1751.8134
  -5741380.10449  -4458910.18846  22131023.0814   22131021.8784
      3618.4384
  -1576701.85549  -1226281.16947  20051401.7764   20051399.0584
       750.5784
   2214176.04149   1710186.11846  21875253.4874   21875249.9994
     -1521.2664
  -3733722.14249  -2897179.06647  20987717.1674   20987715.3044
      2342.8594
 04  9  8 21 23 59.9990000  0  5G 3G 8G13G23G27
   -425880.05144  -1007465.80542  22763827.7144   22763826.1514
      1744.0164
  -5795647.31848  -4501196.30845  22120696.2374   22120695.4914
      3617.2194
  -1587915.11349  -1235018.77648  20049268.4334   20049265.4914
       744.5474
   2237020.15649   1727986.71346  21879601.1514   21879597.1634
     -1524.6724
  -3768855.84749  -2924555.97448  20981031.5344   20981029.5074
      2341.5944
 04  9  8 21 24 14.9990000  0  5G 3G 8G13G23G27
   -451985.25145  -1027807.51042  22758860.1834   22758858.4444
      1736.3444
  -5849893.14148  -4543465.75845  22110373.2534   22110371.9874
      3615.5944
  -1599035.18549  -1243683.77448  20047152.0194   20047149.3824
       738.0784
   2259919.36049   1745830.24045  21883958.1904   21883953.9524
     -1528.6094
  -3803967.26549  -2951915.51747  20974349.9404   20974347.2924
      2339.8594
 04  9  8 21 24 29.9990000  0  5G 3G 8G13G23G27
   -477972.33445  -1048057.22542  22753913.8554   22753913.5344
      1728.1564
  -5904114.01049  -4585715.76945  22100055.9804   22100054.2804
      3613.5004
  -1610058.17949  -1252273.12647  20045054.1054   20045051.4404
       731.2974
   2282877.17548   1763719.39545  21888326.2144   21888323.6054
     -1532.8124
  -3839052.95449  -2979255.01247  20967673.6514   20967670.9644
      2337.8284
 04  9  8 21 24 44.9990000  0  5G 3G 8G13G23G27
   -503839.87146  -1068213.74942  22748992.4804   22748991.1404
      1720.4064
  -5958308.65049  -4627945.33345  22089743.0344   22089741.4604
      3612.0164
  -1620982.82649  -1260785.84347  20042975.4334   20042972.4914
       724.9694
   2305894.67949   1781655.09446  21892707.9484   21892703.8004
     -1536.6724
  -3874111.43249  -3006573.30148  20961001.9094   20960999.0544
      2336.2194
 04  9  8 21 24 59.9990000  0  5G 3G 8G13G23G27
   -529593.48947  -1088281.47542  22744091.4094   22744089.9254
      1713.1094
  -6012482.95149  -4670159.06745  22079433.5584   22079432.7844
      3610.8284
  -1631815.20049  -1269226.65847  20040913.6904   20040911.2804
       718.9844
   2328965.88049   1799632.63546  21897097.7844   21897094.6054
     -1539.9844
  -3909148.54349  -3033874.94547  20954334.8234   20954332.0654
      2334.9384
 04  9  8 21 25 14.9990000  0  5G 3G 8G13G23G27
   -555231.28845  -1108258.95742  22739211.5584   22739210.9334
      1705.2814
  -6066635.04849  -4712355.49345  22069128.8394   22069128.1404
      3609.2974
  -1642553.20649  -1277593.95048  20038870.9644   20038867.3274
       712.5944
   2352092.49248   1817653.30645  21901498.8474   21901494.2144
     -1543.7504
  -3944162.50149  -3061158.55247  20947671.8154   20947669.5544
      2333.3594
 04  9  8 21 25 29.9990000  0  5G 3G 8G13G23G27
   -580751.15945  -1128144.58442  22734355.8864   22734355.4094
      1697.5944
  -6120762.87449  -4754533.00745  22058828.6284   22058827.7884
      3607.9384
  -1653194.90549  -1285886.19148  20036845.8234   20036842.8584
       706.4694
   2375276.27049   1835718.53645  21905910.6284   21905906.1984
     -1547.2194
  -3979151.44549  -3088422.66647  20941013.5344   20941011.5584
      2331.9534
 04  9  8 21 25 44.9990000  0  5G 3G 8G13G23G27
   -606153.37645  -1147938.50242  22729521.9404   22729521.0774
      1689.4694
  -6174866.72649  -4796691.80146  22048533.5264   22048531.6714
      3606.1094
  -1663740.49349  -1294103.53248  20034838.7534   20034836.0074
       699.8444
   2398516.67049   1853827.91446  21910332.5894   21910328.7264
     -1551.2344
  -4014115.65849  -3115667.49047  20934359.9954   20934357.6164
      2330.1414
 04  9  8 21 25 59.9990000  0  5G 3G 8G13G23G27
   -631437.67745  -1167640.50642  22724711.2454   22724709.5544
      1682.4534
  -6228946.45048  -4838831.83545  22038242.4094   22038240.9954
      3605.0944
  -1674189.96749  -1302246.00047  20032850.8084   20032847.8664
       694.0314
   2421813.72149   1871981.44246  21914766.5894   21914762.8004
     -1554.4224
  -4049055.08649  -3142893.02747  20927711.2454   20927708.7374
      2329.0784
 04  9  8 21 26 14.9990000  0  5G 3G 8G13G23G27
   -656605.78245  -1187252.02642  22719921.6204   22719920.8864
      1673.7974
  -6283003.99049  -4880954.58445  22027955.3864   22027953.2494
      3602.8444
  -1684544.99849  -1310314.85748  20030880.0814   20030876.9174
       686.8914
   2445165.39549   1890177.53745  21919210.0034   21919205.7614
     -1558.8284
  -4083971.61949  -3170100.70447  20921067.0194   20921064.5464
      2326.7344
 04  9  8 21 26 29.9990000  0  5G 3G 8G13G23G27
   -681656.82545  -1206772.37642  22715157.0194   22715154.0304
      1666.1414
  -6337038.54349  -4923059.42246  22017672.8154   22017671.2024
      3601.3594
  -1694804.78449  -1318309.49548  20028927.6904   20028924.7454
       680.6564
   2468572.38549   1908416.73646  21923664.5504   21923659.1014
     -1562.4374
  -4118864.34649  -3197289.84847  20914426.8944   20914424.5264
      2325.2664
 04  9  8 21 26 44.9990000  0  5G 3G 8G13G23G27
   -706594.93943  -1226204.67641  22710408.7454   22710408.4994
      1658.4534
  -6391054.08548  -4965149.44245  22007393.3784   22007392.3354
      3600.1884
  -1704973.45049  -1326233.14847  20026992.6444   20026989.4764
       674.6724
   2492030.12648   1926695.45146  21928127.7694   21928124.8664
     -1565.7504
  -4153737.68049  -3224463.87847  20907790.8554   20907788.7574
      2324.0944
 04  9  8 21 26 59.9990000  0  4G 8G13G23G27
  -6445050.15048  -5007224.27946  21997118.8394   21997117.5654
      3598.8444
  -1715050.41049  -1334085.33048  20025075.2534   20025071.9954
       668.3914
   2515539.16249   1945014.14246  21932602.2694   21932597.8394
     -1569.3444
  -4188590.96749  -3251622.27448  20901158.3234   20901156.3824
      2322.5944
 04  9  8 21 27 14.9990000  0  5G 3G 8G13G23G27
   -756131.02054  -1264804.21551  22700982.2694   22700982.6984
      1643.1414
  -6499022.68448  -5049280.78546  21986848.3784   21986846.9604
      3597.2194
  -1725031.67349  -1341862.93847  20023176.2844   20023172.5194
       662.1094
   2539103.24549   1963375.78046  21937086.1514   21937082.0854
     -1572.8914
  -4223420.19049  -3278761.92547  20894530.4484   20894527.9214
      2320.9694
 04  9  8 21 27 29.9990000  0  5G 3G 8G13G23G27
   -780722.85745  -1283966.63041  22696304.2064   22696303.1634
      1635.7194
  -6552974.82048  -5091321.38946  21976581.3004   21976580.2024
      3596.3444
  -1734920.32049  -1349568.37247  20021293.8474   20021291.1204
       656.4064
   2562719.13849   1981777.73446  21941579.8004   21941575.9724
     -1575.8914
  -4258228.67349  -3305885.40947  20887907.0424   20887904.3474
      2320.0784
 04  9  8 21 27 44.9990000  0  5G 3G 8G13G23G27
   -805196.47843  -1303037.06141  22691645.8864   22691645.6944
      1627.5634
  -6606903.20048  -5133343.49245  21966319.2694   21966317.9604
      3594.6254
  -1744712.92649  -1357198.97247  20019431.0974   20019427.8514
       649.8284
   2586390.10449   2000222.60246  21946084.4254   21946080.2064
     -1579.7344
  -4293012.88549  -3332990.00147  20881287.8944   20881285.4914
      2318.2974
 04  9  8 21 27 59.9990000  0  5G 3G 8G13G23G27
   -829555.75214                  22687012.222
      1620.000
  -6660812.57848  -5175350.77946  21956060.5654   21956059.0734
      3593.1414
  -1754414.39249  -1364758.57247  20017584.2534   20017580.9684
       643.5634
   2610110.98449   2018706.35145  21950598.1514   21950594.2414
     -1583.2504
  -4327777.91049  -3360079.62847  20874671.7614   20874670.0114
      2316.8914
 04  9  8 21 28 14.9990000  0  5G 3G 8G13G23G27
   -853799.03145  -1340908.91352  22682398.6674   22682396.9914
      1612.4064
  -6714699.65848  -5217340.69346  21945806.1204   21945804.6244
      3591.7194
  -1764021.33249  -1372244.50647  20015755.9564   20015753.1834
       637.2344
   2633884.97249   2037231.52146  21955122.6124   21955118.4174
     -1586.6724
  -4362520.26849  -3387151.58947  20868060.3234   20868058.6364
      2315.4064
 04  9  8 21 28 29.9990000  0  5G 3G 8G13G23G27
   -877923.10045  -1359706.88842  22677806.9334   22677805.9094
      1604.4694
  -6768562.07848  -5259311.39646  21935556.4954   21935555.3744
      3590.1884
  -1773531.32349  -1379654.89748  20013946.8084   20013943.7264
       630.9064
   2657714.28749   2055799.80246  21959657.2064   21959653.1404
     -1590.2974
  -4397237.64249  -3414204.09447  20861454.3864   20861452.5304
      2313.8444
 04  9  8 21 28 44.9990000  0  5G 3G 8G13G23G27
   -901928.95045  -1378412.80842  22673237.7534   22673237.5154
      1595.9534
  -6822401.18548  -5301263.93745  21925311.6834   21925309.4604
      3588.0634
  -1782945.55049  -1386990.67647  20012155.1904   20012152.2024
       624.0474
   2681597.56349   2074410.10546  21964201.9404   21964197.8704
     -1594.3914
  -4431931.35849  -3441238.14747  20854852.7454   20854850.1054
      2311.7504
 04  9  8 21 28 59.9990000  0  5G 3G 8G13G23G27
   -925812.74645  -1397023.55542  22668694.4404   22668692.9804
      1588.4224
  -6876213.13048  -5343195.30445  21915070.4564   21915070.0264
      3586.8444
  -1792260.24249  -1394248.87448  20010382.5584   20010379.7884
       617.9384
   2705538.31248   2093065.22645  21968757.8784   21968753.7414
     -1597.7194
  -4466597.60149  -3468250.80747  20848255.4954   20848253.4994
      2310.4224
 04  9  8 21 29 14.9990000  0  5G 3G 8G13G23G27
   -949575.43446  -1415539.91443  22664172.7224   22664171.1164
      1580.3444
  -6929998.61948  -5385106.07546  21904835.8554   21904834.3314
      3585.0634
  -1801476.42549  -1401430.33148  20008629.0034   20008625.8474
       611.3754
   2729535.39848   2111764.22045  21973323.6904   21973321.0384
     -1601.4374
  -4501237.42249  -3495242.87347  20841663.9564   20841661.7414
      2308.6564
 04  9  8 21 29 29.9990000  0  5G 3G 8G13G23G27
   -973216.79547  -1433961.75643  22659673.8864   22659672.1054
      1571.9064
  -6983757.77048  -5426996.29446  21894606.1674   21894604.7104
      3582.9844
  -1810593.89449  -1408534.85247  20006893.4724   20006890.4914
       604.3754
   2753588.64048   2130506.97645  21977901.0974   21977897.9684
     -1605.5164
  -4535850.80849  -3522214.33347  20835076.9174   20835074.9134
      2306.6094
 04  9  8 21 29 44.9990000  0  5G 3G 8G13G23G27
   -996731.26546  -1452284.71443  22655198.7614   22655197.9374
      1563.7664
  -7037484.95548  -5468861.62446  21884382.3704   21884380.7804
      3581.1254
  -1819607.05649  -1415558.11147  20005178.7534   20005175.9764
       597.8134
   2777703.59949   2149297.82545  21982491.1124   21982486.2064
     -1609.3284
  -4570432.10849  -3549160.79947  20828496.7304   20828494.5774
      2304.6884
 04  9  8 21 29 59.9990000  0  5G 3G 8G13G23G27
  -1020124.27146  -1470513.04543  22650746.8944   22650745.9874
      1555.2034
  -7091185.79148  -5510706.41446  21874163.1444   21874161.5154
      3578.9534
  -1828521.50849  -1422504.44548  20003482.3624   20003479.3554
       590.7194
   2801874.52248   2168132.27145  21987089.8784   21987085.6014
     -1613.5474
  -4604987.04549  -3576086.72747  20821920.8154   20821918.9404
      2302.5474
 04  9  8 21 30 14.9990000  0  5G 3G 8G13G23G27
  -1043389.36046  -1488641.62543  22646319.9804   22646319.2844
      1546.3594
  -7144853.79048  -5552525.61846  21863950.8944   21863949.0734
      3576.4064
  -1837330.84749  -1429368.86848  20001805.8784   20001803.3084
       583.4384
   2826107.43648   2187015.03445  21991701.5424   21991697.0504
     -1617.9844
  -4639509.22449  -3602987.12747  20815351.3864   20815349.3744
      2300.0164
 04  9  8 21 30 29.9990000  0  5G 3G 8G13G23G27
  -1066521.45646  -1506666.58542  22641917.3474   22641916.1514
      1537.0784
  -7198484.00948  -5594315.38446  21853745.0344   21853743.6404
      3573.5314
  -1846029.93249  -1436147.38148  20000150.5894   20000147.6834
       575.6094
   2850407.25348   2205949.92345  21996324.7924   21996321.7924
     -1622.8444
  -4673993.63249  -3629858.08047  20808789.1124   20808787.0194
      2297.0314
 04  9  8 21 30 44.9990000  0  5G 3G 8G13G23G27
  -1089517.07346  -1524585.27742  22637541.3554   22637540.1324
      1528.8134
  -7252073.20448  -5636073.17946  21843547.5114   21843545.4994
      3571.5164
  -1854615.62049  -1442837.53348  19998516.8704   19998513.5074
       568.8134
   2874777.08548   2224939.35545  22000962.5264   22000959.4764
     -1626.6874
  -4708436.89949  -3656696.99648  20802235.1904   20802233.0694
      2295.0784
 04  9  8 21 30 59.9990000  0  5G 3G 8G13G23G27
  -1112385.88746  -1542405.11142  22633190.5194   22633189.4174
      1520.3914
  -7305631.12848  -5677806.61146  21833355.7844   21833354.4214
      3569.6094
  -1863097.60549  -1449446.88248  19996902.6984   19996899.7224
       562.0784
   2899206.98348   2243975.60046  22005611.1904   22005608.3784
     -1630.5784
  -4742849.08649  -3683511.68348  20795687.0344   20795684.6084
      2293.1724
 04  9  8 21 31 14.9990000  0  5G 3G 8G13G23G27
  -1135127.27146  -1560125.67242  22628863.1514   22628861.7334
      1511.4224
  -7359156.80648  -5719514.93446  21823170.2694   21823168.9444
      3566.9224
  -1871475.26449  -1455974.95548  19995308.6594   19995305.6124
       554.6254
   2923697.34848   2263058.97646  22010272.5974   22010268.2304
     -1635.1874
  -4777229.30249  -3710301.47047  20789144.3864   20789141.7374
      2290.5164
 04  9  8 21 31 29.9990000  0  5G 3G 8G13G23G27
  -1157733.87746  -1577741.15843  22624561.4404   22624559.7104
      1502.9534
  -7412643.27549  -5761192.66146  21812991.0734   21812990.4014
      3564.8444
  -1879741.33549  -1462416.04047  19993735.3154   19993732.6794
       547.7504
   2948255.39748   2282195.13045  22014945.1514   22014941.2764
     -1639.0164
  -4811570.41549  -3737060.76747  20782608.9254   20782606.7414
      2288.4694
 04  9  8 21 31 44.9990000  0  5G 3G 8G13G23G27
  -1180210.66046  -1595255.53743  22620283.3154   22620282.6124
      1494.1564
  -7466095.45548  -5802843.70646  21802820.5034   21802818.9724
      3562.2974
  -1887900.84249  -1468774.10847  19992182.6364   19992179.9254
       540.3594
   2972875.88548   2301379.87245  22019629.8234   22019626.7264
     -1643.4064
  -4845877.42249  -3763793.50447  20776081.2144   20776078.5304
      2286.0004
 04  9  8 21 31 59.9990000  0  5G 3G 8G13G23G27
  -1202557.90645  -1612668.95742  22616030.1904   22616029.6594
      1485.4844
  -7519513.83848  -5844468.41146  21792654.5814   21792653.5694
      3560.1094
  -1895953.92949  -1475049.25247  19990650.8154   19990647.8824
       533.4064
   2997558.22748   2320612.81345  22024327.7454   22024323.7654
     -1647.5164
  -4880150.72449  -3790499.98347  20769558.7764   20769557.0584
      2283.7814
 04  9  8 21 32 14.9990000  0  5G 3G 8G13G23G27
  -1224772.61947  -1629979.16543  22611803.6594   22611802.8434
      1476.5474
  -7572895.08448  -5886064.15046  21782495.9404   21782495.2534
      3557.5004
  -1903897.72849  -1481239.22247  19989138.6124   19989135.5734
       525.9384
   3022305.26548   2339896.20145  22029036.1514   22029032.6904
     -1651.9844
  -4914387.36149  -3817177.86947  20763043.7374   20763041.9444
      2281.2034
 04  9  8 21 32 29.9990000  0  5G 3G 8G13G23G27
  -1246855.71848  -1647186.76443  22607601.6444   22607600.5934
      1467.8754
  -7626240.27148  -5927631.81846  21772345.5194   21772344.1444
      3555.1564
  -1911733.17749  -1487344.76948  19987647.6594   19987644.8004
       518.7814
   3047115.88548   2359229.11945  22033757.5814   22033753.7884
     -1656.1094
  -4948588.38249  -3843828.00747  20756535.3084   20756533.1364
      2278.9064
 04  9  8 21 32 44.9990000  0  5G 3G 8G13G23G27
  -1268804.79647  -1664289.92243  22603425.8784   22603423.7304
      1459.0314
  -7679547.22948  -5969169.69846  21762201.6754   21762200.1874
      3552.7344
  -1919457.94049  -1493364.07648  19986177.6124   19986174.9914
       511.5004
   3071992.07548   2378613.14945  22038491.4954   22038488.2024
     -1660.3594
  -4982751.52449  -3870448.64447  20750034.8154   20750032.2724
      2276.4844
 04  9  8 21 32 59.9990000  0  5G 3G 8G13G23G27
  -1290626.64347  -1681294.03142  22599271.8624   22599270.6834
      1450.8754
  -7732822.67148  -6010683.01645  21752063.1754   21752062.3584
      3551.0314
  -1927078.93949  -1499302.52447  19984727.3944   19984724.5384
       504.9064
   3096926.91548   2398042.85845  22043236.0114   22043233.3084
     -1663.9844
  -5016883.64149  -3897045.08648  20743539.4404   20743537.2454
      2274.7504
 04  9  8 21 33 14.9990000  0  5G 3G 8G13G23G27
  -1312320.79646  -1698198.52743  22595143.4094   22595143.1284
      1442.0784
  -7786066.25148  -6052171.49946  21741931.1444   21741929.8904
      3548.5634
  -1934595.92149  -1505159.93348  19983297.2924   19983293.9444
       497.7814
   3121920.55048   2417518.35645  22047993.4724   22047989.3864
     -1668.0474
  -5050984.27249  -3923617.02147  20737050.8944   20737048.3554
      2272.4694
 04  9  8 21 33 29.9990000  0  5G 3G 8G13G23G27
  -1333884.69147  -1715001.53643  22591040.2924   22591039.7334
      1433.3284
  -7839275.52348  -6093633.25246  21731806.1904   21731804.7724
      3546.2504
  -1942006.08349  -1510934.08748  19981886.9954   19981884.1124
       490.5634
   3146975.15148   2437041.37545  22052761.3084   22052756.9724
     -1672.2344
  -5085051.13949  -3950162.61647  20730567.4804   20730565.9014
      2270.0164
 04  9  8 21 33 44.9990000  0  5G 3G 8G13G23G27
  -1355316.06346  -1731701.27942  22586961.1754   22586960.4374
      1424.2974
  -7892448.13749  -6135066.46946  21721688.0264   21721686.2804
      3543.5784
  -1949307.34149  -1516623.39948  19980497.7064   19980494.3274
       483.1414
   3172092.89648   2456613.57444  22057540.3864   22057537.3744
     -1676.5784
  -5119081.95949  -3976680.14647  20724091.6364   20724089.3744
      2267.4694
 04  9  8 21 33 59.9990000  0  5G 3G 8G13G23G27
  -1376613.89146  -1748296.97643  22582909.5344   22582907.6984
      1415.5004
  -7945583.03248  -6176470.26946  21711576.3154   21711574.9954
      3541.1724
  -1956498.79649  -1522227.12847  19979129.2924   19979125.8864
       475.8284
   3197274.47248   2476235.59145  22062332.5114   22062328.1284
     -1680.8444
  -5153075.85949  -4003168.89247  20717622.7144   20717620.5894
      2265.0784
 04  9  8 21 34 14.9990000  0  5G 3G 8G13G23G27
  -1397787.56146  -1764795.94242  22578879.7534   22578879.3154
      1407.4064
  -7998689.90949  -6217852.22146  21701470.1754   21701469.1944
      3539.3914
  -1963589.80049  -1527752.59748  19977779.6364   19977776.9604
       469.2974
   3222510.17348   2495899.73345  22067134.3474   22067131.7654
     -1684.2504
  -5187042.22649  -4029636.19447  20711159.1674   20711157.2064
      2263.4064
 04  9  8 21 34 29.9990000  0  5G 3G 8G13G23G27
  -1418832.73846  -1781194.74042  22574874.4014   22574873.5264
      1399.0314
  -8051764.12248  -6259208.73246  21691370.3234   21691369.8274
      3537.5164
  -1970576.09049  -1533196.46048  19976450.2374   19976447.6444
       462.5474
   3247804.36648   2515609.47745  22071948.0264   22071944.4214
     -1687.9224
  -5220976.67249  -4056078.61447  20704701.8554   20704699.9684
      2261.4844
 04  9  8 21 34 44.9990000  0  5G 3G 8G13G23G27
  -1439754.52647  -1797497.43843  22570894.5194   22570892.7494
      1390.7034
  -8104811.12149  -6300544.03346  21681275.9874   21681275.3314
      3535.5944
  -1977462.81249  -1538562.74047  19975140.0584   19975137.2374
       455.7504
   3273151.60548   2535360.52045  22076771.8704   22076768.0654
     -1691.5314
  -5254884.50449  -4082500.29647  20698249.4174   20698247.1944
      2259.6564
 04  9  8 21 34 59.9990000  0  5G 3G 8G13G23G27
  -1460552.27546  -1813703.47442  22566937.1674   22566935.1874
      1381.9534
  -8157830.43248  -6341857.78046  21671186.9644   21671185.5544
      3533.2664
  -1984249.48849  -1543851.07048  19973848.0504   19973845.2494
       448.7194
   3298552.19848   2555153.18245  22081605.6124   22081601.0654
     -1695.5474
  -5288765.24049  -4108900.85947  20691802.2064   20691799.8974
      2257.3914
 04  9  8 21 35 14.9990000  0  5G 3G 8G13G23G27
  -1481221.44046  -1829809.31842  22563002.9484   22563001.7844
      1373.4844
  -8210817.28049  -6383146.22446  21661104.9094   21661102.6554
      3531.2504
  -1990931.43149  -1549057.77948  19972576.9334   19972573.9644
       441.8134
   3324010.56148   2574990.83045  22086449.6364   22086445.4374
     -1699.2974
  -5322614.23549  -4135276.70947  20685360.9094   20685358.4484
      2255.4384
 04  9  8 21 35 29.9990000  0  5G 3G 8G13G23G27
  -1501766.44846  -1845818.44643  22559094.4954   22559092.8974
      1365.3444
  -8263776.10849  -6424412.82946  21651026.6364   21651024.6124
      3529.5314
  -1997513.14949  -1554186.40547  19971324.4014   19971321.8744
       435.3444
   3349521.98548   2594869.83745  22091304.1594   22091300.2964
     -1702.6874
  -5356436.11649  -4161631.42447  20678924.8864   20678922.7614
      2253.7664
 04  9  8 21 35 44.9990000  0  5G 3G 8G13G23G27
  -1522184.97946  -1861728.96742  22555207.7844   22555206.8974
      1357.4694
  -8316704.47649  -6465655.71746  21640954.0974   21640953.1514
      3527.8754
  -2003992.40749  -1559235.18448  19970091.1834   19970088.3354
       428.9224
   3375088.42548   2614791.69145  22096169.3314   22096165.8974
     -1705.9374
  -5390228.62449  -4187963.24647  20672494.1754   20672492.2064
      2252.2344
 04  9  8 21 35 59.9990000  0  5G 3G 8G13G23G27
  -1542482.82545  -1877545.49542  22551344.0654   22551343.9764
      1348.7814
  -8369608.35249  -6506879.49346  21630887.2224   21630885.8084
      3525.7814
  -2010374.99149  -1564208.63348  19968877.2304   19968874.2454
       421.9534
   3400703.94248   2634751.79846  22101044.3394   22101040.9444
     -1709.5784
  -5423997.54349  -4214276.68347  20666068.4174   20666066.2694
      2250.1254
 04  9  8 21 36 14.9990000  0  5G 3G 8G13G23G27
  -1562654.64045  -1893263.72942  22547506.2924   22547505.1124
      1340.4064
  -8422482.47549  -6548080.09646  21620825.2614   21620824.1444
      3523.7034
  -2016655.65549  -1569102.66847  19967681.6364   19967678.7304
       415.0164
   3426373.77548   2654754.23646  22105928.6754   22105924.5854
     -1713.5164
  -5457737.40549  -4240567.49247  20659647.7374   20659645.6594
      2248.0164
 04  9  8 21 36 29.9990000  0  5G 3G 8G13G23G27
  -1582698.81946  -1908882.54743  22543692.1754   22543692.0424
      1331.8284
  -8475325.38449  -6589256.37546  21610770.2304   21610768.7374
      3521.5474
  -2022832.98149  -1573916.18548  19966506.0974   19966503.1634
       408.0634
   3452099.12048   2674799.93346  22110824.5504   22110821.2224
     -1717.1094
  -5491447.03449  -4266834.73747  20653232.9874   20653230.9214
      2245.9534
 04  9  8 21 36 44.9990000  0  5G 3G 8G13G23G27
  -1602614.98546  -1924401.67343  22539901.9724   22539900.9174
      1323.6094
  -8528136.50649  -6630407.89946  21600719.5974   21600719.2924
      3519.7344
  -2028906.53349  -1578648.83148  19965350.4484   19965347.0694
       401.5474
   3477880.22448   2694889.07445  22115730.1674   22115726.1124
     -1720.4844
  -5525125.87949  -4293077.99147  20646823.8084   20646821.6714
      2244.3444
 04  9  8 21 36 59.9990000  0  5G 3G 8G13G23G27
  -1622402.58147  -1939820.59544  22536137.6054   22536136.7414
      1314.9844
  -8580915.53349  -6671534.38646  21590676.3704   21590675.8274
      3517.6254
  -2034875.79049  -1583300.19448  19964214.8234   19964211.7964
       394.5474
   3503717.19248   2715021.73945  22120646.3704   22120642.5034
     -1724.1254
  -5558773.75349  -4319297.10248  20640421.1364   20640418.9404
      2242.3444
 04  9  8 21 37 14.9990000  0  5G 3G 8G13G23G27
  -1642063.84146  -1955141.04343  22532396.0424   22532394.5384
      1306.3754
  -8633664.41749  -6712637.39446  21580638.8004   21580637.9334
      3515.3754
  -2040742.87849  -1587871.96248  19963098.6204   19963095.2454
       387.5314
   3529607.79048   2735196.20146  22125573.7454   22125570.4334
     -1727.9694
  -5592392.65849  -4345493.65947  20634024.0734   20634021.6874
      2240.1254
 04  9  8 21 37 29.9990000  0  5G 3G 8G13G23G27
  -1661595.50847  -1970360.52444  22528678.9174   22528678.2534
      1297.3754
  -8686379.96749  -6753714.43846  21570607.6444   21570606.3554
      3512.8754
  -2046504.68249  -1592361.69348  19962001.4954   19961998.4524
       380.2034
   3555555.02048   2755414.80345  22130511.0734   22130508.0034
     -1732.1094
  -5625979.39649  -4371665.14447  20627632.5584   20627630.4644
      2237.6094
 04  9  8 21 37 44.9990000  0  5G 3G 8G13G23G27
  -1681000.22848  -1985481.10844  22524987.1514   22524985.3584
      1290.0164
  -8739065.22149  -6794767.88146  21560581.8704   21560580.2724
      3511.8914
  -2052163.98149  -1596771.53648  19960924.8154   19960922.1124
       374.5784
   3581555.99148   2775675.28146  22135459.6124   22135455.5304
     -1734.5314
  -5659536.75448  -4397813.71847  20621246.3004   20621244.3154
      2236.9224
 04  9  8 21 37 59.9990000  0  5G 3G 8G13G23G27
  -1700277.11747  -2000502.07444  22521317.8084   22521316.3004
      1280.7664
  -8791718.78649  -6835796.61246  21550562.2304   21550560.8314
      3509.0314
  -2057719.82549  -1601100.77648  19959867.5654   19959864.8044
       366.7664
   3607611.36548   2795978.13146  22140417.7924   22140413.8354
     -1738.9374
  -5693063.75649  -4423938.66447  20614866.1984   20614863.9484
      2234.0164
 04  9  8 21 38 14.9990000  0  5G 3G 8G13G23G27
  -1719421.47247  -2015419.71444  22517674.2454   22517674.9404
      1271.8444
  -8844336.41549  -6876797.36346  21540549.7064   21540548.0194
      3506.6094
  -2063167.63449  -1605345.82948  19958830.8704   19958827.8314
       359.6254
   3633725.61848   2816326.85745  22145386.6444   22145382.9834
     -1742.9374
  -5726555.87049  -4450036.40447  20608493.4094   20608491.0814
      2231.6564
 04  9  8 21 38 29.9990000  0  5G 3G 8G13G23G27
  -1738441.74247  -2030240.69744  22514055.4404   22514054.5774
      1263.6094
  -8896926.37449  -6917776.53846  21530541.4644   21530540.8354
      3504.8594
  -2068515.95249  -1609513.35848  19957813.2694   19957810.0624
       352.9534
   3659890.08748   2836714.72245  22150366.1124   22150362.5154
     -1746.2034
  -5760021.58349  -4476113.58947  20602124.9724   20602123.0894
      2229.9064
 04  9  8 21 38 44.9990000  0  5G 3G 8G13G23G27
  -1757334.06847  -2044961.95843  22510460.8704   22510458.5074
      1255.1254
  -8949484.88549  -6958731.21546  21520540.1204   21520538.6904
      3502.7974
  -2073760.80849  -1613600.27348  19956815.3864   19956812.0814
       346.1414
   3686108.38548   2857144.54845  22155355.0734   22155350.2964
     -1749.7344
  -5793457.04449  -4502167.20047  20595762.5114   20595760.2654
      2227.9384
 04  9  8 21 38 59.9990000  0  5G 3G 8G13G23G27
  -1776099.68646  -2059584.48843  22506889.3554   22506888.4014
      1247.0314
  -9002013.30549  -6999662.44746  21510544.6444   21510542.3154
      3501.0474
  -2078903.60049  -1617607.65248  19955836.0424   19955833.0654
       339.7194
   3712378.96148   2877615.11845  22160354.0424   22160351.3974
     -1752.9064
  -5826863.64749  -4528198.30847  20589404.8704   20589402.8824
      2226.3444
 04  9  8 21 39 14.9990000  0  5G 3G 8G13G23G27
  -1794738.67946  -2074108.33443  22503341.4334   22503341.2104
      1238.2344
  -9054511.22449  -7040569.90846  21500554.1754   21500552.5464
      3498.7034
  -2083944.21149  -1621535.40848  19954877.2064   19954873.8974
       332.5314
   3738701.77048   2898126.33845  22165363.3004   22165358.4054
     -1756.7814
  -5860241.28749  -4554206.85647  20583053.6514   20583051.4954
      2224.0634
 04  9  8 21 39 29.9990000  0  5G 3G 8G13G23G27
  -1813246.75547  -2088530.27243  22499820.6594   22499819.9134
      1229.6414
  -9106974.76349  -7081450.57846  21490570.7454   21490569.3084
      3496.5314
  -2088878.64349  -1625380.43348  19953938.1514   19953935.3314
       325.5634
   3765080.56148   2918681.18845  22170382.5194   22170379.4014
     -1760.3284
  -5893585.98849  -4580189.74148  20576708.8084   20576706.4684
      2222.0474
 04  9  8 21 39 44.9990000  0  5G 3G 8G13G23G27
  -1831631.31546  -2102855.89743  22496320.6594   22496321.6634
      1220.8134
  -9159411.26849  -7122310.18746  21480592.3944   21480590.8744
      3494.3914
  -2093714.31149  -1629148.50748  19953018.5114   19953015.1904
       318.6254
   3791507.82248   2939273.81245  22175411.0734   22175407.8784
     -1763.9534
  -5926905.05349  -4606152.65247  20570368.3704   20570365.7844
      2219.9224
 04  9  8 21 39 59.9990000  0  5G 3G 8G13G23G27
  -1849887.32346  -2117081.37843  22492848.9094   22492846.5974
      1212.9064
  -9211815.73449  -7163144.82246  21470620.7694   21470618.5504
      3492.7194
  -2098446.23449  -1632835.72547  19952117.5504   19952114.8744
       312.1254
   3817988.26648   2959907.91345  22180450.8154   22180447.9954
     -1766.9844
  -5960193.55449  -4632091.74448  20564033.6204   20564031.5544
      2218.3594
 04  9  8 21 40 14.9990000  0  5G 3G 8G13G23G27
  -1868013.12747  -2131205.39843  22489398.6904   22489397.5734
      1204.2504
  -9264186.42049  -7203953.15046  21460654.3474   21460652.9874
      3490.4844
  -2103072.70549  -1636440.76847  19951237.1904   19951234.1554
       305.1254
   3844523.54348   2980584.72945  22185499.9094   22185496.7844
     -1770.6414
  -5993449.77349  -4658005.67347  20557704.9804   20557703.1984
      2216.1564
 04  9  8 21 40 29.9990000  0  5G 3G 8G13G23G27
  -1886010.68347  -2145229.48043  22485974.6364   22485972.7184
      1195.7814
  -9316525.32449  -7244736.70746  21450695.1444   21450693.1014
      3488.3594
  -2107595.70649  -1639965.18848  19950376.4404   19950373.4134
       298.2344
   3871111.48448   3001302.56645  22190560.7764   22190556.4764
     -1774.1564
  -6026675.62149  -4683895.94347  20551382.5894   20551380.5624
      2214.1884
 04  9  8 21 40 44.9980000  0  5G 3G 8G13G23G27
  -1903886.77246  -2159158.86944  22482572.7874   22482571.8544
      1187.6254
  -9368836.75149  -7285498.84846  21440740.2644   21440739.4714
      3486.6884
  -2112022.92649  -1643414.97448  19949534.2094   19949531.0104
       291.7974
   3897742.12347   3022053.67745  22195626.6704   22195623.7254
     -1777.1254
  -6059877.04749  -4709767.18647  20545064.3264   20545062.1434
      2212.7034
 04  9  8 21 40 59.9980000  0  5G 3G 8G13G23G27
  -1921640.68247  -2172993.07444  22479194.1934   22479193.6584
      1179.0314
  -9421124.85349  -7326242.80046  21430790.2644   21430788.3934
      3484.4384
  -2116351.98649  -1646788.28148  19948709.9044   19948707.4164
       284.7974
   3924421.69548   3042842.93745  22200704.3034   22200701.2524
     -1780.7974
  -6093055.38149  -4735620.43848  20538750.7404   20538748.9364
      2210.4534
 04  9  8 21 41 14.9980000  0  5G 3G 8G13G23G27
  -1939264.45647  -2186725.94943  22475840.1074   22475838.9594
      1170.5634
  -9473379.43449  -7366960.65646  21420846.0294   21420844.1624
      3482.4694
  -2120575.79049  -1650079.56847  19947906.3034   19947903.3774
       278.0474
   3951155.05848   3063674.07346  22205791.8654   22205788.3734
     -1784.0164
  -6126201.63749  -4761448.68847  20532443.2254   20532441.2834
      2208.6884
 04  9  8 21 41 29.9980000  0  5G 3G 8G13G23G27
  -1956769.89046  -2200366.50543  22472508.3734   22472508.4204
      1163.4224
  -9525612.05049  -7407661.38846  21410906.8894   21410905.5224
      3481.7664
  -2124706.01649  -1653297.93848  19947120.5224   19947118.0684
       272.5164
   3977930.41748   3084537.95946  22210886.9984   22210883.1584
     -1786.0784
  -6159327.58049  -4787261.10847  20526139.5924   20526137.9944
      2208.0164
 04  9  8 21 41 44.9980000  0  6G 3G 8G13G10G23G27
  -1974151.43547  -2213910.53643  22469201.3734   22469200.4284
      1154.6564
  -9577817.08349  -7448340.62546  21400973.0144   21400971.2444
      3479.4534
  -2128737.36049  -1656439.24847  19946353.1784   19946350.4394
       265.4384
   -165478.44314                  23408759.506
      3325.563
   4004752.94348   3105438.56446  22215991.9674   22215988.3574
     -1789.7034
  -6192427.71349  -4813053.42047  20519841.0374   20519838.9084
      2205.8134
 04  9  8 21 41 59.9980000  0  6G 3G 8G13G10G23G27
  -1991411.16646  -2227359.69143  22465917.3574   22465916.2914
      1146.5634
  -9629996.75949  -7489000.09346  21391043.0294   21391041.5104
      3477.7664
  -2132671.92749  -1659505.14948  19945604.6074   19945601.7294
       259.0474
   -215311.67344   -137369.55951  23399276.9824   23399276.6504
      3318.7504
   4031620.23148   3126374.09845  22221103.1004   22221100.1544
     -1792.6094
  -6225504.34149  -4838827.41147  20513546.5764   20513544.5064
      2204.2664
 04  9  8 21 42 14.9980000  0  6G 3G 8G13G10G23G27
  -2008549.14445  -2240713.96242  22462654.0684   22462654.1314
      1138.6094
  -9682151.16049  -7529639.88246  21381117.8814   21381116.9824
      3476.1724
  -2136509.77349  -1662495.68847  19944874.4514   19944871.5844
       252.7664
   -265045.48744   -176123.03541  23389813.1704   23389812.2294
      3312.4064
   4058532.09248   3147344.34045  22226225.2174   22226221.2954
     -1795.4374
  -6258557.22249  -4864582.91447  20507256.7174   20507254.2254
      2202.9224
 04  9  8 21 42 29.9980000  0  6G 3G 8G13G10G23G27
  -2025566.57246  -2253974.30742  22459419.5844   22459416.0144
      1130.0784
  -9734281.44849  -7570260.88246  21371198.2724   21371196.7914
      3474.0314
  -2140252.18049  -1665411.86048  19944162.1784   19944159.5764
       245.8134
   -314680.86644   -214799.90641  23380366.1004   23380366.5294
      3305.2344
   4085487.14048   3168348.26645  22231354.4824   22231351.1044
     -1798.9374
  -6291587.82749  -4890321.04347  20500971.4824   20500969.0534
      2200.7814
 04  9  8 21 42 44.9980000  0  6G 3G 8G13G10G23G27
  -2042459.43546  -2267137.55542  22456202.9514   22456202.5574
      1121.4694
  -9786383.70749  -7610860.03746  21361283.8814   21361282.4514
      3472.0474
  -2143895.19749  -1668250.58548  19943468.6394   19943466.6664
       239.1094
   -364213.63345   -253396.89841  23370941.5374   23370940.6434
      3298.2034
   4112489.09148   3189388.71645  22236492.8654   22236488.9474
     -1802.0784
  -6324592.14248  -4916038.68547  20494691.2724   20494688.6934
      2198.9064
 04  9  8 21 42 59.9980000  0  6G 3G 8G13G10G23G27
  -2059228.86247  -2280204.61643  22453012.5764   22453010.8974
      1114.3134
  -9838458.75049  -7651437.97046  21351374.1234   21351373.3574
      3471.1564
  -2147439.89449  -1671012.69748  19942794.5374   19942791.2404
       233.4224
   -413644.739 4                  23361534.490
      3292.297
   4139536.68648   3210464.72245  22241640.1784   22241636.3304
     -1804.2034
  -6357571.10648  -4941736.56847  20488414.9824   20488412.7134
      2198.1724
 04  9  8 21 43 14.9980000  0  6G 3G 8G13G10G23G27
  -2075879.81847  -2293179.39143  22449843.1074   22449841.4794
      1105.7194
  -9890511.53549  -7691998.56946  21341468.5064   21341467.1664
      3469.0784
  -2150891.15149  -1673702.00547  19942137.3114   19942134.6824
       226.6414
   -462978.775 3                  23352147.178
      3285.156
   4166624.79248   3231572.28946  22246794.8424   22246791.4714
     -1807.5784
  -6390529.79648  -4967418.67047  20482143.5614   20482141.2014
      2196.2344
 04  9  8 21 43 29.9980000  0  6G 3G 8G13G10G23G27
  -2092404.45847  -2306055.78243  22446698.9904   22446697.4004
      1097.7344
  -9942534.30849  -7732535.80146  21331568.8734   21331567.4984
      3467.4694
  -2154241.33348  -1676312.55148  19941500.3734   19941497.2254
       220.3284
   -512207.79913                  23342780.951
      3278.750
   4193761.04547   3252717.37645  22251958.6704   22251955.8654
     -1810.3914
  -6423460.46948  -4993078.94247  20475877.1934   20475874.3694
      2194.8284
 04  9  8 21 43 44.9980000  0  6G 3G 8G13G10G23G27
  -2108813.23248  -2318841.80043  22443576.8264   22443575.0334
      1089.3914
  -9994537.66949  -7773057.88646  21321673.1544   21321671.2564
      3465.6414
  -2157500.87149  -1678852.45147  19940880.0844   19940876.6894
       213.6564
   -561342.023 3                  23333431.006
      3271.828
   4220934.69648   3273891.63045  22257129.2794   22257125.9284
     -1813.4534
  -6456373.50149  -5018725.46147  20469613.6004   20469611.7214
      2192.9694
 04  9  8 21 43 59.9980000  0  6G 3G 8G13G10G23G27
  -2125101.74747  -2331534.17243  22440475.8894   22440476.0294
      1081.5474
 -10046517.02849  -7813561.28146  21311781.6004   21311780.7214
      3464.0784
  -2160665.47649  -1681318.38547  19940277.7254   19940275.1974
       207.4534
   -610376.89014                  23324097.998
      3265.422
   4248149.99048   3295098.32445  22262308.8574   22262304.9674
     -1816.1414
  -6489264.64249  -5044354.91847  20463354.7324   20463352.6704
      2191.5634
 04  9  8 21 44 14.9980000  0  6G 3G 8G13G10G23G27
  -2141270.63648  -2344133.32843  22437400.1864   22437398.8894
      1074.0634
 -10098473.15749  -7854046.56046  21301894.4434   21301893.4434
      3463.0004
  -2163735.79249  -1683710.86347  19939693.3974   19939690.5764
       201.6254
   -659312.816 3                  23314786.857
      3259.313
   4275406.02748   3316336.75745  22267495.9204   22267491.9754
     -1818.3594
  -6522134.48049  -5069967.77847  20457099.9434   20457097.5924
      2190.6094
 04  9  8 21 44 29.9980000  0  6G 3G 8G13G10G23G27
  -2157316.73848  -2356636.75343  22434345.7014   22434345.3114
      1065.0784
 -10150402.56249  -7894511.03346  21292012.7794   21292011.4164
      3460.4224
  -2166708.51249  -1686027.27247  19939127.9594   19939124.7644
       194.3594
                                  23305496.287
      3251.500
   4302705.88648   3337609.33745  22272690.1784   22272686.5374
     -1821.9374
  -6554979.67749  -5095561.43147  20450849.6544   20450847.3304
      2188.2194
 04  9  8 21 44 44.9980000  0  6G 3G 8G13G10G23G27
  -2173248.79948  -2369051.35944  22431314.6074   22431313.0534
      1058.3594
 -10202314.28949  -7934961.70646  21282134.0764   21282132.6234
      3460.2664
  -2169592.54849  -1688274.57848  19938578.9434   19938576.1354
       189.2974
   -756886.07114                  23296220.865
      3246.125
   4330040.55447   3358909.04144  22277891.1234   22277888.3544
     -1823.4374
  -6587809.16649  -5121142.85247  20444601.7094   20444599.5844
      2188.1414
 04  9  8 21 44 59.9980000  0  7G 3G 8G13G10G23G27G28
  -2189063.43248  -2381374.46843  22428305.0374   22428304.2524
      1050.1724
 -10254204.83649  -7975395.88146  21272259.5684   21272258.9324
      3458.4064
  -2172384.46249  -1690450.10648  19938047.5764   19938044.9864
       182.8594
                                  23286960.943
      3239.219
   4357413.29248   3380238.41044  22283100.7404   22283096.6044
     -1826.4064
  -6620619.54649  -5146709.37247  20438358.4754   20438356.5964
      2186.5164
   -186555.73858   -129724.54752  23742240.7404   23742240.2484
      4734.0004
 04  9  8 21 45 14.9980000  0  7G 3G 8G13G10G23G27G28
  -2204766.80847  -2393610.86443  22425316.6704   22425315.3544
      1043.0314
 -10306080.15049  -8015818.20146  21262388.4124   21262387.3344
      3457.7194
  -2175090.47249  -1692558.69548  19937532.6234   19937530.2014
       177.4844
   -854079.303 4                  23277724.576
      3233.531
   4384817.64947   3401592.36044  22288315.6394   22288311.9944
     -1828.1564
  -6653416.83949  -5172265.71847  20432117.7324   20432115.5294
      2185.9694
   -257569.89448   -185060.15742  23728727.1154   23728727.2524
      4734.0944
 04  9  8 21 45 29.9980000  0  7G 3G 8G13G10G23G27G28
  -2220356.36248  -2405758.53944  22422351.7954   22422349.5574
      1035.3134
 -10357937.51249  -8056226.51547  21252520.1004   21252519.1784
      3456.3914
  -2177708.04049  -1694598.36547  19937035.2954   19937031.8264
       171.3914
   -902535.70753   -672869.43051  23268500.6704   23268500.6314
      3227.2504
   4412256.07047   3422972.89444  22293537.1544   22293533.1664
     -1830.5004
  -6686198.52249  -5197809.87347  20425879.3654   20425877.2834
      2184.7344
   -328579.25947   -240392.07342  23715213.8114   23715213.8654
      4733.6884
 04  9  8 21 45 44.9980000  0  7G 3G 8G13G10G23G27G28
  -2235832.76848  -2417818.07143  22419405.7874   22419403.8424
      1027.8444
 -10409777.90349  -8096621.62046  21242654.9514   21242653.8344
      3455.2504
  -2180237.77549  -1696569.60347  19936553.3734   19936550.7604
       165.5004
   -950898.23544   -710554.56641  23259299.3504   23259297.6974
      3221.0634
   4439727.68347   3444379.33344  22298764.7324   22298761.2054
     -1832.6874
  -6718965.25349  -5223342.39547  20419644.3504   20419641.5684
      2183.7664
   -399584.38347   -295720.65242  23701701.4364   23701701.2444
      4733.4064
 04  9  8 21 45 59.9980000  0  7G 3G 8G13G10G23G27G28
  -2251191.74148  -2429786.12243  22416483.3114   22416481.2834
      1020.4384
 -10461596.70149  -8136999.89346  21232794.4674   21232793.5334
      3454.2814
  -2182675.51649  -1698469.15347  19936089.6784   19936086.7054
       159.9064
   -999162.45244   -748163.03541  23250114.9124   23250112.8304
      3214.7504
   4467236.52147   3465814.78444  22303999.9284   22303997.1624
     -1834.8124
  -6751712.72449  -5248859.89647  20413412.5144   20413410.1394
      2182.9844
   -470580.65048   -351042.35943  23688192.9904   23688191.6974
      4733.2194
 04  9  8 21 46 14.9980000  0  7G 3G 8G13G10G23G27G28
  -2266437.82348  -2441666.13144  22413581.2324   22413580.5374
      1011.8754
 -10513398.51349  -8177364.92446  21222937.0844   21222935.3574
      3452.1724
  -2185025.92049  -1700300.65548  19935642.3344   19935639.2564
       152.9694
  -1047332.73043   -785698.28941  23240946.1004   23240946.3614
      3207.3754
   4494777.91246   3487275.55844  22309240.8504   22309236.7754
     -1837.9844
  -6784445.56949  -5274366.01547  20407183.7254   20407181.3814
      2180.9224
   -541572.51747   -406360.60842  23674682.6934   23674682.8974
      4731.8284
 04  9  8 21 46 29.9980000  0  7G 3G 8G13G10G23G27G28
  -2281564.70148  -2453453.31944  22410703.2094   22410702.1194
      1005.1094
 -10565177.21249  -8217711.95246  21213083.8264   21213082.5964
      3451.7194
  -2187282.66949  -1702059.17447  19935212.6864   19935209.8544
       147.9064
  -1095402.71745   -823155.37041  23231801.6784   23231798.9124
      3202.0314
   4522357.86946   3508766.38443  22314488.2954   22314485.1004
     -1839.4844
  -6817157.49748  -5299855.82847  20400958.8894   20400956.6314
      2180.6724
   -612553.51547   -461670.44542  23661174.5374   23661175.3654
      4732.2504
 04  9  8 21 46 44.9980000  0  7G 3G 8G13G10G23G27G28
  -2296579.32048  -2465153.01143  22407845.0764   22407844.7134
       997.0784
 -10616939.61449  -8258046.27846  21203233.7874   21203232.2684
      3450.0634
  -2189452.59649  -1703750.03248  19934799.6004   19934797.2324
       141.6254
  -1143378.88344   -860539.33942  23222670.5764   23222669.9084
      3194.8914
   4549969.34647   3530281.78143  22319742.9824   22319739.1044
     -1842.0624
  -6849855.30049  -5325334.62948  20394736.8504   20394734.3224
      2179.1884
   -683530.39247   -516977.06442  23647668.1314   23647669.0574
      4731.5474
 04  9  8 21 46 59.9980000  0  7G 3G 8G13G10G23G27G28
  -2311475.68548  -2476760.58544  22405011.3974   22405009.8184
       988.7664
 -10668679.83749  -8298363.33346  21193387.8344   21193386.6194
      3448.2974
  -2191529.91049  -1705368.72447  19934404.3344   19934401.6234
       135.0784
  -1191255.27644   -897845.69142  23213559.4674   23213559.3734
      3188.1884
   4577618.09547   3551826.25044  22325005.1394   22325001.4984
     -1844.8284
  -6882533.23449  -5350797.95347  20388517.8344   20388515.5374
      2177.5784
   -754497.09747   -572275.69642  23634162.8574   23634164.9864
      4730.4844
 04  9  8 21 47 14.9980000  0  7G 3G 8G13G10G23G27G28
  -2326252.12747  -2488274.71443  22402199.6004   22402198.0964
       981.7344
 -10720395.83849  -8338661.51146  21183546.6934   21183546.3034
      3447.5784
  -2193512.73849  -1706913.78748  19934027.3344   19934024.7404
       129.7194
  -1239029.79444   -935072.54942  23204468.6004   23204468.1824
      3182.1564
   4605305.62747   3573400.93045  22330273.6314   22330270.1544
     -1846.5624
  -6915189.39348  -5376244.30547  20382304.3424   20382301.5334
      2176.9224
   -825451.67547   -627564.93842  23620662.2324   23620661.8734
      4730.5164
 04  9  8 21 47 29.9980000  0  7G 3G 8G13G10G23G27G28
  -2340909.33247  -2499695.89543  22399408.6704   22399408.7404
       973.1094
 -10772088.29449  -8378941.33246  21173709.7644   21173708.7324
      3445.2194
  -2195401.83349  -1708385.82348  19933667.6394   19933665.3654
       122.6884
  -1286702.83545   -972220.39042  23195399.4364   23195396.5064
      3174.6884
   4633031.11346   3595005.17944  22335549.2254   22335545.7364
     -1849.7664
  -6947824.47349  -5401674.22747  20376093.7324   20376091.2014
      2174.8754
   -896394.40547   -682844.88242  23607161.1234   23607161.5024
      4729.0314
 04  9  8 21 47 44.9980000  0  7G 3G 8G13G10G23G27G28
  -2355445.02648  -2511022.38743  22396645.3424   22396642.1474
       965.0314
 -10823754.88749  -8419201.00646  21163878.0534   21163877.2404
      3443.5634
  -2197194.95949  -1709783.08047  19933326.4824   19933323.3814
       116.3754
  -1334271.93345  -1009287.19042  23186344.9204   23186344.6934
      3167.7974
   4660796.53647   3616640.61144  22340832.7874   22340829.3034
     -1852.3914
  -6980436.13149  -5427085.91547  20369887.9824   20369885.8854
      2173.4064
   -967322.81447   -738113.69942  23593664.0064   23593664.3074
      4728.1254
 04  9  8 21 47 59.9980000  0  7G 3G 8G13G10G23G27G28
  -2369858.43746  -2522253.59742  22393899.4124   22393900.0184
       957.3284
 -10875394.90749  -8459439.97047  21154051.3344   21154050.0184
      3442.3134
  -2198891.32449  -1711104.93648  19933003.8034   19933001.2604
       110.3914
  -1381736.10344  -1046272.29441  23177312.3424   23177311.7014
      3161.2664
   4688602.79746   3638307.75644  22346123.8184   22346120.3464
     -1854.5624
  -7013023.58949  -5452478.73047  20363686.3974   20363684.5144
      2172.2034
  -1038235.99047   -793370.67242  23580169.8974   23580170.4944
      4727.5944
 04  9  8 21 48 14.9980000  0  7G 3G 8G13G10G23G27G28
  -2384147.55547  -2533387.93243  22391182.1544   22391180.0334
       948.6254
 -10927006.26749  -8499656.60246  21144230.2254   21144228.7324
      3439.9384
  -2200489.00249  -1712349.89148  19932699.9364   19932696.8734
       103.3594
  -1429093.20645  -1083173.89142  23168301.9824   23168299.8224
      3153.9384
   4716451.31947   3660007.84944  22351424.1234   22351421.1274
     -1857.8444
  -7045584.88549  -5477851.17247  20357490.5144   20357488.2794
      2170.0314
  -1109131.82147   -848614.15642  23566679.1314   23566678.9474
      4725.9384
 04  9  8 21 48 29.9980000  0  7G 3G 8G13G10G23G27G28
  -2398308.40347  -2544422.35743  22388486.9124   22388486.0104
       939.6254
 -10978584.83349  -8539847.69147  21134415.5064   21134413.6894
      3437.2504
  -2201984.13149  -1713514.94647  19932415.0454   19932412.8464
        96.0944
  -1476339.04745  -1119988.88542  23159310.8264   23159309.8894
      3145.8594
   4744345.96547   3681743.88044  22356731.2724   22356728.8854
     -1861.3124
  -7078116.08449  -5503200.16547  20351300.3344   20351297.7564
      2167.5474
  -1180006.13048   -903840.82242  23553192.1864   23553191.8184
      4724.0634
 04  9  8 21 48 44.9980000  0  7G 3G 8G13G10G23G27G28
  -2412342.31347  -2555357.85943  22385816.1234   22385814.7404
       931.4384
 -11030132.27249  -8580014.50247  21124605.6624   21124604.4474
      3435.4844
  -2203378.07249  -1714601.14748  19932150.3574   19932147.2914
        89.5634
  -1523474.66545  -1156717.91842  23150340.8264   23150340.1274
      3138.7344
   4772285.37447   3703514.79244  22362049.5614   22362044.6934
     -1864.0314
  -7110618.34449  -5528526.59147  20345115.0614   20345112.6974
      2165.9384
  -1250859.95047   -959051.52942  23539708.5764   23539709.9004
      4722.9384
 04  9  8 21 48 59.9980000  0  7G 3G 8G13G10G23G27G28
  -2426247.85648  -2566193.37743  22383170.8654   22383169.9364
       923.0164
 -11081646.69249  -8620155.59947  21114802.4824   21114801.4394
      3433.4694
  -2204669.52349  -1715607.47648  19931903.9594   19931901.5294
        82.9224
  -1570498.63245  -1193359.91742  23141392.5064   23141392.1434
      3131.5314
   4800270.59646   3725321.41243  22367374.2014   22367371.1394
     -1866.9064
  -7143090.38349  -5553829.47747  20338935.8814   20338933.6154
      2163.9694
  -1321691.81647  -1014245.16142  23526230.0294   23526230.2014
      4721.6254
 04  9  8 21 49 14.9980000  0  7G 3G 8G13G10G23G27G28
  -2440022.23647  -2576926.60642  22380549.0064   22380548.2794
       914.4064
 -11133125.21149  -8660268.72347  21105007.1784   21105005.5644
      3431.1564
  -2205855.45849  -1716531.58848  19931678.6474   19931676.1474
        75.9694
  -1617407.59845  -1229912.34042  23132466.4824   23132465.8264
      3123.8594
   4828304.40146   3747165.92243  22372709.0844   22372706.2054
     -1870.1564
  -7175529.16349  -5579106.44247  20332763.0294   20332760.6314
      2161.9064
  -1392498.45248  -1069419.12042  23512757.7324   23512755.3264
      4720.0314
 04  9  8 21 49 29.9980000  0  7G 3G 8G13G10G23G27G28
  -2453665.93148  -2587558.08243  22377953.1934   22377950.8034
       905.1254
 -11184568.22649  -8700354.18647  21095218.0294   21095216.0964
      3428.2664
  -2206936.31349  -1717373.83948  19931472.8034   19931469.5574
        68.4844
  -1664201.85345  -1266375.35841  23123561.6934   23123560.4004
      3115.6254
   4856386.12946   3769047.71543  22378052.6784   22378048.6894
     -1873.7664
  -7207935.15149  -5604357.87547  20326596.0764   20326593.6584
      2159.1884
  -1463280.16448  -1124573.64542  23499287.2794   23499285.7054
      4717.8914
 04  9  8 21 49 44.9980000  0  7G 3G 8G13G10G23G27G28
  -2467178.91848  -2598087.67943  22375380.8344   22375380.4824
       897.2664
 -11235975.91749  -8740412.11246  21085434.8654   21085433.2914
      3426.7664
  -2207912.01849  -1718134.13848  19931286.9434   19931284.3734
        62.2194
  -1710881.23345  -1302748.84241  23114677.6784   23114677.8074
      3108.8914
   4884515.70146   3790966.81943  22383405.3894   22383402.2794
     -1876.1724
  -7240308.37949  -5629583.75848  20320435.7564   20320433.7094
      2157.9224
  -1534036.66448  -1179708.51342  23485822.6544   23485821.6474
      4716.9844
 04  9  8 21 49 59.9980000  0  7G 3G 8G13G10G23G27G28
  -2480563.99648  -2608517.59744  22372834.7094   22372833.4394
       887.7974
 -11287350.84549  -8780444.50946  21075658.8264   21075656.8694
      3423.6414
  -2208785.51449  -1718814.78048  19931121.3654   19931118.3464
        54.5944
  -1757448.31244  -1339034.87742  23105817.1074   23105816.2324
      3100.3594
   4912690.01046   3812920.77843  22388767.4824   22388763.3344
     -1879.9844
  -7272651.46049  -5654786.15447  20314281.0684   20314278.6234
      2155.0004
  -1604770.75848  -1234825.98743  23472362.3504   23472361.8654
      4714.5164
 04  9  8 21 50 14.9980000  0  7G 3G 8G13G10G23G27G28
  -2493822.69748  -2618849.12244  22370311.4204   22370309.7524
       879.3914
 -11338694.54349  -8820452.58946  21065888.2484   21065886.3464
      3421.5634
  -2209558.28849  -1719416.95948  19930974.2254   19930971.5104
        47.8594
  -1803904.46944  -1375234.42241  23096975.8654   23096975.3574
      3093.0944
   4940907.38045   3834908.32642  22394135.9434   22394132.7094
     -1882.9694
  -7304966.10849  -5679966.40147  20308132.1234   20308129.6004
      2153.0944
  -1675483.69748  -1289926.90542  23458905.7724   23458905.2874
      4713.1564
 04  9  8 21 50 29.9980000  0  7G 3G 8G13G10G23G27G28
  -2506949.61348  -2629077.83944  22367814.3264   22367812.2294
       871.2504
 -11390001.53949  -8860432.05047  21056125.1624   21056123.0644
      3419.7664
  -2210224.95749  -1719936.44948  19930846.8894   19930844.7014
        41.4064
  -1850243.83043  -1411343.05541  23088157.9514   23088157.7604
      3086.0004
   4969173.05445   3856933.43242  22399514.7954   22399511.9554
     -1885.5164
  -7337246.75749  -5705120.15147  20301988.7794   20301986.6784
      2151.5164
  -1746169.79248  -1345006.91442  23445454.9904   23445454.0724
      4712.0164
 04  9  8 21 50 44.9980000  0  7G 3G 8G13G10G23G27G28
  -2519945.96248  -2639204.84344  22365340.3344   22365338.9594
       862.8594
 -11441272.95049  -8900383.80047  21046368.2724   21046366.8464
      3417.7034
  -2210786.96349  -1720374.39548  19930740.2174   19930737.3504
        34.8284
  -1896467.83344  -1447361.75041  23079365.8734   23079361.1154
      3078.5474
   4997485.56745   3878995.14343  22404902.4754   22404900.1624
     -1888.2974
  -7369494.60849  -5730248.35748  20295852.5224   20295850.1504
      2149.5474
  -1816830.08148  -1400066.82143  23432008.3344   23432008.3774
      4710.6254
 04  9  8 21 50 59.9980000  0  7G 3G 8G13G10G23G27G28
  -2532811.56448  -2649229.95644  22362892.4674   22362890.7094
       853.2504
 -11492508.58549  -8940307.65546  21036618.0924   21036616.3774
      3414.4064
  -2211243.96349  -1720730.50847  19930653.2644   19930650.4714
        26.8594
                                  23070589.1864   23070587.5644
      3069.8754
   5025845.24047   3901093.53543  22410300.5684   22410297.0964
     -1892.3754
  -7401709.49349  -5755350.85947  20289721.9904   20289719.6474
      2146.4064
  -1887463.93347  -1455106.13142  23418566.9364   23418567.3504
      4707.9534
 04  9  8 21 51 14.9980000  0  7G 3G 8G13G10G23G27G28
  -2545544.33348  -2659151.61144  22360469.5144   22360467.1154
       844.2034
 -11543706.12449  -8980201.82847  21026875.7954   21026874.7914
      3411.7194
  -2211593.94749  -1721003.24148  19930586.5614   19930583.4124
        19.5784
                                  23061834.7094   23061835.9634
      3062.1724
   5054253.67945   3923229.94243  22415705.8974   22415702.5184
     -1895.7504
  -7433889.13549  -5780425.90447  20283598.5224   20283596.1824
      2143.9384
  -1958069.30448  -1510123.26443  23405131.1864   23405131.7644
      4705.9224
 04  9  8 21 51 29.9980000  0  7G 3G 8G13G10G23G27G28
  -2558145.80747  -2668970.96144  22358069.7174   22358070.2524
       835.7034
 -11594867.06449  -9020067.48746  21017140.0224   21017138.7644
      3409.5164
  -2211838.38149  -1721193.71147  19930540.2014   19930537.4284
        12.7664
  -2034437.96144  -1554870.90641  23053106.0224   23053106.0764
      3054.0474
   5082709.24545   3945403.04742  22421120.5844   22421118.1314
     -1898.6414
  -7466035.14349  -5805474.74047  20277481.5844   20277479.2364
      2141.9694
  -2028647.55947  -1565119.26843  23391699.7564   23391701.2214
      4704.3134
 04  9  8 21 51 44.9980000  0  7G 3G 8G13G10G23G27G28
  -2570621.11647  -2678691.95443  22355696.3574   22355696.5614
       827.2034
 -11645996.52149  -9059908.62147  21007411.0294   21007408.9004
      3407.2974
  -2211982.27149  -1721305.85347  19930512.6934   19930509.7254
         5.9534
  -2080198.34445  -1590528.33241  23044398.9824   23044398.6074
      3046.4844
   5111206.76846   3967608.88242  22426543.9284   22426541.1154
     -1901.6094
  -7498152.38149  -5830501.16448  20271369.9434   20271367.5684
      2139.9064
  -2099203.31348  -1620097.71043  23378273.4984   23378274.6004
      4702.6564
 04  9  8 21 51 59.9980000  0  8G 3G 8G13G10G23G27G19G28
  -2582966.75148  -2688311.89044  22353347.6154   22353346.2684
       819.1414
 -11697090.83649  -9099722.37247  20997688.2724   20997686.1044
      3405.5784
  -2212022.29549  -1721337.05548  19930504.9674   19930502.4434
        -0.3914
  -2125842.83044  -1626095.44541  23035714.6004   23035712.0844
      3039.5944
   5139749.53046   3989849.94842  22431975.3264   22431971.2094
     -1903.8444
  -7530237.44049  -5855502.51247  20265264.4514   20265261.6004
      2138.3594
                                  22335397.4044   22335394.3654
      3153.9694
  -2169732.95048  -1675055.82443  23364853.9434   23364852.5064
      4701.4844
 04  9  8 21 52 14.9980000  0  8G 3G 8G13G10G23G27G19G28
  -2595179.16248  -2697828.05544  22351023.7094   22351023.2134
       810.0634
 -11748146.65249  -9139506.11247  20987972.0764   20987970.7604
      3402.7344
  -2211955.09549  -1721284.70147  19930517.9514   19930515.1274
        -7.7814
  -2171367.78345  -1661569.38442  23027051.1154   23027049.7254
      3031.3444
   5168340.76246   4012128.73042  22437416.6234   22437412.7604
     -1907.5474
  -7562286.83349  -5880476.06547  20259165.2644   20259163.2794
      2135.7814
   -192706.58144   -243774.18441  22326406.2404   22326401.2834
      3147.4064
  -2240232.87848  -1729990.77943  23351437.6784   23351436.3224
      4699.3284
 04  9  8 21 52 29.9980000  0  8G 3G 8G13G10G23G27G19G28
  -2607257.79848  -2707239.97244  22348725.2954   22348723.7994
       800.5314
 -11799163.32249  -9179259.34947  20978263.9904   20978262.2564
      3399.6094
  -2211779.92549  -1721148.21847  19930551.2724   19930547.9594
       -15.4844
  -2216772.35244  -1696949.55842  23018411.0764   23018409.7054
      3022.7814
   5196980.78445   4034445.60842  22442864.4364   22442863.6624
     -1911.0784
  -7594299.89449  -5905421.29647  20253073.8344   20253071.1044
      2132.7814
   -239865.07044   -280520.97741  22317433.5374   22317428.6864
      3140.6564
  -2310702.14648  -1784901.84143  23338027.8424   23338027.2054
      4696.6884
 04  9  8 21 52 44.9980000  0  8G 3G 8G13G10G23G27G19G28
  -2619200.74848  -2716546.19944  22346452.3424   22346451.2994
       791.8284
 -11850138.71349  -9218980.41547  20968563.4124   20968562.3114
      3397.1564
  -2211494.94449  -1720926.16147  19930606.0064   19930602.5924
       -22.5474
  -2262054.49145  -1732234.32842  23009793.9674   23009793.6624
      3014.8594
   5225671.61847   4056802.00442  22448326.2954   22448322.6744
     -1914.2344
  -7626274.64849  -5930336.69747  20246989.0844   20246986.4324
      2130.4844
                                  22308485.4754   22308472.6074
      3134.7034
  -2381138.65848  -1839787.38743  23324623.4674   23324623.0334
      4694.8594
 04  9  8 21 52 59.9980000  0  7G 3G 8G13G10G23G27G28
  -2631007.59548  -2725746.33244  22344205.7014   22344204.8344
       782.9064
 -11901072.25649  -9258668.88447  20958871.5294   20958870.1744
      3394.4384
  -2211099.81949  -1720618.29248  19930680.7644   19930677.8114
       -29.6564
  -2307213.46844  -1767423.21542  23001201.2874   23001199.1354
      3006.8284
   5254413.20247   4079197.98942  22453795.5294   22453792.0184
     -1917.5474
  -7658210.71349  -5955221.93948  20240911.7644   20240909.4164
      2128.0634
  -2451541.81347  -1894646.88143  23311226.1074   23311225.7014
      4692.7814
 04  9  8 21 53 14.9980000  0  7G 3G 8G13G10G23G27G28
  -2642679.89148  -2734841.63344  22341984.6474   22341983.7324
       773.4534
 -11951965.48049  -9298325.93947  20949186.3574   20949185.0454
      3391.2974
  -2210595.83249  -1720225.59548  19930776.3734   19930773.9674
       -37.4224
  -2352250.58745  -1802517.10242  22992631.6624   22992629.0924
      2998.0944
   5283204.07447   4101632.37642  22459273.2564   22459271.0294
     -1921.3284
  -7690109.53249  -5980078.16247  20234841.8344   20234839.3144
      2125.0944
  -2521912.84948  -1949481.40743  23297835.0224   23297834.4084
      4689.9844
 04  9  8 21 53 29.9980000  0  7G 3G 8G13G10G23G27G28
  -2654215.81547  -2743830.66343  22339788.6864   22339788.2874
       764.8444
 -12002816.37149  -9337950.00047  20939509.5684   20939508.7444
      3388.9844
  -2209981.18149  -1719746.66148  19930893.4514   19930891.0144
       -44.3444
  -2397163.78145  -1837514.30842  22984083.3654   22984082.3734
      2990.4534
   5312045.88147   4124106.46342  22464763.0454   22464758.8774
     -1924.1874
  -7721968.94649  -6004903.67647  20228778.7954   20228776.6394
      2122.9224
  -2592249.64848  -2004289.27143  23284451.2794   23284449.8774
      4688.3134
 04  9  8 21 53 44.9980000  0  7G 3G 8G13G10G23G27G28
  -2665617.52448  -2752715.11644  22337619.9514   22337618.9044
       755.6564
 -12053626.90349  -9377542.61447  20929841.2794   20929839.9594
      3385.9534
  -2209258.24449  -1719183.34748  19931030.9514   19931027.9514
       -51.8124
  -2441954.86845  -1872416.53442  22975559.9754   22975559.6744
      2981.8284
   5340936.38747   4146618.51642  22470259.8734   22470257.2834
     -1927.6724
  -7753791.27649  -6029700.29947  20222723.3424   20222720.9864
      2120.2034
  -2662554.19247  -2059071.97043  23271071.8654   23271071.3074
      4685.8284
 04  9  8 21 53 59.9980000  0  8G 3G 8G13G10G23G27G19G28
  -2676879.04748  -2761490.34444  22335476.8894   22335475.9284
       745.7034
 -12104391.26149  -9417099.24647  20920181.0684   20920179.3854
      3382.3754
  -2208420.92249  -1718530.91247  19931190.4204   19931187.7134
       -59.9844
  -2486617.84745  -1907218.77542  22967060.6864   22967060.6314
      2972.6254
   5369881.31146   4169172.95342  22475769.1474   22475766.0294
     -1931.8444
  -7785570.43649  -6054463.28747  20216675.7324   20216673.2874
      2116.7814
    -34114.79713                  22263979.904
      3100.609
  -2732820.35848  -2113824.75343  23257700.7644   23257700.0724
      4682.7504
 04  9  8 21 54 14.9980000  0  8G 3G 8G13G10G23G27G19G28
  -2687997.86048  -2770154.35044  22333360.4674   22333360.2684
       736.5314
 -12155106.75549  -9456617.80047  20910530.7094   20910528.9864
      3379.4224
  -2207466.77849  -1717787.41647  19931372.1544   19931369.5334
       -67.4064
  -2531149.70846  -1941918.90642  22958587.9284   22958585.5454
      2964.4534
   5398883.05245   4191771.65342  22481287.9284   22481284.3464
     -1935.2974
  -7817303.83149  -6079190.59748  20210637.3574   20210634.9794
      2114.0634
    -80574.79713                  22255144.717
      3093.859
  -2803045.31948  -2168545.45543  23244337.3504   23244337.0064
      4680.3754
 04  9  8 21 54 29.9980000  0  8G 3G 8G13G10G23G27G19G28
  -2698974.03648  -2778707.22844  22331272.3114   22331271.3264
       727.0004
 -12205773.16149  -9496098.11246  20900888.4364   20900886.9794
      3376.0784
  -2206395.76749  -1716952.89447  19931575.8974   19931573.0414
       -75.3754
  -2575550.34645  -1976516.82342  22950137.8734   22950136.7324
      2955.6564
   5427941.35744   4214414.45941  22486816.5144   22486813.4754
     -1938.8914
  -7848991.37849  -6103882.19248  20204607.2484   20204604.6074
      2110.9384
                                  22246320.693
      3086.672
  -2873228.76347  -2223233.78843  23230981.1934   23230982.1394
      4677.4694
 04  9  8 21 54 44.9980000  0  7G 3G 8G13G10G23G27G28
  -2709811.01748  -2787151.58444  22329210.2324   22329209.1154
       717.4064
 -12256394.15049  -9535543.03447  20891255.7174   20891254.2294
      3372.8444
  -2205211.47049  -1716030.08547  19931801.2874   19931798.5804
       -83.1564
  -2619823.08745  -2011015.02842  22941712.8654   22941711.6114
      2946.8284
   5457052.76343   4237098.62941  22492359.0224   22492353.8544
     -1943.1254
  -7880636.73949  -6128540.92847  20198585.6784   20198582.8384
      2107.9224
  -2943374.08147  -2277892.41443  23217633.6234   23217632.9514
      4674.6564
 04  9  8 21 54 59.9980000  0  6G 3G 8G13G10G27G28
  -2720509.97548  -2795488.46844  22327173.4514   22327172.8384
       708.5474
 -12306970.73549  -9574953.33447  20881631.3034   20881629.8544
      3370.1094
  -2203914.93949  -1715019.80348  19932047.8504   19932045.4944
       -90.4064
  -2663968.83745  -2045414.31542  22933311.6004   22933310.3694
      2938.7344
  -7912240.71949  -6153167.38248  20192571.3504   20192568.9714
      2105.4064
  -3013482.06647  -2332521.97643  23204291.4514   23204291.6434
      4672.4224
 04  9  8 21 55 14.9980000  0  6G 3G 8G13G10G27G28
  -2731064.17648  -2803712.48644  22325166.0294   22325164.8504
       698.6254
 -12357495.88649  -9614323.58147  20872016.3654   20872015.1234
      3366.4384
  -2202499.54249  -1713916.91747  19932317.3654   19932314.3774
       -98.4844
  -2707980.70246  -2079709.28442  22924936.8574   22924935.2834
      2929.5004
  -7943796.64149  -6177756.42147  20186566.0294   20186564.1274
      2101.9384
  -3083545.82247  -2387117.06543  23190959.2254   23190959.5254
      4669.2814
 04  9  8 21 55 29.9980000  0  7G 3G 8G13G10G23G27G28
  -2741472.49648  -2811822.89744  22323184.9594   22323183.8574
       688.5474
 -12407968.45649  -9653652.84047  20862412.5844   20862410.5884
      3362.5474
  -2200964.09149  -1712720.48048  19932609.7174   19932607.1044
      -106.8594
  -2751857.36046  -2113898.88742  22916588.4204   22916585.9554
      2920.0784
     32396.11114                  22509040.264
     -1954.609
  -7975303.26449  -6202307.03147  20180570.9754   20180568.6704
      2098.3594
  -3153563.95047  -2441676.55843  23177636.0454   23177635.3694
      4665.7974
 04  9  8 21 55 44.9980000  0  8G 3G 8G13G10G23G27G19G28
  -2751736.56447  -2819820.83443  22321231.7324   22321230.3894
       679.4534
 -12458389.94149  -9692942.31447  20852817.2564   20852815.7874
      3359.7194
  -2199310.28949  -1711431.81847  19932924.4904   19932922.0494
      -114.1724
  -2795600.08146  -2147984.11642  22908263.1004   22908262.6074
      2911.7814
     61733.85144   4289993.03951  22514621.4364   22514620.1864
     -1957.6094
  -8006762.14649  -6226820.45147  20174584.2564   20174582.3614
      2095.6414
    -23196.15515                  22202516.662
      3050.516
  -3223537.89348  -2496201.63443  23164319.2564   23164319.6544
      4663.3914
 04  9  8 21 55 59.9980000  0  8G 3G 8G13G10G23G27G19G28
  -2761852.91848  -2827703.69844  22319306.4674   22319305.9004
       669.5634
 -12508756.99649  -9732189.35247  20843232.7794   20843231.2684
      3356.0314
  -2197534.67349  -1710048.23247  19933261.9514   19933259.3114
      -122.4694
  -2839205.22746  -2181962.13142  22899966.6314   22899964.8144
      2902.4384
     91132.37344   4312900.91841  22520216.0294   22520213.6154
     -1961.9844
  -8038169.83649  -6251293.97547  20168607.8034   20168605.4124
      2092.2194
    -68898.01845   -477018.45852  22193820.9984   22193817.6584
      3042.9224
  -3293463.94048  -2550689.42843  23151013.4904   23151012.7794
      4660.1094
 04  9  8 21 56 14.9980000  0  8G 3G 8G13G10G23G27G19G28
  -2771823.47748  -2835472.98843  22317409.7094   22317408.3344
       660.2344
 -12559071.40149  -9771395.36947  20833658.4204   20833656.5844
      3352.8444
  -2195639.12549  -1708571.18547  19933622.9824   19933620.7014
      -130.0314
  -2882674.50846  -2215834.29642  22891694.1704   22891692.5724
      2893.7664
    120589.43444   4335854.46141  22525821.2404   22525819.2524
     -1965.4224
  -8069528.12149  -6275728.99348  20162640.3424   20162638.1234
      2089.2344
   -114487.72944   -512542.73041  22185143.7324   22185142.3034
      3035.9694
  -3363343.79848  -2605141.18643  23137715.5614   23137715.3184
      4657.4384
 04  9  8 21 56 29.9980000  0  8G 3G 8G13G10G23G27G19G28
  -2781651.96148  -2843131.55044  22315539.3034   22315538.0804
       649.9064
 -12609336.56549  -9810563.02947  20824092.9284   20824091.4084
      3348.9064
  -2193627.37949  -1707003.61647  19934005.8504   19934003.1934
      -138.5784
  -2926011.44445  -2249603.37442  22883446.1864   22883445.9004
      2884.1564
    150101.28245   4358850.59441  22531436.8814   22531434.6894
     -1969.8284
  -8100840.58149  -6300128.32447  20156682.3264   20156679.7054
      2085.3914
   -159968.55944   -547982.24241  22176489.0614   22176487.0454
      3027.9064
  -3433180.94848  -2659559.70543  23124425.2174   23124425.8894
      4653.8284
 04  9  8 21 56 44.9980000  0  8G 3G 8G13G10G23G27G19G28
  -2791336.32848  -2850677.83744  22313696.5374   22313695.5964
       640.5474
 -12659550.37149  -9849690.65447  20814538.1544   20814536.2294
      3345.6564
  -2191497.41749  -1705343.92447  19934411.2564   19934408.3424
      -146.2194
  -2969213.67146  -2283267.41042  22875226.2724   22875224.8144
      2875.3754
    179669.86044   4381891.01241  22537064.9044   22537062.0534
     -1973.3444
  -8132105.10749  -6324490.28147  20150732.5684   20150730.7874
      2082.4844
   -205338.15945   -583335.35541  22167857.4364   22167852.8384
      3020.8134
  -3502972.94848  -2713943.07343  23111145.0454   23111144.9554
      4651.0944
 04  9  8 21 56 59.9980000  0  8G 3G 8G13G10G23G27G19G28
  -2800873.78048  -2858109.60544  22311880.5454   22311880.2014
       631.4064
 -12709709.96149  -9888776.03847  20804992.4284   20804990.5924
      3342.6884
  -2189246.42549  -1703589.92247  19934839.4904   19934836.8264
      -153.6724
  -3012278.32046  -2316824.25442  22867030.7404   22867030.0534
      2866.8594
    209297.70444   4404977.59841  22542702.8894   22542699.5184
     -1976.5474
  -8163318.83249  -6348812.66547  20144792.4044   20144790.3464
      2079.7034
   -250593.43846   -618599.19242  22159245.2954   22159241.5844
      3013.6724
  -3572716.90748  -2768288.98243  23097873.2794   23097872.9084
      4648.5164
 04  9  8 21 57 14.9980000  0  8G 3G 8G13G10G23G27G19G28
  -2810266.06948  -2865428.30644  22310093.9824   22310093.3114
       621.0944
 -12759817.07949  -9927820.54447  20795457.7254   20795455.8544
      3338.4384
  -2186876.15849  -1701742.96447  19935290.3034   19935288.0684
      -162.2974
  -3055206.76245  -2350274.95442  22858860.7794   22858860.7484
      2857.0634
    238983.06744   4428109.04741  22548350.8114   22548349.0724
     -1981.3594
  -8194483.53549  -6373096.85047  20138862.3264   20138860.5614
      2075.7194
   -295735.76144   -653774.94541  22150654.4674   22150650.4554
      3005.4064
  -3642414.27948  -2822598.56643  23084610.2324   23084609.5254
      4644.7194
 04  9  8 21 57 29.9980000  0  8G 3G 8G13G10G23G27G19G28
  -2819514.88448  -2872635.19144  22308334.4594   22308332.5574
       612.1884
 -12809873.21449  -9966825.29347  20785932.3974   20785930.8734
      3335.7504
  -2184388.25849  -1699804.35648  19935763.4514   19935761.5224
      -169.4374
  -3098000.50646  -2383620.72642  22850719.5614   22850717.4004
      2848.7504
    268723.91245   4451283.71841  22554010.4124   22554007.6274
     -1984.1724
  -8225600.61649  -6397343.91747  20132940.7644   20132938.8934
      2073.3134
   -340766.49244   -688863.81841  22142084.3344   22142081.2754
      2998.7504
  -3712066.48047  -2876872.93543  23071355.3814   23071354.7874
      4642.3284
 04  9  8 21 57 44.9980000  0  8G 3G 8G13G10G23G27G19G28
  -2828619.08148  -2879729.36344  22306601.9044   22306600.9904
       602.0474
 -12859877.06849 -10005789.34447  20776417.3814   20776415.7914
      3331.7504
  -2181781.52349  -1697773.15648  19936260.0064   19936257.1354
      -177.8444
  -3140658.04846  -2416860.37042  22842601.5614   22842600.4754
      2839.1564
    298521.47844   4474502.50041  22559679.2484   22559678.2094
     -1988.5784
  -8256668.90249  -6421552.98147  20127028.6004   20127026.6784
      2069.5164
   -385684.00346   -723864.49042  22133538.1394   22133533.9794
      2990.6884
  -3781672.12748  -2931111.05543  23058110.6234   23058108.9594
      4638.7974
 04  9  8 21 57 59.9980000  0  8G 3G 8G13G10G23G27G19G28
  -2837575.03248  -2886708.01344  22304897.6004   22304896.6864
       592.2344
 -12909824.87949 -10044709.69047  20766911.6624   20766910.5804
      3328.0944
  -2179052.14749  -1695646.37348  19936779.3264   19936776.7324
      -185.9374
  -3183175.50846  -2449990.82242  22834511.0684   22834508.9944
      2829.8914
    328379.26744   4497768.14241  22565360.9434   22565359.9554
     -1992.4534
  -8287684.59649  -6445721.05047  20121126.6394   20121124.6234
      2066.0784
   -430484.42846   -758773.80042  22125012.6624   22125008.4714
      2982.9064
  -3851227.25448  -2985309.80143  23044874.6624   23044873.8264
      4635.4384
 04  9  8 21 58 14.9980000  0  8G 3G 8G13G10G23G27G19G28
  -2846388.07247  -2893575.31043  22303219.3654   22303218.9044
       583.2504
 -12959721.80849 -10083590.41747  20757416.8344   20757415.0224
      3325.2504
  -2176205.73549  -1693428.40947  19937320.8574   19937318.1474
      -193.2034
  -3225558.07646  -2483016.22542  22826445.5614   22826444.1544
      2821.5474
    358291.71844   4521076.52641  22571054.5684   22571052.4824
     -1995.5164
  -8318653.02949  -6469852.29848  20115233.4514   20115231.5374
      2063.4694
   -475172.46846   -793595.74042  22116508.8734   22116504.9434
      2975.8914
  -3920736.87348  -3039473.10443  23031646.8264   23031647.2834
      4632.9224
 04  9  8 21 58 29.9980000  0  8G 3G 8G13G10G23G27G19G28
  -2855055.32847  -2900328.97543  22301570.3424   22301570.4044
       573.2664
 -13009564.72049 -10122429.03547  20747932.3504   20747930.6154
      3321.4224
  -2173239.30849  -1691116.91847  19937885.6704   19937883.1934
      -201.3754
  -3267802.59546  -2515934.06442  22818406.3814   22818404.5924
      2812.1094
    388261.64945   4544429.57241  22576758.1154   22576755.9284
     -1999.5004
  -8349571.21449  -6493944.38148  20109350.3034   20109348.3894
      2059.8754
   -519745.41546   -828327.92542  22108026.6784   22108023.5024
      2968.0474
  -3990197.91048  -3093598.55243  23018429.3184   23018429.2214
      4629.4534
 04  9  8 21 58 44.9980000  0  8G 3G 8G13G10G23G27G19G28
  -2863580.28648  -2906971.81544  22299949.1624   22299947.4004
       564.0164
 -13059357.47249 -10161228.57147  20738456.8034   20738454.7214
      3318.3754
  -2170156.59249  -1688714.81547  19938472.5534   19938469.7484
      -208.8914
  -3309912.54046  -2548747.01642  22810393.9364   22810391.2834
      2803.3594
    418285.33846   4567824.49041  22582471.7094   22582469.1824
     -2002.8754
  -8380442.49049  -6517999.92748  20103475.5534   20103473.5144
      2057.0784
   -564206.18346   -862972.69542  22099565.8114   22099562.3464
      2960.8284
  -4059613.73848  -3147688.76643  23005219.5764   23005219.2134
      4626.7344
 04  9  8 21 58 59.9980000  0  8G 3G 8G13G10G23G27G19G28
  -2871961.47648  -2913502.63244  22298353.3734   22298353.0334
       554.1564
 -13109098.09549 -10199987.50147  20728991.7564   20728989.6194
      3314.5004
  -2166955.95549  -1686220.82347  19939081.2724   19939078.5024
      -217.0474
  -3351886.11147  -2581453.67743  22802406.2014   22802404.5964
      2793.8914
    448363.98745   4591262.43041  22588194.4044   22588191.9324
     -2006.9064
  -8411265.43049  -6542017.79048  20097609.6004   20097607.3344
      2053.4844
   -608552.85046   -897528.54142  22091127.0294   22091123.1584
      2952.9534
  -4128982.51148  -3201742.31843  22992018.4364   22992018.1974
      4623.2664
 04  9  8 21 59 14.9980000  0  8G 3G 8G13G10G23G27G19G28
  -2880194.43248  -2919917.93744  22296786.6934   22296786.6474
       543.9064
 -13158782.23449 -10238702.40647  20719536.6074   20719534.7874
      3310.3914
  -2163632.98349  -1683631.51747  19939713.5294   19939710.9364
      -225.6564
  -3393718.60446  -2614050.39943  22794445.2564   22794444.5334
      2784.2504
    478502.02643   4614746.72341  22593929.3974   22593928.3654
     -2011.1254
  -8442035.34749  -6565994.36247  20091754.7954   20091752.7054
      2049.5164
   -652780.75146   -931991.80042  22082709.5294   22082706.8114
      2944.5784
  -4198299.56148  -3255755.56743  22978828.2954   22978827.2134
      4619.3914
 04  9  8 21 59 29.9980000  0  8G 3G 8G13G10G23G27G19G28
  -2888285.42248  -2926222.64044  22295248.1314   22295246.4124
       534.4224
 -13208415.91349 -10277377.99247  20710091.8654   20710090.3264
      3306.9384
  -2160193.74249  -1680951.59747  19940367.7794   19940365.6114
      -233.4374
  -3435415.95947  -2646541.85643  22786511.3654   22786510.0184
      2775.0944
    508693.099 4                  22599677.482
     -2014.797
  -8472758.54149  -6589934.50947  20085908.1784   20085905.8894
      2046.3754
   -696895.79547   -966367.12142  22074316.4594   22074312.4794
      2936.9694
  -4267570.89447  -3309733.20343  22965645.6864   22965645.5184
      4616.2974
 04  9  8 21 59 44.9980000  0  8G 3G 8G13G10G23G27G19G28
  -2896231.97847  -2932414.77844  22293734.4284   22293734.1744
       525.2974
 -13257996.48749 -10316012.18547  20700656.9434   20700655.9904
      3304.0004
  -2156635.94949  -1678179.30647  19941044.8574   19941042.3424
      -240.7344
  -3476975.44746  -2678925.89143  22778601.9984   22778600.5924
      2766.5004
    538939.495 4                  22605433.248
     -2017.844
  -8503432.24049  -6613836.09248  20080071.4124   20080068.9794
      2043.6414
   -740895.14644  -1000652.14442  22065944.3034   22065940.1004
      2929.7344
  -4336793.66848  -3363672.97143  22952472.5144   22952472.2444
      4613.5474
 04  9  8 21 59 59.9980000  0  7G 3G 8G13G10G27G19G28
  -2904034.16947  -2938494.37944  22292249.9824   22292249.7644
       515.4534
 -13307523.77449 -10354604.86747  20691232.3734   20691230.7324
      3300.1884
  -2152959.49449  -1675314.54347  19941744.4754   19941742.0374
      -248.8914
  -3518396.85246  -2711202.25843  22770719.0064   22770718.2834
      2756.9384
  -8534056.40849  -6637699.06648  20074243.3574   20074241.1004
      2040.1564
   -784778.61443  -1034847.09441  22057594.3184   22057589.0644
      2921.8444
  -4405967.73548  -3417574.80143  22939310.9514   22939309.1704
      4610.1094
 04  9  8 22  0 14.9970000  0  7G 3G 8G13G10G27G19G28
  -2911696.38848  -2944464.98244  22290792.2674   22290791.0874
       506.5004
 -13356999.34149 -10393157.26047  20681817.6104   20681815.5364
      3297.2034
  -2149169.40549  -1672361.24848  19942465.6814   19942463.1654
      -256.2194
  -3559682.15246  -2743372.63843  22762864.0174   22762861.5794
      2748.2664
  -8564633.86749  -6661525.66947  20068425.0634   20068423.0244
      2037.3914
   -828547.48745  -1068952.70741  22049265.4384   22049259.8254
      2914.7344
  -4475093.07748  -3471438.66443  22926156.2824   22926155.1344
      4607.4844
 04  9  8 22  0 29.9970000  0  7G 3G 8G13G10G27G19G28
  -2919218.41248  -2950326.25644  22289361.3844   22289360.6694
       496.6414
 -13406428.52949 -10431673.50747  20672411.5954   20672409.9584
      3293.5004
  -2145264.10849  -1669318.18047  19943209.4234   19943206.9814
      -264.2974
  -3600835.37847  -2775440.07343  22755032.7594   22755030.7634
      2738.9534
  -8595167.36149  -6685317.99947  20062614.8214   20062612.4424
      2033.9384
   -872206.16245  -1102972.30541  22040957.0484   22040951.2044
      2906.6724
  -4544177.47448  -3525270.64943  22913009.4854   22913009.3604
      4604.0474
 04  9  8 22  0 44.9970000  0  8G 3G 8G13G10G23G27G19G28
  -2926600.53848  -2956078.58144  22287956.6264   22287955.5634
       487.1884
 -13455808.55549 -10470151.43447  20663014.1034   20663012.6924
      3290.1414
  -2141244.86949  -1666186.32348  19943973.9854   19943971.5134
      -271.9534
  -3641854.41146  -2807402.91443  22747226.9854   22747226.5174
      2730.0314
                                  22628566.204
     -2032.266
  -8625655.46749  -6709074.96648  20056812.9234   20056810.9194
      2030.7664
   -915752.34243  -1136904.30141  22032667.8994   22032664.5954
      2899.3134
  -4613216.96148  -3579067.59543  22899872.2204   22899871.5404
      4600.9694
 04  9  8 22  0 59.9970000  0  6G 3G 8G13G10G27G28
  -2933843.93948  -2961722.76944  22286577.3844   22286576.7594
       478.0784
 -13505140.69549 -10508592.05347  20653627.0244   20653625.4934
      3287.0634
  -2137112.67249  -1662966.44047  19944760.3064   19944757.0094
      -279.3754
  -3682740.13246  -2839261.91343  22739446.0954   22739445.3804
      2721.2034
  -8656099.34349  -6732797.46347  20051020.0874   20051017.4854
      2027.9224
  -4682212.28948  -3632830.14443  22886742.2984   22886742.2674
      4598.0164
 04  9  8 22  1 14.9970000  0  6G 3G 8G13G10G27G28
  -2940942.41948  -2967254.09044  22285227.5954   22285226.4744
       468.4534
 -13554418.59449 -10546990.39747  20644249.9464   20644248.2394
      3283.4224
  -2132861.27449  -1659653.67147  19945569.2044   19945567.2434
      -287.3284
  -3723486.25046  -2871012.10542  22731692.7674   22731690.8064
      2711.7664
  -8686492.74949  -6756480.62847  20045235.9314   20045233.6424
      2024.5634
  -4751157.04648  -3686553.30843  22873623.5484   22873622.7824
      4594.6724
 04  9  8 22  1 29.9970000  0  7G 3G 8G13G10G27G19G28
  -2947900.33648  -2972675.82944  22283902.9854   22283901.7284
       459.5164
 -13603646.22149 -10585349.58047  20634882.6734   20634880.5484
      3280.5164
  -2128494.88149  -1656251.30147  19946399.9934   19946397.8684
      -294.5314
  -3764096.63047  -2902656.55743  22723964.9934   22723963.1034
      2703.2664
  -8716839.69749  -6780127.59647  20039460.8454   20039459.1344
      2022.0004
                                  22007945.290
      2876.531
  -4820055.28248  -3740240.21843  22860511.3764   22860511.3684
      4592.0004
 04  9  8 22  1 44.9970000  0  7G 3G 8G13G10G27G19G28
  -2954720.81948  -2977990.49644  22282606.2744   22282605.1264
       449.5474
 -13652826.59949 -10623671.95247  20625523.5484   20625521.3604
      3276.5634
  -2124016.69849  -1652761.82547  19947252.3064   19947249.7044
      -302.8124
  -3804574.17046  -2934197.51843  22716262.1184   22716261.2284
      2693.4224
  -8747143.25349  -6803740.76547  20033694.4544   20033692.1424
      2018.1884
    -51801.360 6                  21999741.024
      2868.328
  -4888909.85048  -3793893.07443  22847408.7124   22847407.8254
      4588.2194
 04  9  8 22  1 59.9970000  0  7G 3G 8G13G10G27G19G28
  -2961398.14648  -2983193.59743  22281334.8534   22281332.7244
       440.3134
 -13701953.98049 -10661953.01347  20616174.5404   20616172.6494
      3273.3134
  -2119421.06549  -1649180.83248  19948127.0634   19948124.1854
      -310.4374
  -3844913.05146  -2965630.43143  22708586.0094   22708585.1774
      2684.5004
  -8777397.58049  -6827315.56747  20027937.1654   20027934.7354
      2015.1884
    -94773.59146  -1232875.21152  21991564.7514   21991558.8764
      2860.7814
  -4957714.73848  -3847507.22543  22834316.2904   22834314.5094
      4585.1724
 04  9  8 22  2 14.9970000  0  8G 3G 8G13G10G23G27G19G28
  -2967928.99448  -2988282.63344  22280092.1424   22280090.9974
       430.4064
 -13751024.84749 -10700190.03947  20606837.3064   20606834.9934
      3269.4844
  -2114704.74649  -1645505.80047  19949024.2354   19949021.5094
      -318.4534
  -3885109.90447  -2996952.66243  22700936.2674   22700935.8804
      2674.9534
     44694.95713                  22663526.509
     -2053.094
  -8807599.33049  -6850849.39647  20022189.8604   20022188.0874
      2011.6564
   -137624.65145  -1266265.63642  21983407.8844   21983404.4584
      2852.5944
  -5026466.46748  -3901079.95943  22821233.3994   22821231.6064
      4581.6094
 04  9  8 22  2 29.9970000  0  8G 3G 8G13G10G23G27G19G28
  -2974316.40948  -2993259.81944  22278877.3994   22278875.7634
       421.5784
 -13800042.15349 -10738385.34347  20597509.0014   20597508.0604
      3266.5784
  -2109870.63349  -1641738.96147  19949943.9544   19949941.4934
      -325.6414
  -3925167.27146  -3028166.16943  22693313.7204   22693312.6964
      2666.4224
     75512.719 4                  22669394.376
     -2055.484
  -8837751.41649  -6874344.52047  20016452.8294   20016450.2514
      2009.0634
   -180357.15647  -1299563.70743  21975277.4384   21975272.8174
      2845.4534
  -5095167.69548  -3954613.37843  22808159.8604   22808157.9424
      4578.8914
 04  9  8 22  2 44.9970000  0  8G 3G 8G13G10G23G27G19G28
  -2980562.86748  -2998127.17743  22277687.3924   22277686.6854
       411.5944
 -13849008.14549 -10776540.64247  20588191.2044   20588189.8844
      3262.5474
  -2104921.21949  -1637882.29347  19950886.3374   19950883.5014
      -333.9534
  -3965087.39147  -3059272.74243  22685717.8844   22685716.0754
      2656.6414
    106380.96313                  22675271.892
     -2059.437
  -8867856.16749  -6897802.77447  20010723.9314   20010721.5834
      2005.2664
   -222973.14647  -1332770.97543  21967167.6264   21967163.7124
      2837.0944
  -5163820.68148  -4008109.17443  22795095.9314   22795094.5994
      4575.0944
 04  9  8 22  2 59.9970000  0  7G 3G 8G13G10G27G19G28
  -2986664.38748  -3002881.60544  22276527.3374   22276525.7204
       401.7344
 -13897918.51649 -10814652.60947  20578884.0714   20578881.9584
      3258.6254
  -2099852.46149  -1633932.63547  19951850.9934   19951848.3064
      -342.1094
  -4004866.11846  -3090269.16043  22678148.0954   22678146.2084
      2647.0314
  -8897909.31049  -6921220.80047  20005004.8844   20005003.0094
      2001.7034
   -265468.17347  -1365884.01843  21959080.1424   21959077.3294
      2828.7974
  -5232421.08248  -4061563.98543  22782041.0484   22782040.7784
      4571.4384
 04  9  8 22  3 14.9970000  0  7G 3G 8G13G10G27G19G28
  -2992613.37748  -3007517.18144  22275394.3844   22275394.3214
       390.9694
 -13946765.94849 -10852715.54547  20569588.1884   20569586.0994
      3253.8594
  -2094656.87649  -1629884.14247  19952839.3134   19952836.7124
      -351.1094
  -4044495.61446  -3121149.26343  22670606.2594   22670605.0714
      2636.4224
  -8927903.32649  -6944592.76747  19999297.3134   19999295.2824
      1997.1254
   -307834.49048  -1398896.68844  21951019.3844   21951015.0324
      2819.5784
  -5300961.05348  -4114971.71243  22768997.8214   22768998.2904
      4566.7664
 04  9  8 22  3 29.9970000  0  7G 3G 8G13G10G27G19G28
  -2998415.83648  -3012038.61443  22274290.7824   22274289.4384
       381.6564
 -13995556.04349 -10890733.77747  20560304.4314   20560301.8804
      3250.4534
  -2089340.27549  -1625741.33947  19953851.3064   19953848.9664
      -358.7664
  -4083981.59646  -3151917.55543  22663092.3064   22663091.3994
      2627.3444
  -8957843.91649  -6967923.09448  19993599.7284   19993597.7864
      1993.9694
   -350077.65447  -1431813.41143  21942979.6264   21942975.9234
      2811.7504
  -5369446.34748  -4168336.83043  22755966.1034   22755965.1064
      4563.5944
 04  9  8 22  3 44.9970000  0  8G 3G 8G13G10G23G27G19G28
  -3004068.26347  -3016443.12343  22273214.3134   22273214.2594
       371.0004
 -14044284.90749 -10928704.31147  20551031.2124   20551029.7944
      3245.6884
  -2083899.22749  -1621501.58647  19954886.6654   19954884.7164
      -367.7194
  -4123320.33347  -3182571.11943  22655607.4784   22655605.9114
      2616.8284
     34001.49414                  22698874.501
     -2076.125
  -8987727.54949  -6991209.04347  19987913.2824   19987910.8214
      1989.5004
   -392193.81247  -1464631.16344  21934966.3994   21934963.1694
      2802.7034
  -5437873.07148  -4221656.33243  22742945.3684   22742943.8844
      4558.9534
 04  9  8 22  3 59.9970000  0  8G 3G 8G13G10G23G27G19G28
  -3009568.71947  -3020729.16343  22272167.9544   22272166.9424
       361.3284
 -14092950.69649 -10966625.68747  20541770.8684   20541768.4854
      3241.9844
  -2078331.81349  -1617163.35247  19955945.7124   19955943.4354
      -375.6724
  -4162509.68646  -3213108.28343  22648149.1104   22648148.3724
      2607.2814
     65161.206 4                  22704807.485
     -2079.516
  -9017552.10349  -7014448.94947  19982237.3604   19982235.4974
      1986.0004
   -434180.74947  -1497348.25243  21926975.3604   21926971.6184
      2794.4844
  -5506239.08647  -4274928.51843  22729934.8684   22729934.0214
      4555.3444
 04  9  8 22  4 14.9970000  0  7G 3G 8G13G10G27G19G28
  -3014915.65547  -3024895.60344  22271149.5564   22271149.9314
       351.3594
 -14141551.70549 -11004496.58947  20532521.9854   20532521.2474
      3237.8914
  -2072636.39849  -1612725.37047  19957030.2204   19957027.5134
      -383.9844
  -4201547.88846  -3243527.64143  22640720.1424   22640719.3604
      2597.4694
  -9047315.90349  -7037641.51947  19976573.4854   19976571.5914
      1982.2034
   -476036.29046  -1529962.94742  21919010.0484   21919006.9504
      2785.8914
  -5574542.59748  -4328151.97243  22716937.5714   22716936.9504
      4551.4694
 04  9  8 22  4 29.9970000  0  7G 3G 8G13G10G27G19G28
  -3020105.70548  -3028939.83544  22270162.8534   22270162.2284
       340.8284
 -14190084.42449 -11042314.29547  20523285.8994   20523284.9464
      3233.2344
  -2066809.63749  -1608185.05147  19958138.4384   19958136.3994
      -392.8594
  -4240431.31846  -3273826.39243  22633321.4074   22633320.2204
      2587.0474
  -9077015.41949  -7060783.99847  19970921.8764   19970919.9274
      1977.7814
   -517756.85946  -1562472.47842  21911071.9154   21911067.9384
      2776.8594
  -5642779.88348  -4381323.85944  22703952.5634   22703951.4504
      4546.9384
 04  9  8 22  4 44.9970000  0  7G 3G 8G13G10G27G19G28
  -3025135.46447  -3032859.11144  22269205.7744   22269205.3644
       329.8444
 -14238545.22549 -11080075.95347  20514064.6654   20514063.2634
      3228.2344
  -2060848.04349  -1603539.66547  19959273.3214   19959270.8104
      -402.0624
  -4279156.37446  -3304001.75343  22625952.5634   22625950.7044
      2576.3284
  -9106647.10449  -7083873.63247  19965283.5094   19965280.6734
      1973.1414
   -559338.81047  -1594873.97242  21903160.3924   21903155.7714
      2767.3594
  -5710947.36548  -4434441.34444  22690981.3604   22690979.3214
      4542.0314
 04  9  8 22  4 59.9970000  0  8G 3G 8G13G10G23G27G19G28
  -3030005.44548  -3036653.89043  22268279.4234   22268278.3024
       319.7344
 -14286934.55649 -11117781.90847  20504856.4624   20504854.7084
      3224.0314
  -2054751.92449  -1598789.46347  19960432.7514   19960430.6924
      -410.4374
  -4317723.20346  -3334053.81243  22618613.3764   22618611.5604
      2566.2974
                                  22728667.157
     -2096.766
  -9136211.36249  -7106910.71247  19959657.4784   19959654.9074
      1969.1094
   -600782.23347  -1627167.41542  21895272.3294   21895268.5214
      2758.7344
  -5779045.20148  -4487504.54944  22678022.3454   22678021.0994
      4537.9534
 04  9  8 22  5 14.9970000  0  8G 3G 8G13G10G23G27G19G28
  -3034719.01548  -3040326.84244  22267381.7984   22267380.9704
       308.5784
 -14335255.60049 -11155434.66247  20495661.4624   20495659.6344
      3218.6094
  -2048525.14249  -1593937.43447  19961618.3454   19961615.6264
      -420.0164
  -4356135.11446  -3363985.17643  22611302.8454   22611301.8964
      2555.1094
     42822.347 4                  22734638.673
     -2102.094
  -9165711.47249  -7129897.81548  19954044.1264   19954041.4154
      1964.0474
   -642089.97947  -1659355.33042  21887412.1104   21887407.8884
      2748.8134
  -5847076.38247  -4540515.80444  22665075.4854   22665075.4584
      4532.6254
 04  9  8 22  5 29.9970000  0  8G 3G 8G13G10G23G27G19G28
  -3039275.14047  -3043877.03644  22266514.8844   22266514.3964
       298.3754
 -14383507.02049 -11193033.15947  20486479.6734   20486477.7634
      3214.3444
  -2042166.39949  -1588982.58947  19962828.0874   19962825.5634
      -428.4064
  -4394390.79847  -3393794.80843  22604023.2124   22604022.4314
      2545.0784
     74377.508 4                  22740641.517
     -2106.000
  -9195146.27849  -7152834.02248  19948442.5564   19948440.3294
      1960.0474
   -683260.84848  -1691436.56543  21879577.4154   21879573.0714
      2740.0944
  -5915039.74448  -4593474.24444  22652142.9854   22652142.1034
      4528.4694
 04  9  8 22  5 44.9970000  0  8G 3G 8G13G10G23G27G19G28
  -3043670.43847  -3047301.97443  22265677.9464   22265677.4934
       287.5634
 -14431685.55249 -11230574.85947  20477311.2674   20477309.6534
      3209.3594
  -2035672.35949  -1583922.30847  19964064.1884   19964061.4424
      -437.5314
  -4432486.61247  -3423479.82643  22596774.6814   22596773.0634
      2534.3134
    106001.64345   4919944.90551  22746661.6574   22746654.9854
     -2110.5784
  -9224512.20349  -7175716.55748  19942854.3844   19942852.0484
      1955.2974
   -724291.06647  -1723408.16443  21871768.8534   21871765.6184
      2730.5004
  -5982931.61947  -4646376.95943  22639223.3214   22639223.3924
      4523.6884
 04  9  8 22  5 59.9970000  0  8G 3G 8G13G10G23G27G19G28
  -3047906.26248  -3050602.60944  22264872.7904   22264871.6614
       276.5944
 -14479792.07649 -11268060.44247  20468157.0564   20468155.3724
      3204.2504
  -2029044.28549  -1578757.58647  19965325.0244   19965322.4624
      -446.8594
  -4470423.56447  -3453041.07343  22589554.7354   22589553.7474
      2523.2814
    137693.30044   4944639.50441  22752692.8844   22752687.2124
     -2115.5784
  -9253810.32449  -7198546.25548  19937279.2434   19937276.9234
      1950.4384
   -765181.67747  -1755270.90543  21863988.4624   21863984.4584
      2720.8754
  -6050752.82047  -4699224.60444  22626317.1964   22626317.3994
      4518.5784
 04  9  8 22  6 14.9970000  0  8G 3G 8G13G10G23G27G19G28
  -3051981.48646  -3053778.09443  22264096.0174   22264096.4464
       266.3594
 -14527825.32949 -11305488.94047  20459017.1344   20459014.7674
      3199.7814
  -2022280.90349  -1573487.42547  19966611.6734   19966610.1534
      -455.3754
  -4508200.24347  -3482477.43843  22582367.0874   22582365.1064
      2513.1414
    169453.698 3                  22758738.923
     -2119.641
  -9283039.32049  -7221322.10147  19931716.9704   19931714.8254
      1946.3284
   -805931.02748  -1787023.65143  21856234.0794   21856230.1034
      2711.9844
  -6118502.07147  -4752016.18543  22613424.6574   22613424.9384
      4514.1724
 04  9  8 22  6 29.9970000  0  7G 3G 8G13G10G27G19G28
  -3055892.20847  -3056825.44944  22263353.3534   22263351.3334
       254.7664
 -14575781.53949 -11342857.41747  20449891.2674   20449888.4504
      3194.0634
  -2015378.63149  -1568109.05347  19967925.4154   19967923.2824
      -465.2814
  -4545812.60947  -3511785.79743  22575208.8994   22575207.9544
      2501.5164
  -9312195.43449  -7244041.15047  19926168.6104   19926166.6424
      1940.9064
   -846534.98548  -1818663.11444  21848507.0954   21848504.1304
      2701.6094
  -6186175.28147  -4804748.52044  22600547.0174   22600546.8964
      4508.5474
 04  9  8 22  6 44.9970000  0  7G 3G 8G13G10G27G19G28
  -3059638.83347  -3059744.86344  22262639.3134   22262639.3804
       244.7974
 -14623660.54649 -11380165.73547  20440779.8454   20440777.9074
      3189.7974
  -2008337.65949  -1562622.60047  19969265.5014   19969263.1694
      -473.5314
  -4583260.88747  -3540966.25543  22568083.4234   22568081.6884
      2491.6094
  -9341278.76249  -7266703.48747  19920634.4074   19920631.6224
      1936.9224
   -886993.58648  -1850189.31345  21840808.1344   21840803.9034
      2692.8594
  -6253772.54947  -4857421.66143  22587683.1884   22587683.6734
      4504.4534
 04  9  8 22  6 59.9970000  0  7G 3G 8G13G10G27G19G28
  -3063227.44747  -3062541.22543  22261957.0324   22261956.1654
       233.8134
 -14671468.44849 -11417418.62747  20431681.7514   20431680.8104
      3184.6884
  -2001163.91049  -1557032.67047  19970631.1964   19970628.8104
      -482.7344
  -4620550.85547  -3570023.38343  22560986.4544   22560985.0444
      2480.6564
  -9370295.21649  -7289313.71347  19915112.4784   19915110.3334
      1932.1254
   -927312.52948  -1881606.63545  21833136.1104   21833132.4074
      2683.1564
  -6321299.67047  -4910040.19543  22574834.0954   22574833.6424
      4499.3444
 04  9  8 22  7 14.9970000  0  7G 3G 8G13G10G27G19G28
  -3066657.28747  -3065213.76144  22261304.9624   22261303.4974
       223.3284
 -14719204.07549 -11454615.18947  20422598.0324   20422596.6034
      3179.9534
  -1993856.56249  -1551338.63947  19972020.8534   19972018.5874
      -491.6254
  -4657681.37146  -3598956.23243  22553921.2904   22553919.6884
      2470.0474
  -9399243.72149  -7311870.98148  19909603.9314   19909602.0604
      1927.6254
   -967490.52548  -1912914.14745  21825489.7124   21825486.3924
      2673.7664
  -6388755.45547  -4962603.09143  22561997.1654   22561996.6064
      4494.6724
 04  9  8 22  7 29.9970000  0  7G 3G 8G13G10G27G19G28
  -3069927.60247  -3067762.10044  22260682.6654   22260681.7354
       212.6254
 -14766866.67049 -11491754.89047  20413528.6654   20413526.2594
      3174.9534
  -1986414.89049  -1545539.96047  19973437.2904   19973434.8924
      -500.6874
  -4694651.61446  -3627764.23943  22546885.5094   22546884.2784
      2459.2344
  -9428123.50649  -7334374.72147  19904108.6344   19904105.8844
      1922.9534
  -1007526.65148  -1944111.11845  21817871.0174   21817867.6814
      2664.2034
  -6456138.81847  -5015109.59944  22549174.9854   22549173.9074
      4489.7344
 04  9  8 22  7 44.9970000  0  7G 3G 8G13G10G27G19G28
  -3073039.87447  -3070187.27044  22260090.4934   22260088.4424
       202.2504
 -14814457.74849 -11528838.83847  20404472.3994   20404470.1034
      3170.3754
  -1978840.57049  -1539637.88947  19974878.6884   19974876.7674
      -509.2814
  -4731462.93946  -3656448.36543  22539881.0014   22539879.7554
      2448.8914
  -9456936.05449  -7356826.05447  19898625.5324   19898622.9854
      1918.6414
  -1047422.10749  -1975198.49345  21810280.7824   21810275.7824
      2655.1254
  -6523451.17047  -5067560.72044  22536365.9624   22536364.9464
      4485.1724
 04  9  8 22  7 59.9970000  0  7G 3G 8G13G10G27G19G28
  -3075995.70247  -3072490.51444  22259528.1734   22259526.1184
       191.8754
 -14861978.47549 -11565867.96847  20395429.5014   20395427.8604
      3165.5944
  -1971135.11649  -1533633.64547  19976345.0244   19976342.5404
      -518.1094
  -4768116.58547  -3685009.62844  22532905.7514   22532904.6104
      2438.2814
  -9485682.59849  -7379225.94648  19893155.4234   19893152.9354
      1914.2814
  -1087177.96748  -2006177.04445  21802713.9074   21802710.7594
      2645.6564
  -6590693.64947  -5119957.38244  22523569.8684   22523569.0754
      4480.4384
 04  9  8 22  8 14.9970000  0  8G 3G 8G13G10G23G27G19G28
  -3078797.07247  -3074673.40544  22258994.4234   22258993.6344
       181.7664
 -14909430.79949 -11602843.79247  20386399.2434   20386397.3414
      3161.3284
  -1963300.40149  -1527528.68347  19977835.8604   19977833.3334
      -526.5004
  -4804614.25847  -3713449.37343  22525960.5564   22525959.6464
      2428.0784
     41330.16013                  22807557.603
     -2154.781
  -9514364.95949  -7401575.84947  19887697.4154   19887695.1144
      1910.1254
  -1126795.83448  -2037048.08146  21795175.4234   21795172.0054
      2636.7194
  -6657867.93947  -5172300.96744  22510785.9934   22510786.7784
      4476.2194
 04  9  8 22  8 29.9970000  0  7G 3G 8G13G10G27G19G28
  -3081439.40647  -3076732.36244  22258491.8604   22258490.6064
       171.2034
 -14956809.66449 -11639762.37547  20377383.7354   20377382.2124
      3156.5164
  -1955331.71949  -1521319.35447  19979352.7044   19979349.7284
      -535.3124
  -4840951.10647  -3741763.81143  22519046.2434   22519044.2744
      2417.5164
  -9542978.38649  -7423872.02448  19882252.3684   19882250.3964
      1905.6094
  -1166270.76148  -2067807.74546  21787663.2744   21787659.9274
      2627.3594
  -6724969.02347  -5224587.50343  22498017.4934   22498017.5994
      4471.2664
 04  9  8 22  8 44.9970000  0  7G 3G 8G13G10G27G19G28
  -3083922.38747  -3078667.15144  22258019.1574   22258017.9544
       160.5474
 -15004114.73449 -11676623.46647  20368381.8214   20368379.6424
      3151.5004
  -1947228.73749  -1515005.36047  19980894.0484   19980892.1184
      -544.4064
  -4877126.76047  -3769952.58943  22512162.5634   22512160.7354
      2406.5634
  -9571522.38649  -7446114.09647  19876820.7434   19876818.2984
      1900.8754
  -1205602.09549  -2098455.53246  21780178.8764   21780175.7784
      2617.6254
  -6791996.47947  -5276816.66444  22485263.7354   22485263.1964
      4466.3444
 04  9  8 22  8 59.9970000  0  7G 3G 8G13G10G27G19G28
  -3086249.33348  -3080480.35344  22257577.1264   22257575.7864
       150.1414
 -15051349.17649 -11713429.50647  20359393.3764   20359391.3104
      3146.9534
  -1938995.05149  -1508589.51447  19982460.8294   19982458.6144
      -552.9694
  -4913144.25947  -3798018.18443  22505308.1734   22505306.6774
      2396.2034
  -9600000.26649  -7468304.65247  19871401.1494   19871398.7244
      1896.6094
  -1244792.91548  -2128993.81545  21772721.0954   21772716.4154
      2608.2974
  -6858953.40047  -5328990.84544  22472521.7354   22472521.0014
      4461.7344
 04  9  8 22  9 14.9970000  0  8G 3G 8G13G10G23G27G19G28
  -3088419.08147  -3082171.05144  22257163.6814   22257162.4974
       139.0634
 -15098511.50449 -11750179.37047  20350418.3374   20350416.5174
      3141.3754
  -1930629.34549  -1502070.80147  19984053.1884   19984051.1064
      -562.5164
  -4949002.09247  -3825959.35543  22498484.2044   22498482.6494
      2384.8594
     55508.38712                  22832264.899
     -2172.781
  -9628410.50049  -7490442.49747  19865994.9314   19865993.1694
      1891.3594
  -1283841.60348  -2159421.34545  21765289.7904   21765286.9314
      2598.0784
  -6925838.23447  -5381108.84243  22459793.6494   22459792.6814
      4456.2194
 04  9  8 22  9 29.9970000  0  7G 3G 8G13G10G27G19G28
  -3090433.78048  -3083740.97444  22256780.6104   22256779.0564
       129.2974
 -15145603.89749 -11786874.74147  20341457.1344   20341454.9504
      3137.3754
  -1922133.70149  -1495450.82747  19985669.5484   19985667.6224
      -570.4534
  -4984702.17747  -3853777.60443  22491691.3604   22491690.0214
      2375.0004
  -9656755.28049  -7512529.33447  19860601.0324   19860599.2284
      1887.6254
  -1322749.98248  -2189739.54945  21757886.0244   21757882.4894
      2589.4224
  -6992652.81348  -5433172.13143  22447078.5094   22447078.1424
      4452.0944
 04  9  8 22  9 44.9970000  0  8G 3G 8G13G10G23G27G19G28
  -3092289.92347  -3085187.32443  22256426.6344   22256425.8334
       118.2814
 -15192622.53149 -11823512.63147  20332510.2514   20332508.1384
      3131.9534
  -1913504.52249  -1488726.81047  19987312.0714   19987309.6654
      -579.8914
  -5020240.73747  -3881470.00343  22484928.0714   22484927.3254
      2363.7034
     24844.30813                  22844685.501
     -2181.203
  -9685030.71249  -7534562.15447  19855220.7204   19855218.3804
      1882.5164
  -1361514.08149  -2219945.31145  21750509.7904   21750506.1344
      2579.3134
  -7059393.20047  -5485177.57843  22434378.7204   22434377.4704
      4446.6724
 04  9  8 22  9 59.9970000  0  7G 3G 8G13G10G27G19G28
  -3093992.23546  -3086513.78643  22256102.0014   22256101.7394
       108.1094
 -15239571.87449 -11860096.52447  20323575.5404   20323574.1304
      3127.4694
  -1904746.37849  -1481902.29347  19988978.4624   19988976.0364
      -588.3284
  -5055622.30047  -3909040.05843  22478194.7904   22478194.4504
      2353.4844
  -9713241.28849  -7556544.41047  19849852.1264   19849849.9784
      1878.2974
  -1400138.21549  -2250042.02345  21743159.6264   21743155.8024
      2570.0784
  -7126063.76647  -5537128.64543  22421690.9074   22421690.5214
      4442.2034
 04  9  8 22 10 14.9970000  0  7G 3G 8G13G10G27G19G28
  -3095542.42647  -3087721.72843  22255807.4314   22255806.8024
        98.1564
 -15286453.47349 -11896627.61047  20314654.1884   20314652.7474
      3123.1094
  -1895860.97449  -1474978.61747  19990668.7514   19990667.0564
      -596.6724
  -5090848.43347  -3936488.99243  22471491.1734   22471491.5174
      2343.1094
  -9741388.64249  -7578477.41047  19844495.8844   19844493.5564
      1874.2974
  -1438623.73948  -2280030.71446  21735836.7044   21735833.4504
      2560.9694
  -7192666.00848  -5589026.45644  22409017.8924   22409016.8844
      4437.7974
 04  9  8 22 10 29.9970000  0  7G 3G 8G13G10G27G19G28
  -3096935.11347  -3088806.97343  22255544.1884   22255541.3064
        87.6884
 -15333261.80349 -11933101.64047  20305746.7594   20305744.7124
      3118.1724
  -1886843.22649  -1467951.80947  19992385.5714   19992383.0954
      -605.5784
  -5125913.42447  -3963812.32843  22464818.9934   22464817.9974
      2332.3134
  -9769467.28349  -7600356.87447  19839152.8294   19839150.7084
      1869.6414
  -1476965.08748  -2309907.07145  21728539.5794   21728536.3684
      2551.3594
  -7259194.32547  -5640866.65744  22396358.4934   22396357.2124
      4432.8444
 04  9  8 22 10 44.9970000  0  7G 3G 8G13G10G27G19G28
  -3098169.79147  -3089769.07643  22255308.6424   22255307.6304
        76.9844
 -15379996.24449 -11969518.07447  20296853.4934   20296851.8254
      3113.0784
  -1877692.45349  -1460821.34247  19994126.9704   19994124.2514
      -614.5164
  -5160816.46347  -3991009.48144  22458178.8604   22458177.0054
      2321.3754
  -9797476.38249  -7622182.13747  19833822.8764   19833820.9074
      1864.8914
  -1515161.26648  -2339670.31845  21721271.0714   21721268.0604
      2541.5314
  -7325647.82347  -5692648.55443  22383711.5634   22383712.2634
      4427.7664
 04  9  8 22 10 59.9970000  0  7G 3G 8G13G10G27G19G28
  -3099245.47147  -3090607.23542  22255102.1654   22255101.7784
        66.3914
 -15426655.56749 -12005875.98247  20287974.6964   20287972.7864
      3108.0944
  -1868407.56449  -1453586.39047  19995893.7284   19995891.5324
      -623.5474
  -5195556.32047  -4018079.47743  22451566.7284   22451565.8334
      2310.4534
  -9825414.88249  -7643952.40347  19828506.5174   19828504.2594
      1860.1254
  -1553210.92949  -2369319.39946  21714031.3374   21714027.5994
      2531.7034
  -7392025.23548  -5744371.20244  22371081.6494   22371080.5914
      4422.5474
 04  9  8 22 11 14.9970000  0  7G 3G 8G13G10G27G19G28
  -3100160.54447  -3091320.32843  22254929.1264   22254927.3964
        55.6564
 -15473237.79449 -12042173.80947  20279110.0794   20279108.5094
      3103.0634
  -1858987.10749  -1446245.78047  19997686.0244   19997684.2044
      -632.4694
  -5230131.33048  -4045021.03443  22444987.7904   22444986.5244
      2299.6724
  -9853281.11849  -7665666.35047  19823203.6654   19823201.0874
      1855.5004
  -1591112.30849  -2398852.91546  21706818.6574   21706815.0714
      2521.9844
  -7458324.88148  -5796033.23644  22358465.3064   22358464.2594
      4417.4844
 04  9  8 22 11 29.9970000  0  7G 3G 8G13G10G27G19G28
  -3100917.61047  -3091910.27643  22254785.9464   22254783.9194
        45.1724
 -15519745.25249 -12078413.38547  20270260.4934   20270258.7864
      3098.0164
  -1849433.46549  -1438801.40147  19999504.5634   19999502.0484
      -641.3754
  -5264543.71748  -4071835.93743  22438439.5324   22438437.9194
      2288.8134
  -9881077.30249  -7687325.70747  19817914.1574   19817912.2714
      1850.7194
  -1628867.35448  -2428272.41446  21699633.3844   21699630.2044
      2512.0784
  -7524548.75548  -5847636.21644  22345863.3994   22345861.8024
      4412.3444
 04  9  8 22 11 44.9970000  0  7G 3G 8G13G10G27G19G28
  -3101519.24546  -3092379.07343  22254669.9464   22254669.5564
        34.8284
 -15566180.47149 -12114596.65447  20261424.0174   20261422.3334
      3093.0474
  -1839749.16549  -1431255.21447  20001346.8684   20001344.5994
      -650.2504
  -5298795.89947  -4098525.93843  22431921.2824   22431920.4274
      2277.8444
  -9908805.71349  -7708932.26848  19812637.6494   19812635.7394
      1846.0004
  -1666478.30948  -2457579.63246  21692476.6734   21692473.5524
      2502.2504
  -7590699.14248  -5899181.93544  22333274.3454   22333274.2674
      4407.3444
 04  9  8 22 11 59.9970000  0  7G 3G 8G13G10G27G19G28
  -3101962.74546  -3092724.65043  22254585.3924   22254585.1494
        24.6564
 -15612540.73949 -12150721.53647  20252602.1104   20252600.0634
      3088.5784
  -1829931.54849  -1423605.14447  20003215.1574   20003212.9314
      -658.6094
  -5332884.94548  -4125088.82343  22425434.0714   22425432.7434
      2267.5314
  -9936463.70249  -7730483.94248  19807374.6574   19807372.2554
      1841.9694
  -1703942.25948  -2486772.30645  21685346.9624   21685343.8534
      2493.0314
  -7656772.97748  -5950668.01044  22320701.6184   22320700.6224
      4402.6884
 04  9  8 22 12 14.9970000  0  7G 3G 8G13G10G27G19G28
  -3102252.20548  -3092950.18744  22254531.7674   22254529.9584
        13.9844
 -15658829.91349 -12186791.03147  20243793.5484   20243791.6064
      3083.3284
  -1819984.64049  -1415854.33647  20005108.1884   20005106.0994
      -667.6414
  -5366814.64048  -4151527.52643  22418977.6814   22418976.6774
      2256.5004
  -9964054.96749  -7751983.64247  19802123.9384   19802121.3494
      1837.0474
  -1741262.75148  -2515853.20546  21678245.5094   21678242.3684
      2483.0004
  -7722774.11448  -6002097.43044  22308141.3294   22308140.8844
      4397.3914
 04  9  8 22 12 29.9970000  0  7G 3G 8G13G10G27G19G28
  -3102384.60047  -3093053.38144  22254506.5244   22254504.9624
         3.7664
 -15705044.36949 -12222802.28147  20234998.9464   20234997.3134
      3078.5634
  -1809905.32449  -1408000.34447  20007026.2044   20007023.6574
      -676.2814
  -5400581.62348  -4177839.46543  22412551.9704   22412550.9424
      2245.8284
  -9991576.44949  -7773428.95247  19796886.9074   19796884.6224
      1832.5474
  -1778436.40848  -2544819.66146  21671171.6964   21671167.7904
      2473.4694
  -7788699.22748  -6053467.63444  22295597.0324   22295595.7284
      4392.5634
 04  9  8 22 12 44.9970000  0  7G 3G 8G13G10G27G19G28
  -3102358.27047  -3093032.86344  22254511.0954   22254510.3844
        -7.1094
 -15751182.52349 -12258754.07647  20226219.1734   20226217.8564
      3073.1724
  -1799691.98149  -1400041.89947  20008969.9384   20008967.6144
      -685.4534
  -5434184.12148  -4204023.24643  22406157.9784   22406156.5014
      2234.6564
 -10019026.24449  -7794818.40147  19791663.5484   19791661.1064
      1827.5004
  -1815461.26148  -2573670.16245  21664126.1964   21664123.1494
      2463.3134
  -7854546.22648  -6104776.94144  22283066.4784   22283065.2004
      4387.1094
 04  9  8 22 12 59.9970000  0  7G 3G 8G13G10G27G19G28
  -3102178.66848  -3092892.91644  22254546.0244   22254543.7554
       -16.7034
 -15797249.61849 -12294650.50247  20217453.1184   20217451.4314
      3069.1414
  -1789349.93149  -1391983.16147  20010937.4314   20010935.9934
      -693.4064
  -5467627.36047  -4230082.91643  22399793.4384   22399792.0914
      2224.6564
 -10046409.52249  -7816156.01247  19786452.5404   19786450.4464
      1823.7034
  -1852342.38748  -2602408.66545  21657108.0324   21657103.8104
      2454.3754
  -7920320.26548  -6156029.40844  22270549.3374   22270549.3964
      4382.9064
 04  9  8 22 13 14.9970000  0  7G 3G 8G13G10G27G19G28
  -3101840.59148  -3092629.47343  22254608.4234   22254608.4354
       -27.8444
 -15843240.03249 -12330487.17447  20208701.2514   20208699.8454
      3063.4694
  -1778874.10949  -1383820.18247  20012931.2284   20012929.4854
      -702.8754
  -5500905.93147  -4256014.26643  22393459.3684   22393459.6924
      2213.0164
 -10073720.95249  -7837437.63747  19781255.2124   19781253.1694
      1818.2504
  -1889074.29548  -2631030.91346  21650117.5404   21650114.7594
      2443.7814
  -7986015.92348  -6207220.79044  22258049.1104   22258047.3024
      4377.0784
 04  9  8 22 13 29.9970000  0  7G 3G 8G13G10G27G19G28
  -3101344.20448  -3092242.73844  22254705.3454   22254703.1574
       -38.5624
 -15889153.96749 -12366264.25647  20199963.9784   20199962.2674
      3058.2664
  -1768264.52849  -1375553.00347  20014950.0484   20014947.7904
      -711.8594
  -5534019.71247  -4281817.22643  22387159.0174   22387158.4624
      2201.9844
 -10100960.53249  -7858663.29147  19776071.8214   19776069.6034
      1813.4064
  -1925656.72248  -2659536.70446  21643157.1184   21643152.7674
      2433.7344
  -8051633.07948  -6258351.00044  22245561.6104   22245561.1924
      4371.6564
 04  9  8 22 13 44.9970000  0  7G 3G 8G13G10G27G19G28
  -3100690.49748  -3091733.37344  22254828.4234   22254827.3644
       -48.5004
 -15934992.08349 -12401982.26747  20191241.3994   20191239.6104
      3053.7814
  -1757522.20449  -1367182.37447  20016994.6574   20016992.6814
      -720.2034
  -5566969.36148  -4307492.26743  22380890.6494   22380888.1264
      2191.5634
 -10128128.95849  -7879833.50047  19770901.2904   19770900.0214
      1809.2974
  -1962090.35948  -2687926.53846  21636223.2674   21636220.7004
      2424.3444
  -8117172.35248  -6309420.55044  22233090.1494   22233089.3964
      4367.1254
 04  9  8 22 13 59.9970000  0  7G 3G 8G13G10G27G19G28
  -3099880.29047  -3091102.06643  22254983.5094   22254982.4234
       -59.1254
 -15980754.91749 -12437641.62047  20182532.9464   20182531.3254
      3048.3914
  -1746647.90249  -1358708.92747  20019063.6964   20019061.3214
      -729.2664
  -5599755.55948  -4333039.96543  22374650.3294   22374649.1534
      2180.3284
 -10155226.97149  -7900948.82947  19765745.3134   19765743.2824
      1804.2194
  -1998375.66548  -2716200.80246  21629318.9314   21629314.8884
      2414.1414
  -8182634.19148  -6360429.74644  22220632.6884   22220632.3994
      4361.6254
 04  9  8 22 14 14.9970000  0  7G 3G 8G13G10G27G19G28
  -3098914.00548  -3090349.08343  22255166.6184   22255165.3294
       -69.7194
 -16026442.62749 -12473242.43247  20173838.9074   20173836.8604
      3043.2034
  -1735642.06949  -1350132.96947  20021158.3294   20021156.1884
      -738.2504
  -5632378.44747  -4358460.36543  22368442.1494   22368441.2354
      2169.3444
 -10182254.57049  -7922009.31247  19760601.9314   19760599.8134
      1799.3754
  -2034512.51648  -2744359.36645  21622442.3684   21622438.0014
      2404.0314
  -8248018.60247  -6411378.62044  22208190.6344   22208190.4034
      4356.2814
 04  9  8 22 14 29.9970000  0  7G 3G 8G13G10G27G19G28
  -3097795.79148  -3089477.75644  22255379.3764   22255377.6184
       -79.3124
 -16072059.22149 -12508787.80847  20165158.2124   20165156.6814
      3038.9534
  -1724508.75949  -1341457.67147  20023276.4074   20023274.2674
      -746.1874
  -5664841.97248  -4383756.61743  22362265.1884   22362263.8064
      2159.1564
 -10209215.90649  -7943018.13147  19755471.3604   19755469.0484
      1795.4224
  -2070504.74648  -2772405.25246  21615592.8844   21615589.3684
      2394.9694
  -8313329.54547  -6462270.21344  22195761.5634   22195762.3994
      4351.8594
 04  9  8 22 14 44.9970000  0  7G 3G 8G13G10G27G19G28
  -3096521.74048  -3088484.98943  22255621.8994   22255620.9704
       -90.6874
 -16117600.52449 -12544274.53847  20156491.9544   20156490.1574
      3033.0164
  -1713244.14449  -1332680.08147  20025420.3604   20025418.8134
      -755.9534
  -5697142.00248  -4408925.46543  22356119.1494   22356117.2164
      2147.2344
 -10236106.81049  -7963972.08747  19750354.6494   19750352.2394
      1789.7974
  -2106348.17948  -2800335.20445  21608772.4314   21608767.7474
      2384.0004
  -8378562.86048  -6513101.34744  22183349.5174   22183348.6494
      4345.7034
 04  9  8 22 14 59.9970000  0  7G 3G 8G13G10G27G19G28
  -3095094.92747  -3087373.15943  22255893.5484   22255892.0404
       -99.5164
 -16163069.40949 -12579704.82347  20147839.6104   20147837.5014
      3029.5004
  -1701851.19449  -1323802.45347  20027588.3134   20027586.1224
      -763.1094
  -5729281.34948  -4433969.12143  22350002.3294   22350000.6924
      2137.9844
 -10262930.18549  -7984873.41647  19745249.9154   19745247.8924
      1786.5944
  -2142045.47048  -2828151.26146  21601979.0794   21601975.8884
      2375.5634
  -8443721.16148  -6563874.00844  22170949.2354   22170949.5794
      4341.9694
 04  9  8 22 15 14.9970000  0  7G 3G 8G13G10G27G19G28
  -3093519.99348  -3086146.02343  22256193.5324   22256191.5244
      -109.9694
 -16208470.42849 -12615082.25347  20139200.3454   20139198.3884
      3024.4694
  -1690334.54449  -1314828.47647  20029780.1264   20029778.2284
      -771.9224
  -5761264.46048  -4458891.02343  22343916.0014   22343914.8334
      2126.9844
 -10289690.48249  -8005725.59747  19740157.5244   19740155.6344
      1781.9224
  -2177601.00548  -2855856.87145  21595213.2594   21595209.7124
      2365.6254
  -8508808.82948  -6614591.65444  22158564.3604   22158563.1924
      4336.8444
 04  9  8 22 15 29.9970000  0  7G 3G 8G13G10G27G19G28
  -3091794.80848  -3084801.68543  22256521.4854   22256520.3104
      -120.2034
 -16253800.95149 -12650404.72847  20130574.1654   20130572.6064
      3019.5314
  -1678691.85249  -1305756.25347  20031995.6494   20031993.4704
      -780.4844
  -5793088.93148  -4483689.30543  22337860.3374   22337858.8644
      2116.2034
 -10316385.14549  -8026526.64147  19735077.8134   19735075.3924
      1777.3284
  -2213012.16348  -2883449.93545  21588474.3684   21588471.3104
      2355.7974
  -8573823.32848  -6665252.25044  22146191.8924   22146190.9624
      4331.7504
 04  9  8 22 15 44.9970000  0  7G 3G 8G13G10G27G19G28
  -3089916.61247  -3083338.16743  22256878.5484   22256877.0284
      -129.8284
 -16299058.27349 -12685670.16547  20121961.4624   20121959.8214
      3015.2664
  -1666920.50049  -1296583.77947  20034235.6034   20034233.4464
      -788.4224
  -5824751.79947  -4508361.68743  22331834.2744   22331833.3064
      2105.9694
 -10343011.47249  -8047274.42248  19730011.0714   19730009.0094
      1773.3754
  -2248275.92148  -2910928.16746  21581764.1814   21581759.9424
      2346.5474
  -8638761.65948  -6715853.53244  22133834.5404   22133833.2674
      4327.2664
 04  9  8 22 15 59.9970000  0  7G 3G 8G13G10G27G19G28
  -3087889.95748  -3081758.99543  22257263.8534   22257263.4114
      -139.8284
 -16344246.60949 -12720881.84147  20113361.7984   20113360.9544
      3010.5314
  -1655024.89349  -1287314.48147  20036499.2984   20036496.2554
      -796.8914
  -5856257.43547  -4532911.50743  22325838.7124   22325838.3564
      2095.3594
 -10369573.63649  -8067972.20347  19724956.4384   19724953.9274
      1768.9224
  -2283396.39348  -2938294.73245  21575080.5244   21575077.5444
      2336.8284
  -8703628.00748  -6766398.70144  22121490.6964   22121490.1184
      4322.3284
 04  9  8 22 16 14.9970000  0  7G 3G 8G13G10G27G19G28
  -3085717.84047  -3080066.45543  22257677.2514   22257676.4034
      -149.5624
 -16389368.77649 -12756041.96647  20104776.2204   20104774.4934
      3006.1414
  -1643008.00449  -1277950.69547  20038785.7594   20038784.6034
      -805.0004
  -5887608.63647  -4557341.02143  22319873.0174   22319871.9194
      2085.0944
 -10396074.47049  -8088622.21847  19719913.3134   19719910.9424
      1764.8284
  -2318376.19848  -2965551.70546  21568424.8924   21568421.0244
      2327.4384
  -8768425.10248  -6816889.89944  22109159.8374   22109159.6494
      4317.5474
 04  9  8 22 16 29.9970000  0  7G 3G 8G13G10G27G19G28
  -3083399.55748  -3078259.96844  22258119.3294   22258118.2244
      -158.8444
 -16434423.69449 -12791149.68847  20096202.7744   20096200.7124
      3001.9064
  -1630869.09649  -1268491.80947  20041096.0564   20041093.6424
      -812.8444
  -5918804.27448  -4581649.31043  22313937.2904   22313935.9544
      2075.0634
 -10422512.96049  -8109223.62647  19714882.4074   19714880.2004
      1760.9844
  -2353214.20648  -2992698.20545  21561795.1104   21561791.2674
      2318.3594
  -8833151.78048  -6867326.23244  22096842.7594   22096842.2244
      4313.3284
 04  9  8 22 16 44.9970000  0  7G 3G 8G13G10G27G19G28
  -3080935.49347  -3076339.88944  22258587.4464   22258586.9744
      -168.7814
 -16479411.26149 -12826204.93547  20087642.0794   20087640.2434
      2997.2664
  -1618608.61949  -1258938.21647  20043428.8214   20043426.3254
      -821.0784
  -5949844.43848  -4605836.47643  22308030.3994   22308028.9664
      2064.5004
 -10448889.26449  -8129776.60247  19709863.4464   19709860.8644
      1756.6884
  -2387910.38848  -3019734.20945  21555192.5794   21555188.9854
      2308.6564
  -8897808.13048  -6917707.78744  22084539.5714   22084538.5524
      4308.3914
 04  9  8 22 16 59.9970000  0  7G 3G 8G13G10G27G19G28
  -3078329.21948  -3074309.05044  22259084.0174   22259082.8844
      -178.0164
 -16524335.31649 -12861210.67547  20079093.3214   20079090.7784
      2993.2504
  -1606230.00449  -1249292.53547  20045784.2434   20045782.6694
      -828.7504
  -5980732.58247  -4629905.11443  22302152.9234   22302151.8064
      2054.5164
 -10475206.75049  -8150283.71747  19704855.1344   19704852.8454
      1753.0164
  -2422468.06748  -3046662.22346  21548616.1344   21548612.5674
      2299.6884
  -8962397.45748  -6968037.10044  22072248.3994   22072247.7674
      4304.1254
 04  9  8 22 17 14.9970000  0  7G 3G 8G13G10G27G19G28
  -3075582.54347  -3072168.79943  22259606.2284   22259604.7824
      -187.8444
 -16569197.12749 -12896167.94647  20070556.1814   20070554.5994
      2988.6414
  -1593735.12049  -1239556.29748  20048162.3684   20048160.4974
      -836.9694
  -6011470.42447  -4653856.71043  22296304.2124   22296302.6344
      2044.0634
 -10501467.19849  -8170746.42048  19699857.8454   19699855.6384
      1748.6724
  -2456888.73049  -3073483.52546  21542066.8064   21542062.3804
      2290.0314
  -9026921.24248  -7018315.36344  22059970.5014   22059969.1064
      4299.3134
 04  9  8 22 17 29.9970000  0  7G 3G 8G13G10G27G19G28
  -3072692.33848  -3069916.71244  22260156.2514   22260155.0714
      -197.5784
 -16613993.60349 -12931074.27747  20062031.5874   20062030.6464
      2984.1564
  -1581120.64549  -1229726.84947  20050562.8924   20050560.4384
      -845.0314
  -6042054.51147  -4677688.46143  22290483.2434   22290482.3174
      2033.7664
 -10527667.07049  -8191161.89447  19694871.8994   19694869.6854
      1744.5634
  -2491168.77648  -3100195.23746  21535542.7744   21535539.4074
      2280.6564
  -9091376.00148  -7068539.79244  22047705.0794   22047704.3134
      4294.6254
 04  9  8 22 17 44.9970000  0  7G 3G 8G13G10G27G19G28
  -3069657.21347  -3067551.65643  22260733.2044   22260733.4624
      -207.5314
 -16658722.95049 -12965928.30547  20053519.9314   20053518.2434
      2979.4384
  -1568385.30949  -1219803.23447  20052986.2824   20052984.7944
      -853.3124
  -6072483.27447  -4701399.18543  22284692.9544   22284692.1104
      2023.1724
 -10553804.85049  -8211528.99848  19689898.2204   19689896.3334
      1740.1724
  -2525306.54348  -3126796.08346  21529047.3994   21529043.1344
      2270.7974
  -9155759.96948  -7118709.09044  22035452.9784   22035452.6654
      4289.5314
 04  9  8 22 17 59.9970000  0  7G 3G 8G13G10G27G19G28
  -3066483.90047  -3065078.96543  22261337.3844   22261336.1224
      -216.4534
 -16703391.58249 -13000735.02247  20045019.9074   20045018.0324
      2975.7034
  -1555535.75949  -1209790.60547  20055431.2674   20055428.8534
      -860.5624
  -6102763.19147  -4724993.90743  22278930.7904   22278929.6464
      2013.5474
 -10579887.00149  -8231852.75147  19684934.9854   19684932.5564
      1736.7814
  -2559308.50348  -3153291.10946  21522576.3534   21522573.0754
      2262.1094
  -9220079.58048  -7168828.25044  22023213.1654   22023212.0754
      4285.6254
 04  9  8 22 18 14.9970000  0  7G 3G 8G13G10G27G19G28
  -3063170.68447  -3062497.25243  22261967.4784   22261966.5874
      -225.8594
 -16747997.44849 -13035492.84547  20036531.6104   20036529.8764
      2971.4534
  -1542570.15149  -1199687.54747  20057899.1964   20057896.6144
      -868.4374
  -6132892.22047  -4748471.06143  22273197.7984   22273196.2354
      2003.3284
 -10605911.46249  -8252131.54547  19679983.2434   19679980.5364
      1732.7504
  -2593172.30647  -3179678.46345  21516131.9544   21516128.9034
      2252.7194
  -9284332.65048  -7218895.54244  22010986.6344   22010985.3604
      4281.0314
 04  9  8 22 18 29.9970000  0  7G 3G 8G13G10G27G19G28
  -3059710.56147  -3059801.05943  22262627.0094   22262625.6104
      -235.1564
 -16792533.47749 -13070196.24247  20028056.4854   20028054.1104
      2966.9694
  -1529481.57249  -1189488.66647  20060389.5634   20060387.4154
      -876.3124
  -6162863.15447  -4771825.07043  22267494.6574   22267493.4814
      1993.1094
 -10631871.11649  -8272359.84847  19675042.7044   19675040.4464
      1728.7664
  -2626890.77148  -3205952.55845  21509715.4704   21509712.2634
      2243.3134
  -9348511.95648  -7268905.35944  21998773.6884   21998771.6574
      4276.4534
 04  9  8 22 18 44.9970000  0  7G 3G 8G13G10G27G19G28
  -3056113.17747  -3056997.89943  22263312.0094   22263310.1614
      -244.4694
 -16837008.89149 -13104852.38347  20019593.2744   20019591.5524
      2962.9384
  -1516279.39249  -1179201.26947  20062901.8924   20062899.0954
      -883.9374
  -6192685.34347  -4795063.11943  22261818.8374   22261818.0754
      1983.1564
 -10657775.23949  -8292544.87347  19670113.4384   19670111.3374
      1725.0944
  -2660472.95048  -3232120.45946  21503325.6034   21503322.3764
      2234.1724
  -9412626.71648  -7318864.86744  21986572.8064   21986571.5524
      4272.1254
 04  9  8 22 18 59.9970000  0  7G 3G 8G13G10G27G19G28
  -3052368.73547  -3054080.15644  22264024.3844   22264022.8684
      -254.6254
 -16881413.56749 -13139453.42747  20011143.1424   20011141.5674
      2957.8594
  -1502953.83849  -1168817.73747  20065437.0484   20065435.3294
      -892.5944
  -6222348.84047  -4818177.53443  22256174.2434   22256173.4194
      1972.1884
 -10683613.88749  -8312678.87847  19665196.1184   19665194.2944
      1720.2504
  -2693908.80048  -3258174.37146  21496962.5244   21496959.6344
      2224.0314
  -9476666.83948  -7368766.22544  21974386.0874   21974385.3214
      4266.6254
 04  9  8 22 19 14.9970000  0  7G 3G 8G13G10G27G19G28
  -3048483.58947  -3051052.76444  22264763.7824   22264762.1064
      -263.2814
 -16925753.96149 -13174004.38647  20002706.0874   20002704.3134
      2954.1884
  -1489511.27949  -1158343.04447  20067995.7984   20067993.5054
      -899.7344
  -6251859.76647  -4841173.07443  22250559.1494   22250557.6184
      1962.7344
 -10709393.10749  -8332766.60247  19660290.5094   19660288.4544
      1716.9694
  -2727204.30848  -3284118.92446  21490627.1034   21490623.7244
      2215.3914
  -9540638.41648  -7418614.18744  21962212.9464   21962211.5484
      4262.9064
 04  9  8 22 19 29.9970000  0  7G 3G 8G13G10G27G19G28
  -3044457.46547  -3047915.51844  22265529.2594   22265528.1494
      -272.7814
 -16970029.39249 -13208504.71147  19994280.1494   19994278.7044
      2949.7814
  -1475951.48949  -1147776.98647  20070575.6574   20070573.0634
      -907.6094
  -6281217.55647  -4864049.28143  22244971.9154   22244971.0444
      1952.4384
 -10735112.58949  -8352807.74647  19655396.8134   19655394.5134
      1712.9224
  -2760358.92548  -3309953.66846  21484317.1654   21484314.9664
      2205.9534
  -9604540.64948  -7468408.10444  21950052.8134   21950051.3964
      4258.1414
 04  9  8 22 19 44.9960000  0  7G 3G 8G13G10G27G19G28
  -3040283.71947  -3044663.26243  22266324.2384   22266323.0204
      -283.4534
 -17014229.84349 -13242946.61347  19985868.9024   19985867.1764
      2944.1724
  -1462268.41049  -1137114.86247  20073179.0434   20073177.8014
      -916.7034
  -6310413.08347  -4886799.05543  22239417.2074   22239415.9264
      1940.8284
 -10760763.26149  -8372795.28447  19650515.7704   19650513.2734
      1707.6884
  -2793363.16048  -3335671.21946  21478037.5124   21478033.5704
      2195.2194
  -9668362.14748  -7518139.11044  21937908.0744   21937906.9454
      4252.2504
 04  9  8 22 19 59.9960000  0  7G 3G 8G13G10G27G19G28
  -3035964.54046  -3041297.69343  22267144.8324   22267143.9654
      -292.4374
 -17058363.54249 -13277336.50147  19977470.9344   19977468.2544
      2940.3134
  -1448462.89349  -1126357.34247  20075806.7154   20075804.5944
      -924.0164
  -6339453.01647  -4909427.53643  22233890.0594   22233889.1094
      1931.1254
 -10786351.18649  -8392733.92347  19645645.9964   19645643.4184
      1704.1094
  -2826223.74548  -3361276.86746  21471783.7704   21471780.5004
      2186.2034
  -9732113.97848  -7567815.83245  21925776.7234   21925775.2074
      4248.0164
 04  9  8 22 20 14.9960000  0  7G 3G 8G13G10G27G19G28
  -3031500.75247  -3037819.43344  22267995.2234   22267993.7854
      -303.1724
 -17102427.94449 -13311672.38147  19969085.8324   19969084.2464
      2934.6724
  -1434536.44349  -1115505.56947  20078456.6064   20078454.6334
      -933.1874
  -6368335.71747  -4931933.53143  22228394.6294   22228393.9024
      1919.6724
 -10811875.05849  -8412622.64347  19640789.5744   19640786.9694
      1698.7814
  -2858938.71749  -3386769.04046  21465559.3794   21465555.3834
      2175.4844
  -9795792.02148  -7617435.03345  21913658.6684   21913657.7464
      4242.1094
 04  9  8 22 20 29.9960000  0  7G 3G 8G13G10G27G19G28
  -3026893.47347  -3034229.37043  22268873.0434   22268870.4924
      -311.5164
 -17146423.79949 -13345954.87247  19960713.5594   19960711.7624
      2931.1884
  -1420490.03449  -1104560.34247  20081130.0514   20081127.8634
      -939.9844
  -6397061.71346  -4954317.47243  22222928.4574   22222926.0314
      1910.3284
 -10837335.50949  -8432461.97347  19635944.1604   19635942.0744
      1695.7344
  -2891508.62948  -3412148.19945  21459361.1064   21459357.3714
      2166.9534
  -9859396.94849  -7666997.29045  21901555.6374   21901554.5234
      4238.3284
 04  9  8 22 20 44.9960000  0  7G 3G 8G13G10G27G19G28
  -3022141.87546  -3030526.81643  22269775.1994   22269775.1484
      -321.5004
 -17190349.99949 -13380183.06747  19952354.5984   19952352.4694
      2926.1564
  -1406322.76049  -1093520.92447  20083825.2314   20083823.0864
      -948.4224
  -6425630.14547  -4976578.57143  22217490.5594   22217490.3204
      1899.3284
 -10862731.53249  -8452251.07147  19631111.7704   19631109.3834
      1690.9844
  -2923932.51148  -3437413.56045  21453190.6134   21453186.8284
      2156.8134
  -9922927.61348  -7716501.66144  21889465.8874   21889464.2664
      4232.9694
 04  9  8 22 20 59.9960000  0  7G 3G 8G13G10G27G19G28
  -3017240.02646  -3026707.22343  22270708.6994   22270706.3634
      -331.3124
 -17234200.31049 -13414352.13447  19944010.2934   19944008.3054
      2921.3284
  -1392028.63649  -1082382.65747  20086545.6134   20086543.8164
      -956.6724
  -6454034.73047  -4998712.01543  22212086.0514   22212084.8444
      1888.8284
 -10888056.91249  -8471985.15147  19626292.2704   19626289.8834
      1686.5004
  -2956203.96248  -3462560.14445  21447049.6914   21447046.1804
      2146.8444
  -9986377.55948  -7765943.15244  21877391.2234   21877389.8564
      4227.7664
 04  9  8 22 21 14.9960000  0  7G 3G 8G13G10G27G19G28
  -3012187.37347  -3022770.12243  22271671.0354   22271669.9924
      -341.4064
 -17277974.25449 -13448461.69747  19935680.2154   19935678.4344
      2916.1884
  -1377607.06349  -1071145.08347  20089290.5274   20089288.1454
      -965.2034
  -6482274.82447  -5020717.27043  22206711.4884   22206711.3794
      1877.6254
 -10913310.90449  -8491663.57347  19621486.7314   19621484.4064
      1681.6414
  -2988322.03448  -3487587.18246  21440937.7234   21440934.8054
      2136.5784
 -10049746.13448  -7815321.21344  21865332.2234   21865331.4614
      4222.3594
 04  9  8 22 21 29.9960000  0  7G 3G 8G13G10G27G19G28
  -3006989.88247  -3018720.12143  22272660.0274   22272658.2664
      -351.0004
 -17321677.15349 -13482515.89147  19927363.6374   19927361.5904
      2911.4844
  -1363064.00349  -1059812.84947  20092057.8634   20092054.7854
      -973.2814
  -6510356.13547  -5042598.83443  22201368.3794   22201367.0004
      1867.1414
 -10938499.23949  -8511290.84547  19616693.7934   19616690.9384
      1677.4224
  -3020292.29748  -3512499.07746  21434853.8014   21434850.1524
      2126.7344
 -10113038.75948  -7864640.10844  21853287.8244   21853287.3794
      4217.2974
 04  9  8 22 21 44.9960000  0  7G 3G 8G13G10G27G19G28
  -3001646.17147  -3014556.18843  22273676.0904   22273675.0434
      -360.9694
 -17365307.41249 -13516513.48847  19919061.0044   19919058.7114
      2906.4534
  -1348397.96049  -1048384.77147  20094848.0434   20094846.1764
      -981.6874
  -6538276.98047  -5064355.34643  22196055.6604   22196054.3984
      1856.0944
 -10963620.19549  -8530865.61148  19611913.0434   19611910.3524
      1672.6564
  -3052113.01549  -3537294.42646  21428798.7624   21428794.9924
      2116.5474
 -10176253.77449  -7913898.54744  21841259.6994   21841258.1294
      4211.8754
 04  9  8 22 21 59.9960000  0  7G 3G 8G13G10G27G19G28
  -2996153.29447  -3010276.04943  22274721.8714   22274719.8244
      -371.7814
 -17408862.09249 -13550452.18547  19910773.2934   19910771.6484
      2900.5634
  -1333605.94249  -1036858.54747  20097663.6684   20097661.3164
      -990.8754
  -6566034.22647  -5085984.36143  22190773.5354   22190772.2034
      1844.4844
 -10988670.61249  -8550385.42147  19607146.2234   19607143.9814
      1667.1094
  -3083780.97949  -3561970.75845  21422772.4344   21422768.4104
      2105.5634
 -10239387.96149  -7963093.98644  21829245.0434   21829244.0084
      4205.7344
 04  9  8 22 22 14.9960000  0  7G 3G 8G13G10G27G19G28
  -2990507.87047  -3005876.98743  22275796.0904   22275794.5354
      -381.7814
 -17452337.32349 -13584328.99247  19902500.0824   19902498.3674
      2895.3134
  -1318684.63149  -1025231.58047  20100502.5274   20100499.7734
      -999.3594
  -6593624.31347  -5107483.14143  22185523.6294   22185522.5164
      1833.4694
 -11013646.94449  -8569847.50048  19602393.4884   19602391.3564
      1662.2814
  -3115292.46249  -3586525.16545  21416776.1294   21416771.8094
      2095.1414
 -10302437.62048  -8012223.56144  21817247.0354   21817245.3054
      4200.2194
 04  9  8 22 22 29.9960000  0  7G 3G 8G13G10G27G19G28
  -2984711.77247  -3001360.58643  22276898.6134   22276897.2154
      -391.1724
 -17495734.97549 -13618145.35147  19894241.9264   19894239.7584
      2890.7814
  -1303635.91149  -1013505.32247  20103366.2704   20103364.0084
     -1007.3124
  -6621048.84247  -5128852.88743  22180304.8954   22180303.1684
      1823.0314
 -11038550.78049  -8589253.09247  19597654.2384   19597652.3204
      1658.0314
  -3146648.97649  -3610958.77346  21410809.6844   21410805.0554
      2085.5004
 -10365404.28248  -8061288.44744  21805264.5824   21805263.5704
      4195.1724
 04  9  8 22 22 44.9960000  0  7G 3G 8G13G10G27G19G28
  -2978767.55547  -2996728.70143  22278030.1604   22278029.0594
      -400.6874
 -17539056.98449 -13651902.74347  19885997.8634   19885995.9884
      2886.2034
  -1288462.20349  -1001681.66547  20106254.2704   20106253.0664
     -1015.2194
  -6648310.16748  -5150095.47343  22175116.9104   22175115.1954
      1812.5634
 -11063384.29149  -8608603.86847  19592928.9024   19592926.0864
      1653.7974
  -3177852.64849  -3635273.29646  21404871.7234   21404867.1214
      2075.6414
 -10428290.14948  -8110290.38944  21793297.7384   21793296.4224
      4190.2504
 04  9  8 22 22 59.9960000  0  7G 3G 8G13G10G27G19G28
  -2972670.32247  -2991977.64143  22279190.5124   22279189.7384
      -411.2974
 -17582298.43049 -13685597.36748  19877768.6684   19877767.6024
      2880.3444
  -1273158.71449   -989756.89047  20109165.9104   20109163.0004
     -1024.2664
  -6675403.25947  -5171206.96843  22169961.4024   22169960.6094
      1800.7814
 -11088142.52349  -8627896.00347  19588217.3634   19588214.8204
      1648.3134
  -3208898.23049  -3659464.65846  21398963.2234   21398959.8524
      2064.6884
 -10491089.96649  -8159225.28044  21781348.2624   21781346.6564
      4184.0314
 04  9  8 22 23 14.9960000  0  7G 3G 8G13G10G27G19G28
  -2966421.98447  -2987108.83443  22280378.3404   22280377.8834
      -421.4534
 -17625460.67049 -13719230.27848  19869555.8874   19869553.9224
      2874.9534
  -1257727.14049   -977732.30347  20112102.3634   20112100.7114
     -1032.9534
  -6702329.86648  -5192188.73143  22164837.5274   22164836.4064
      1789.6094
 -11112827.11449  -8647130.74247  19583520.2854   19583517.6844
      1643.2974
  -3239787.21548  -3683533.98046  21393084.8954   21393082.2464
      2054.1254
 -10553805.19549  -8208094.24645  21769413.7234   21769412.4144
      4178.2344
 04  9  8 22 23 29.9960000  0  7G 3G 8G13G10G27G19G28
  -2960018.92347  -2982119.46044  22281598.0904   22281596.7384
      -432.2664
 -17668540.02049 -13752798.59947  19861357.9884   19861356.4694
      2869.0634
  -1242163.84549   -965605.09347  20115064.4184   20115062.6254
     -1042.0164
  -6729085.98247  -5213037.68543  22159745.4884   22159744.8914
      1778.0004
 -11137434.10449  -8666305.02148  19578837.5434   19578835.3244
      1637.7194
  -3270515.78148  -3707478.31245  21387238.2624   21387233.8204
      2043.1094
 -10616431.96649  -8256894.30044  21757495.7234   21757495.3984
      4172.0164
 04  9  8 22 23 44.9960000  0  7G 3G 8G13G10G27G19G28
  -2953463.54748  -2977011.38444  22282845.4654   22282844.7344
      -442.0944
 -17711538.46949 -13786303.87847  19853175.7544   19853173.6414
      2864.0004
  -1226471.03549   -953376.95947  20118050.9104   20118048.2344
     -1050.3754
  -6755673.76748  -5233755.43743  22154685.9414   22154685.0164
      1767.0944
 -11161965.52949  -8685420.42347  19574169.2154   19574166.7154
      1633.0784
  -3301085.76349  -3731299.06646  21381420.8484   21381416.8484
      2032.8594
 -10678972.27149  -8305626.97144  21745594.6844   21745593.6604
      4166.6094
 04  9  8 22 23 59.9960000  0  7G 3G 8G13G10G27G19G28
  -2946762.80147  -2971790.01943  22284120.2624   22284119.5864
      -451.7974
 -17754462.59349 -13819751.24248  19845007.4654   19845006.2704
      2858.7194
  -1210655.67149   -941053.31447  20121059.7384   20121057.4774
     -1058.8444
  -6782099.94148  -5254347.25243  22149657.7854   22149656.2544
      1756.0004
 -11186428.19149  -8704482.22947  19569514.2544   19569512.3284
      1628.2344
  -3331503.75848  -3755001.39346  21375632.0124   21375629.0124
      2022.4384
 -10741432.53148  -8354297.26145  21733708.8634   21733707.9144
      4160.9844
 04  9  8 22 24 14.9960000  0  7G 3G 8G13G10G27G19G28
  -2939906.69648  -2966447.60343  22285424.5204   22285423.5084
      -462.0944
 -17797302.33949 -13853132.84948  19836855.5594   19836853.5984
      2853.4064
  -1194707.78549   -928626.42147  20124094.7624   20124092.7034
     -1067.3914
  -6808354.36648  -5274805.22643  22144662.3324   22144661.3094
      1744.7344
 -11210811.72149  -8723482.38447  19564874.1844   19564871.8874
      1623.1414
  -3361759.57548  -3778577.33945  21369875.5744   21369870.9494
      2011.8914
 -10803802.68349  -8402897.34845  21721840.4344   21721839.4494
      4155.2194
 04  9  8 22 24 29.9960000  0  7G 3G 8G13G10G27G19G28
  -2932894.72348  -2960983.75843  22286759.5744   22286758.3444
      -472.5004
 -17840056.87249 -13886448.05847  19828719.3014   19828717.9064
      2847.5474
  -1178626.89949   -916095.87547  20127155.2464   20127152.3444
     -1076.3284
  -6834436.28248  -5295128.81043  22139697.9494   22139696.9694
      1733.1884
 -11235115.47349  -8742420.36647  19560248.8564   19560246.7464
      1617.6254
  -3391852.23948  -3802026.15046  21364149.1134   21364145.1564
      2000.7814
 -10866081.82649  -8451426.53044  21709988.9884   21709987.8014
      4148.9064
 04  9  8 22 24 44.9960000  0  7G 3G 8G13G10G27G19G28
  -2925727.43748  -2955398.86744  22288122.9964   22288122.4184
      -482.8124
 -17882726.45649 -13919697.08347  19820599.5434   19820597.4144
      2841.9534
  -1162413.42649   -903462.01347  20130240.4964   20130238.1994
     -1085.0944
  -6860345.95148  -5315318.17243  22134767.6134   22134766.7154
      1721.6414
 -11259339.65849  -8761296.35147  19555639.6214   19555637.4574
      1612.5474
  -3421781.99448  -3825348.01146  21358452.9884   21358449.9924
      1990.0944
 -10928269.99749  -8499884.79745  21698155.3874   21698153.8594
      4143.0474
 04  9  8 22 24 59.9960000  0  7G 3G 8G13G10G27G19G28
  -2918406.85248  -2949694.48143  22289516.5904   22289516.0434
      -493.4694
 -17925313.01449 -13952881.40848  19812495.9734   19812494.0004
      2836.0314
  -1146069.38749   -890726.42947  20133350.3634   20133348.6994
     -1094.2814
  -6886085.26348  -5335374.77743  22129870.6994   22129868.5124
      1709.9844
 -11283486.09749  -8780111.76547  19551044.6604   19551042.4964
      1606.9224
  -3451550.46048  -3848544.22846  21352788.5354   21352784.9844
      1978.9224
 -10990368.99649  -8548273.60044  21686338.0744   21686336.3954
      4136.6884
 04  9  8 22 25 14.9960000  0  7G 3G 8G13G10G27G19G28
  -2910928.67548  -2943867.40543  22290938.7074   22290937.2584
      -503.6254
 -17967811.84049 -13985997.37748  19804408.4734   19804407.3094
      2830.3594
  -1129590.44149   -877885.69947  20136486.0904   20136483.6524
     -1103.1094
  -6911649.73548  -5355295.14443  22125005.6994   22125003.9224
      1698.5474
 -11307550.32449  -8798863.11947  19546465.6064   19546463.2814
      1601.5004
  -3481153.01448  -3871611.13546  21347155.2704   21347151.5044
      1967.9694
 -11052374.25749  -8596589.34244  21674538.8404   21674537.4924
      4130.5944
 04  9  8 22 25 29.9960000  0  7G 3G 8G13G10G27G19G28
  -2903290.72948  -2937915.74443  22292392.2074   22292391.9654
      -514.4064
 -18010220.47649 -14019043.05548  19796338.3244   19796336.8874
      2824.3754
  -1112974.31349   -864938.07847  20139648.7074   20139646.0474
     -1112.1874
  -6937036.85547  -5375077.32743  22120173.1134   22120172.8954
      1686.7194
 -11331529.73049  -8817548.37147  19541902.2384   19541900.2344
      1595.9534
  -3510587.17848  -3894546.83746  21341554.0984   21341550.3634
      1956.7814
 -11114283.09149  -8644829.95544  21662757.9884   21662756.7074
      4124.1724
 04  9  8 22 25 44.9960000  0  7G 3G 8G13G10G27G19G28
  -2895487.79047  -2931835.54443  22293877.1994   22293876.6724
      -525.8284
 -18052533.21949 -14052014.02147  19788286.7074   19788284.3914
      2817.5634
  -1096215.84249   -851879.55247  20142837.5744   20142835.5634
     -1122.0164
  -6962241.27847  -5394717.13243  22115377.9264   22115376.9814
      1674.1254
 -11355418.84649  -8836163.26547  19537356.0594   19537353.8564
      1589.4844
  -3539847.29648  -3917346.91246  21335986.5274   21335982.0554
      1944.7194
 -11176089.91549  -8692991.09345  21650995.6914   21650994.7894
      4116.9844
 04  9  8 22 25 59.9960000  0  7G 3G 8G13G10G27G19G28
  -2887516.47748  -2925624.17743  22295394.7314   22295393.4814
      -536.8284
 -18094746.52649 -14084907.48747  19780253.4414   19780251.6214
      2811.1094
  -1079311.45049   -838707.29147  20146054.3564   20146051.7774
     -1131.6414
  -6987259.35247  -5414211.70743  22110616.6524   22110615.5864
      1661.8134
 -11379214.05449  -8854704.98547  19532828.3794   19532826.2194
      1583.3914
  -3568929.73148  -3940008.52746  21330452.1994   21330447.9024
      1933.1254
 -11237790.97849  -8741069.79945  21639254.9734   21639253.6844
      4110.0944
 04  9  8 22 26 14.9960000  0  7G 3G 8G13G10G27G19G28
  -2879382.98648  -2919286.35143  22296941.9964   22296940.9694
      -548.0784
 -18136866.43249 -14117728.20148  19772238.3244   19772236.4814
      2804.5314
  -1062267.33248   -825426.18147  20149297.8094   20149295.4774
     -1141.2194
  -7012097.02248  -5433565.74443  22105891.2934   22105890.0044
      1649.4224
 -11402921.12749  -8873178.02747  19528316.8714   19528314.6644
      1577.2194
  -3597840.19348  -3962536.12646  21324949.9344   21324946.1764
      1921.2664
 -11299392.17849  -8789070.70045  21627532.1134   21627531.6374
      4103.0784
 04  9  8 22 26 29.9960000  0  7G 3G 8G13G10G27G19G28
  -2871086.24848  -2912821.38243  22298520.6524   22298520.0944
      -559.0944
 -18178891.33049 -14150474.86748  19764241.4024   19764239.4814
      2797.8594
  -1045082.47949   -812035.40247  20152567.8954   20152566.4304
     -1150.9224
  -7036753.07848  -5452778.26443  22101198.5904   22101197.1844
      1637.1254
 -11426538.92949  -8891581.51647  19523822.5984   19523820.3164
      1570.9534
  -3626577.24448  -3984928.61646  21319481.3324   21319478.5004
      1909.4844
 -11360892.08749  -8836992.67745  21615829.2624   21615828.0204
      4096.0634
 04  9  8 22 26 44.9960000  0  7G 3G 8G13G10G27G19G28
  -2862623.06446  -2906226.77943  22300130.2234   22300131.1844
      -569.9694
 -18220817.98549 -14183144.97747  19756263.3954   19756261.1134
      2791.6724
  -1027753.60749   -798532.40247  20155865.6684   20155862.8914
     -1160.2814
  -7061224.01548  -5471846.54443  22096542.7774   22096540.8364
      1625.0004
 -11450063.82249  -8909912.60047  19519345.7934   19519343.4344
      1564.9844
  -3655137.32947  -4007183.22746  21314047.0204   21314043.4454
      1897.8134
 -11422287.19349  -8884832.97145  21604145.8564   21604145.1334
      4089.2664
 04  9  8 22 26 59.9960000  0  7G 3G 8G13G10G27G19G28
  -2853997.01547  -2899505.14943  22301772.9414   22301772.3204
      -580.1564
 -18262649.53349 -14215740.98948  19748302.7464   19748300.7624
      2785.8754
  -1010284.01948   -784919.74447  20159189.8794   20159188.2504
     -1169.0944
  -7085513.14048  -5490773.12143  22091920.0984   22091918.9144
      1613.5784
 -11473499.06949  -8928173.83547  19514886.2704   19514884.0004
      1559.7034
  -3683523.54348  -4029302.32646  21308644.9964   21308641.9064
      1886.8914
 -11483580.59048  -8932594.02045  21592482.2854   21592481.0514
      4083.1094
 04  9  8 22 27 14.9960000  0  7G 3G 8G13G10G27G19G28
  -2845213.54148  -2892660.85343  22303444.5594   22303443.3164
      -590.6724
 -18304391.05649 -14248266.84647  19740359.6914   19740357.7854
      2779.9384
   -992679.27349   -771201.77147  20162540.0044   20162537.4574
     -1178.0164
  -7109625.73448  -5509562.14743  22087331.4884   22087330.2584
      1601.7664
 -11496849.94149  -8946369.30147  19510442.8484   19510440.7384
      1554.0634
  -3711741.09348  -4051290.00146  21303275.4574   21303272.0554
      1875.7194
 -11544777.33148  -8980279.75045  21580836.2704   21580835.3984
      4076.7194
 04  9  8 22 27 29.9960000  0  7G 3G 8G13G10G27G19G28
  -2836264.99048  -2885688.04543  22305147.2624   22305145.6724
      -601.9224
 -18346034.85949 -14280716.55447  19732434.8954   19732432.1804
      2773.1724
   -974931.61849   -757372.44347  20165917.4964   20165915.3204
     -1187.7814
  -7133554.00448  -5528207.56943  22082778.2544   22082776.1134
      1589.1724
 -11520108.53149  -8964492.88847  19506016.6604   19506014.7034
      1547.6094
  -3739781.98348  -4073140.05745  21297939.7074   21297935.4844
      1863.6094
 -11605869.47249  -9027883.97445  21569212.2774   21569210.4844
      4069.4534
 04  9  8 22 27 44.9960000  0  7G 3G 8G13G10G27G19G28
  -2827154.34447  -2878588.84643  22306881.3484   22306880.5704
      -612.5004
 -18387583.33049 -14313091.98348  19724528.7314   19724526.6644
      2767.0474
   -957043.90248   -743433.98647  20169320.7774   20169318.9844
     -1196.7974
  -7157300.54248  -5546711.36743  22078260.1604   22078257.9694
      1577.3754
 -11543277.32849  -8982546.48947  19501608.0904   19501605.4844
      1541.8754
  -3767648.82548  -4094854.46046  21292637.1994   21292633.2854
      1852.3284
 -11666859.57949  -9075408.69845  21557606.0354   21557604.3984
      4062.9064
 04  9  8 22 27 59.9960000  0  7G 3G 8G13G10G27G19G28
  -2817884.34247  -2871365.44643  22308644.2464   22308644.6844
      -623.2974
 -18429038.83349 -14345394.96448  19716640.0664   19716638.2974
      2760.6724
   -939018.88348   -729388.52847  20172751.2854   20172749.2814
     -1206.1254
  -7180867.88148  -5565075.54243  22073774.4574   22073773.7664
      1565.2034
 -11566358.87749  -9000532.11847  19497215.8164   19497213.6374
      1535.9384
  -3795343.90148  -4116435.04046  21287366.7154   21287362.7424
      1840.6564
 -11727750.01849  -9122855.76745  21546018.0124   21546016.8244
      4056.1254
 04  9  8 22 28 14.9960000  0  7G 3G 8G13G10G27G19G28
  -2808455.14848  -2864018.02743  22310439.9414   22310437.9454
      -634.2504
 -18470401.40349 -14377625.54548  19708769.7234   19708767.0784
      2754.0784
   -920856.79949   -715236.28347  20176207.3404   20176205.2774
     -1215.7504
  -7204256.09348  -5583300.10943  22069323.4494   22069323.2424
      1552.9384
 -11589353.16649  -9018449.75147  19492840.2624   19492837.9024
      1529.6564
  -3822867.19148  -4137881.73746  21282128.9814   21282125.5634
      1828.8284
 -11788540.65648  -9170225.06445  21534450.1684   21534449.5164
      4049.0634
 04  9  8 22 28 29.9960000  0  7G 3G 8G13G10G27G19G28
  -2798873.70047  -2856551.98943  22312262.6064   22312261.8564
      -643.7814
 -18511677.70349 -14409788.88247  19700914.6134   19700911.8834
      2748.9694
   -902564.57049   -700982.60947  20179688.3564   20179686.3874
     -1223.7814
  -7227472.04548  -5601390.45243  22064905.1604   22064904.7704
      1542.0784
 -11612266.79949  -9036304.52247  19488479.7464   19488477.4734
      1524.9224
  -3850225.29348  -4159199.73246  21276923.0664   21276918.9884
      1818.4844
 -11849238.14648  -9217521.76045  21522899.8164   21522898.8284
      4043.3594
 04  9  8 22 28 44.9960000  0  7G 3G 8G13G10G27G19G28
  -2789135.99847  -2848964.16643  22314115.1844   22314115.1564
      -654.0944
 -18552863.45049 -14441881.65648  19693076.9574   19693074.7894
      2743.0164
   -884137.99348   -686624.26547  20183194.2934   20183193.1684
     -1232.6254
  -7250511.32748  -5619343.14443  22060521.4574   22060520.6214
      1530.4224
 -11635095.56149  -9054093.15947  19484135.5664   19484133.3564
      1519.3754
  -3877413.79148  -4180385.54646  21271749.3014   21271745.3164
      1807.2344
 -11909838.14349  -9264742.49045  21511367.8484   21511367.1254
      4037.1254
 04  9  8 22 28 59.9960000  0  7G 3G 8G13G10G27G19G28
  -2779236.45748  -2841250.21043  22315999.5434   22315998.7464
      -665.2504
 -18593952.71349 -14473899.27348  19685257.9574   19685256.2774
      2736.1564
   -865571.33048   -672156.74446  20186727.4024   20186725.0354
     -1242.3284
  -7273368.09148  -5637153.60943  22056172.5434   22056170.9614
      1517.8444
 -11657833.38849  -9071810.95547  19479808.7704   19479806.6994
      1512.9534
  -3904426.59747  -4201434.48845  21266608.3404   21266605.2624
      1795.1414
 -11970334.51649  -9311882.50045  21499855.8164   21499854.9384
      4029.7034
 04  9  8 22 29 14.9960000  0  7G 3G 8G13G10G27G19G28
  -2769180.78948  -2833414.67843  22317913.1294   22317911.9814
      -675.8594
 -18634951.04949 -14505846.02148  19677456.2464   19677454.4414
      2730.0004
   -846870.64449   -657584.80447  20190286.5744   20190284.6804
     -1251.3754
  -7296048.12848  -5654826.39143  22051856.8014   22051855.3834
      1505.8284
 -11680485.98549  -9089462.33047  19475498.2854   19475495.5634
      1507.1254
  -3931269.41447  -4222350.93245  21261500.0824   21261497.3364
      1783.7034
 -12030732.83549  -9358946.09644  21488362.0664   21488360.8054
      4023.1094
 04  9  8 22 29 29.9960000  0  7G 3G 8G13G10G27G19G28
  -2758972.14648  -2825459.89143  22319855.9654   22319854.5784
      -685.0314
 -18675861.22949 -14537724.07148  19669671.1914   19669669.3834
      2725.1414
   -828038.76948   -642910.63047  20193869.4574   20193868.5164
     -1259.1414
  -7318554.16648  -5672363.55543  22047573.3634   22047572.2544
      1495.2664
 -11703056.05349  -9107049.38447  19471203.0274   19471200.8324
      1502.5944
  -3957944.74348  -4243136.89646  21256424.5984   21256420.6094
      1773.4384
 -12091035.64948  -9405935.26345  21476886.7384   21476885.5554
      4017.7194
 04  9  8 22 29 44.9960000  0  7G 3G 8G13G10G27G19G28
  -2748608.36848  -2817384.24743  22321828.0274   22321826.7974
      -696.0474
 -18716680.69249 -14569531.44847  19661903.3954   19661901.7854
      2718.2814
   -809073.45149   -628132.49047  20197478.9264   20197477.8054
     -1268.7664
  -7340883.73548  -5689763.20143  22043325.4494   22043323.8284
      1482.7034
 -11725541.01049  -9124570.14247  19466924.0274   19466922.0204
      1496.2194
  -3984450.19247  -4263790.49946  21251380.8324   21251376.8014
      1761.2974
 -12151240.46749  -9452848.08745  21465430.8244   21465428.6484
      4010.3444
 04  9  8 22 29 59.9960000  0  7G 3G 8G13G10G27G19G28
  -2738082.19147  -2809182.07543  22323831.0514   22323830.8714
      -706.7504
 -18757401.81349 -14601262.18547  19654154.3794   19654152.6254
      2711.7664
   -789967.43349   -613244.70147  20201114.5434   20201111.8984
     -1278.0784
  -7363029.43548  -5707019.59143  22039110.1374   22039108.8524
      1470.5634
 -11747933.43049  -9142018.77047  19462663.3954   19462661.5434
      1490.0634
  -4010778.10248  -4284305.72846  21246371.0124   21246367.2774
      1749.5944
 -12211339.78549  -9499678.68445  21453994.2234   21453992.6764
      4003.4384
 04  9  8 22 30 14.9960000  0  7G 3G 8G13G10G27G19G28
  -2727400.67347  -2800858.79443  22325863.4264   22325862.3564
      -717.3754
 -18798031.25149 -14632921.48448  19646423.1844   19646420.4304
      2705.5944
   -770727.79749   -598252.80647  20204775.8634   20204774.5744
     -1287.1254
  -7384998.09648  -5724138.01143  22034930.7934   22034929.1484
      1458.6884
 -11770240.09549  -9159400.59447  19458418.5204   19458416.1914
      1484.2504
  -4036935.20848  -4304687.88546  21241392.9884   21241389.3874
      1738.1414
 -12271340.24148  -9546432.24345  21442576.2704   21442574.6644
      3996.7664
 04  9  8 22 30 29.9960000  0  7G 3G 8G13G10G27G19G28
  -2716566.25047  -2792416.41243  22327925.6844   22327923.5124
      -726.9844
 -18838571.22549 -14664511.06947  19638707.9734   19638706.2894
      2700.1884
   -751356.71049   -583158.48347  20208462.7544   20208460.2314
     -1295.3594
  -7406791.87547  -5741120.21043  22030781.7934   22030781.2934
      1447.5314
 -11792463.04249  -9176717.18047  19454189.8794   19454187.5664
      1479.1724
  -4062923.41147  -4324938.42745  21236447.4574   21236443.4304
      1727.2814
 -12331243.82049  -9593110.32045  21431177.3564   21431175.7624
      3990.7504
 04  9  8 22 30 44.9960000  0  7G 3G 8G13G10G27G19G28
  -2705575.31548  -2783852.05243  22330017.4884   22330016.8564
      -738.5004
 -18879018.03749 -14696028.06748  19631011.4574   19631009.7974
      2692.7664
   -731850.77549   -567959.07047  20212173.1914   20212172.7384
     -1305.4534
  -7428407.18948  -5757963.32843  22026668.6214   22026668.1174
      1434.4694
 -11814598.51949  -9193965.59447  19449977.7464   19449975.0004
      1472.1884
  -4088738.98047  -4345054.43146  21231535.6764   21231531.6064
      1714.6414
 -12391046.69849  -9639709.93745  21419796.1684   21419795.5984
      3982.8594
 04  9  8 22 30 59.9960000  0  7G 3G 8G13G10G27G19G28
  -2694411.90248  -2775153.31643  22332141.4414   22332139.8834
      -750.1254
 -18919355.56049 -14727459.89747  19623335.8484   19623333.7114
      2685.3594
   -712193.73249   -552641.92447  20215914.4884   20215912.5864
     -1315.5944
  -7449827.77148  -5774654.69043  22022593.8634   22022592.4264
      1421.4064
 -11836630.12349  -9211133.09647  19445785.0274   19445782.7624
      1465.0784
  -4114365.51148  -4365023.13346  21226658.6374   21226654.5664
      1702.0164
 -12450732.48349  -9686218.30645  21408438.7464   21408437.7154
      3975.0314
 04  9  8 22 31 14.9960000  0  7G 3G 8G13G10G27G19G28
  -2683081.95648  -2766324.78643  22334297.7464   22334295.7934
      -760.1254
 -18959589.06249 -14758810.65748  19615679.5514   19615677.4844
      2679.5944
   -692391.68549   -537211.76647  20219682.5824   20219680.9024
     -1324.2504
  -7471059.43048  -5791198.84143  22018553.3564   22018551.8874
      1409.9224
 -11858563.61449  -9228224.11347  19441611.3404   19441609.0394
      1459.7194
  -4139808.71748  -4384849.01246  21221816.9414   21221813.4654
      1690.7504
 -12510306.82649  -9732639.84245  21397102.1134   21397100.9304
      3968.6254
 04  9  8 22 31 29.9960000  0  7G 3G 8G13G10G27G19G28
  -2671592.03348  -2757371.56743  22336483.7934   22336483.3284
      -771.2664
 -18999724.70949 -14790085.19248  19608041.4184   19608039.3014
      2672.4384
   -672451.02049   -521673.61447  20223477.9184   20223475.9964
     -1333.9374
  -7492108.33248  -5807600.59643  22014547.7464   22014546.1334
      1397.1724
 -11880405.05349  -9245243.41847  19437454.7934   19437452.4734
      1453.0474
  -4165074.68548  -4404536.78946  21217008.7314   21217005.1804
      1678.5164
 -12569775.63149  -9778979.13545  21385786.0204   21385784.2234
      3961.0634
 04  9  8 22 31 44.9960000  0  7G 3G 8G13G10G27G19G28
  -2659934.48948  -2748287.76943  22338702.7314   22338700.3564
      -782.7194
 -19039754.66249 -14821277.35947  19600424.1294   19600421.9184
      2665.1254
   -652364.03249   -506021.42747  20227299.9104   20227297.8674
     -1344.0004
  -7512966.69348  -5823853.87543  22010578.2384   22010577.4734
      1384.1884
 -11902146.61449  -9262184.89647  19433317.4104   19433314.7424
      1446.1414
  -4190155.46348  -4424080.26046  21212235.8014   21212231.8594
      1665.8594
 -12629131.13349  -9825230.14545  21374490.9344   21374489.7034
      3953.2664
 04  9  8 22 31 59.9960000  0  7G 3G 8G13G10G27G19G28
  -2648108.11547  -2739072.50743  22340952.3094   22340951.4924
      -794.1414
 -19079677.53649 -14852386.09148  19592827.3634   19592825.6684
      2657.9224
   -632129.45049   -490254.24946  20231149.8404   20231149.0164
     -1353.9224
  -7533633.12748  -5839957.58943  22006644.8094   22006644.4614
      1371.3284
 -11923786.81849  -9279047.40247  19429199.9734   19429197.4924
      1439.2344
  -4215049.44448  -4443478.13546  21207499.0664   21207494.7504
      1653.3284
 -12688371.67149  -9871391.56745  21363217.1064   21363215.7314
      3945.5164
 04  9  8 22 32 14.9960000  0  7G 3G 8G13G10G27G19G28
  -2636110.13347  -2729723.39943  22343235.8794   22343234.9264
      -805.8284
 -19119489.89849 -14883408.69648  19585251.2384   19585249.9384
      2650.2664
   -611744.38649   -474369.80447  20235029.7854   20235027.0904
     -1364.2814
  -7554104.49448  -5855909.26843  22002750.4654   22002748.6024
      1357.9844
 -11945322.50549  -9295828.44947  19425101.4964   19425099.7854
      1431.9694
  -4239753.41848  -4462727.98246  21202798.0984   21202794.9844
      1640.3754
 -12747493.96449  -9917460.83545  21351966.5124   21351965.8954
      3937.2814
 04  9  8 22 32 29.9960000  0  7G 3G 8G13G10G27G19G28
  -2623944.25248  -2720243.52243  22345551.6914   22345550.5164
      -816.9064
 -19159195.34049 -14914347.99647  19577695.8564   19577693.5864
      2643.1094
   -591212.55449   -458370.98647  20238936.6294   20238934.8524
     -1373.9844
  -7574384.34047  -5871711.76043  21998890.0824   21998889.5634
      1345.1564
 -11966757.07849  -9312530.71247  19421022.2464   19421020.1454
      1425.3134
  -4264270.78548  -4481832.42745  21198132.4884   21198128.6484
      1628.0164
 -12806501.43849  -9963440.64145  21340738.5204   21340736.9534
      3929.7194
 04  9  8 22 32 44.9960000  0  7G 3G 8G13G10G27G19G28
  -2611604.85947  -2710628.40042  22347898.9264   22347897.6994
      -827.8594
 -19198788.01549 -14945199.41948  19570161.3714   19570159.1684
      2636.2974
   -570528.31749   -442253.43747  20242872.6134   20242871.2194
     -1383.4374
  -7594466.86347  -5887360.52843  21995069.5744   21995067.6374
      1332.8594
 -11988084.61749  -9329149.57847  19416964.3564   19416961.8014
      1418.7814
  -4288595.51448  -4500786.78346  21193504.2934   21193499.2854
      1615.7664
 -12865388.11049 -10009326.33045  21329532.4814   21329530.9694
      3922.3134
 04  9  8 22 32 59.9960000  0  7G 3G 8G13G10G27G19G28
  -2599097.73947  -2700882.62043  22350279.3404   22350277.7704
      -839.4064
 -19238273.35649 -14975967.23147  19562647.4574   19562645.3244
      2628.7344
   -549697.23049   -426021.42147  20246837.0274   20246834.3754
     -1393.6254
  -7614357.81648  -5902859.90743  21991284.4024   21991282.8134
      1319.6094
 -12009310.50249  -9345689.22947  19412924.7544   19412922.3594
      1411.6724
  -4312733.14848  -4519595.32945  21188909.6684   21188907.2624
      1602.9694
 -12924159.42649 -10055122.13445  21318348.7544   21318347.0394
      3914.2194
 04  9  8 22 33 14.9960000  0  7G 3G 8G13G10G27G19G28
  -2586415.83547  -2691000.61443  22352692.3564   22352691.3674
      -850.7974
 -19277643.91649 -15006645.57648  19555155.4884   19555154.0234
      2621.3754
   -528712.24149   -409669.50647  20250830.6524   20250828.7854
     -1403.6414
  -7634049.66448  -5918204.23143  21987536.9734   21987535.7314
      1306.6564
 -12030427.42549  -9362143.97947  19408906.5274   19408904.2274
      1404.7034
  -4336676.31048  -4538252.31345  21184354.6684   21184350.2774
      1590.2504
 -12982807.96049 -10100822.25545  21307188.0514   21307186.6064
      3906.3444
 04  9  8 22 33 29.9960000  0  7G 3G 8G13G10G27G19G28
  -2573558.25948  -2680981.77543  22355139.6294   22355138.6524
      -863.0784
 -19316898.43449 -15037233.49147  19547685.8014   19547684.2154
      2613.0944
   -507572.59849   -393197.07547  20254853.3324   20254851.0824
     -1414.5004
  -7653541.61048  -5933392.73843  21983828.0984   21983826.8204
      1292.7194
 -12051434.45249  -9378513.08147  19404908.8244   19404906.9384
      1396.7814
  -4360423.84948  -4556756.86646  21179835.3164   21179831.2624
      1576.6254
 -13041332.45949 -10146425.70945  21296051.0824   21296049.9574
      3897.4694
 04  9  8 22 33 44.9960000  0  7G 3G 8G13G10G27G19G28
  -2560532.70947  -2670831.96043  22357617.0204   22357616.9844
      -873.7504
 -19356044.31549 -15067736.77548  19540236.3094   19540234.4774
      2606.2664
   -486285.97249   -376610.11447  20258903.8714   20258902.2384
     -1423.9374
  -7672840.97548  -5948431.24143  21980154.2384   21980153.8054
      1280.3284
 -12072338.59049  -9394802.02347  19400930.9574   19400928.7704
      1390.3134
  -4383983.04248  -4575114.66946  21175351.5514   21175348.3954
      1564.4384
 -13099740.22849 -10191938.21545  21284936.7154   21284935.1684
      3890.0634
 04  9  8 22 33 59.9960000  0  7G 3G 8G13G10G27G19G28
  -2547335.65248  -2660548.54843  22360128.9104   22360127.7504
      -885.1414
 -19395077.54549 -15098152.28247  19532808.9264   19532806.6724
      2598.8444
   -464848.65548   -359905.72646  20262982.8014   20262980.8014
     -1433.8284
  -7691944.08247  -5963316.77043  21976519.7854   21976518.8794
      1267.2974
 -12093136.23949  -9411007.97747  19396973.1134   19396971.4304
      1383.2504
  -4407350.01048  -4593322.67046  21170905.6134   21170901.1454
      1551.5944
 -13158027.38849 -10237356.75045  21273844.9104   21273843.6844
      3882.0634
 04  9  8 22 34 14.9960000  0  7G 3G 8G13G10G27G19G28
  -2533969.73647  -2650133.55143  22362672.5044   22362671.8014
      -897.4064
 -19434000.65049 -15128481.96148  19525401.6994   19525399.8134
      2590.4384
   -443263.26949   -343085.95947  20267090.9884   20267089.8364
     -1444.7344
  -7710853.47248  -5978051.33943  21972921.9734   21972920.4774
      1253.3754
 -12113829.63149  -9427132.71047  19393035.5514   19393033.3834
      1375.3444
  -4430527.02448  -4611382.68846  21166495.5514   21166491.2624
      1538.0004
 -13216196.19449 -10282683.05845  21262775.6764   21262774.2624
      3873.1724
 04  9  8 22 34 29.9960000  0  7G 3G 8G13G10G27G19G28
  -2520430.83447  -2639583.80243  22365248.9024   22365247.8484
      -908.4374
 -19472809.16049 -15158722.36548  19518016.6374   19518014.5514
      2583.2974
   -421525.59748   -326147.55146  20271227.6214   20271224.8564
     -1454.3754
  -7729564.66248  -5992631.50343  21969360.6454   21969360.2734
      1240.6564
 -12134414.37349  -9443172.78047  19389118.2934   19389116.2854
      1368.6094
  -4453509.65048  -4629291.23146  21162121.7384   21162117.6954
      1525.6414
 -13274242.06149 -10327913.58145  21251729.8714   21251729.1254
      3865.4694
 04  9  8 22 34 44.9960000  0  7G 3G 8G13G10G27G19G28
  -2506723.15947  -2628902.53343  22367856.6604   22367856.5124
      -920.0004
 -19511507.20849 -15188876.67648  19510653.1214   19510650.8794
      2575.6564
   -399639.85449   -309093.72847  20275392.1844   20275390.2384
     -1464.5944
  -7748081.76147  -6007060.40243  21965837.4814   21965836.4264
      1227.5474
 -12154894.34449  -9459131.20047  19385221.3634   19385219.0314
      1361.3284
  -4476301.80448  -4647051.33546  21157785.1294   21157780.8324
      1512.6094
 -13332169.00249 -10373051.41945  21240706.7854   21240705.3094
      3857.3444
 04  9  8 22 34 59.9960000  0  7G 3G 8G13G10G27G19G28
  -2492846.87748  -2618089.83743  22370497.9574   22370496.7424
      -930.8594
 -19550094.35049 -15218944.56647  19503310.2934   19503307.8094
      2568.6724
   -377606.03249   -291924.54447  20279585.1454   20279582.9774
     -1474.0314
  -7766404.66048  -6021337.99143  21962350.3874   21962349.0084
      1214.8594
 -12175269.36449  -9475007.82647  19381343.5274   19381341.7774
      1354.6094
  -4498903.11348  -4664662.74046  21153483.6454   21153480.2584
      1500.2194
 -13389976.59549 -10418096.26045  21229706.4414   21229705.2584
      3849.7814
 04  9  8 22 35 14.9960000  0  7G 3G 8G13G10G27G19G28
  -2478804.38348  -2607147.67043  22373169.9884   22373168.6334
      -942.0314
 -19588572.62449 -15248927.64848  19495987.5514   19495985.8984
      2561.2974
   -355426.47148   -274641.77746  20283805.1214   20283802.7624
     -1483.8284
  -7784535.55848  -6035466.01543  21958900.5744   21958899.0234
      1202.0474
 -12195541.55749  -9490804.35347  19377486.2774   19377483.9734
      1347.7974
  -4521315.77247  -4682127.15745  21149218.0274   21149214.6884
      1487.6564
 -13447667.01249 -10463049.79145  21218727.9414   21218726.7704
      3841.8594
 04  9  8 22 35 29.9960000  0  7G 3G 8G13G10G27G19G28
  -2464595.72148  -2596075.95843  22375874.6294   22375873.1564
      -952.3124
 -19626941.78149 -15278825.67648  19488686.5664   19488684.4184
      2554.7034
   -333101.13349   -257245.43347  20288054.6844   20288052.8134
     -1492.8124
  -7802474.17847  -6049444.14643  21955486.4884   21955485.6254
      1189.9384
 -12215710.54749  -9506520.43947  19373648.1684   19373646.0634
      1341.5314
  -4543539.31247  -4699444.16246  21144989.3094   21144985.8594
      1475.6724
 -13505239.87749 -10507911.72445  21207772.3954   21207771.3364
      3834.6414
 04  9  8 22 35 44.9960000  0  7G 3G 8G13G10G27G19G28
  -2450225.19648  -2584878.13643  22378609.1994   22378608.1994
      -962.8124
 -19665205.67349 -15308641.69748  19481404.9964   19481403.0474
      2548.0474
   -310634.37748   -239738.88247  20292329.1684   20292326.7504
     -1501.8124
  -7820224.69848  -6063275.71543  21952108.6604   21952107.5004
      1177.7814
 -12235780.29549  -9522159.21347  19369829.1134   19369826.6604
      1335.2974
  -4565577.78047  -4716616.99245  21140795.1914   21140791.2034
      1463.7344
 -13562699.04849 -10552685.07545  21196837.9344   21196836.8014
      3827.4534
 04  9  8 22 35 59.9960000  0  7G 3G 8G13G10G27G19G28
  -2435695.09348  -2573556.00643  22381373.8484   22381372.5554
      -973.8444
 -19703366.26749 -15338377.21948  19474143.4654   19474140.8984
      2540.7344
   -288028.41849   -222123.87347  20296631.7624   20296630.1174
     -1511.5624
  -7837789.11947  -6076962.29043  21948766.6134   21948765.2114
      1164.8594
 -12255752.76349  -9537722.16847  19366028.1604   19366026.3794
      1328.3914
  -4587433.20248  -4733647.16945  21136636.7934   21136632.6454
      1451.0474
 -13620046.39949 -10597371.29045  21185925.4654   21185924.1764
      3819.5784
 04  9  8 22 36 14.9960000  0  7G 3G 8G13G10G27G19G28
  -2421005.16947  -2562109.35543  22384168.3404   22384167.6994
      -984.2504
 -19741423.17549 -15368031.94347  19466900.7934   19466899.3284
      2534.0634
   -265283.00548   -204400.19847  20300959.3714   20300957.2274
     -1520.6254
  -7855167.19048  -6090503.64843  21945459.8094   21945458.5514
      1152.6884
 -12275627.51849  -9553208.99747  19362246.5904   19362244.0704
      1322.1094
  -4609105.01847  -4750534.28945  21132512.0744   21132509.0514
      1439.0474
 -13677281.53549 -10641970.06245  21175033.8714   21175032.6374
      3812.2974
 04  9  8 22 36 29.9960000  0  7G 3G 8G13G10G27G19G28
  -2406153.92447  -2550536.97643  22386994.7704   22386993.8134
      -995.6094
 -19779374.41949 -15397604.34448  19459679.6604   19459677.4534
      2526.3284
   -242396.45648   -186566.53846  20305314.6994   20305312.5164
     -1530.6564
  -7872357.23048  -6103898.48043  21942188.4814   21942186.9884
      1139.5784
 -12295402.68249  -9568618.22247  19358483.1214   19358481.1064
      1314.8444
  -4630591.28847  -4767276.84446  21128423.8714   21128420.1174
      1425.9694
 -13734402.42749 -10686479.82345  21164164.9104   21164162.9384
      3804.0164
 04  9  8 22 36 44.9960000  0  7G 3G 8G13G10G27G19G28
  -2391152.84248  -2538847.80043  22389849.9814   22389849.8984
     -1005.3444
 -19817231.13649 -15427103.07448  19452475.6604   19452473.6064
      2520.2504
   -219380.27448   -168631.89147  20309694.4104   20309693.0824
     -1539.0004
  -7889370.33448  -6117155.48743  21938950.9104   21938949.6724
      1128.0164
 -12315089.37549  -9583958.49847  19354737.1454   19354734.7934
      1309.2034
  -4651903.20547  -4783883.51146  21124368.4814   21124365.2424
      1414.6724
 -13791420.21749 -10730909.23145  21153314.0904   21153313.1844
      3797.4694
 04  9  8 22 36 59.9960000  0  7G 3G 8G13G10G27G19G28
  -2376001.77448  -2527041.82543  22392733.2464   22392731.8564
     -1014.7664
 -19854992.75749 -15456527.71048  19445290.0434   19445287.6954
      2514.6724
   -196234.23148   -150596.04646  20314098.8094   20314096.6374
     -1547.0944
  -7906206.30948  -6130274.40943  21935747.7384   21935745.7464
      1116.8284
 -12334687.11249  -9599229.46548  19351007.9344   19351005.4734
      1303.8444
  -4673040.15248  -4800353.86146  21120345.6994   21120342.7274
      1403.5944
 -13848334.27249 -10775257.81745  21142483.2544   21142482.3834
      3791.1414
 04  9  8 22 37 14.9960000  0  7G 3G 8G13G10G27G19G28
  -2360699.27947  -2515117.82843  22395645.3874   22395642.6804
     -1025.4064
 -19892657.57949 -15485876.91848  19438122.5204   19438120.4494
      2507.5474
   -172956.78549   -132457.78946  20318528.0514   20318526.9024
     -1556.3754
  -7922863.65948  -6143254.14143  21932577.8244   21932576.0514
      1104.2504
 -12354194.11149  -9614429.72747  19347295.2854   19347293.2704
      1297.2504
  -4694000.54448  -4816686.61446  21116358.1064   21116354.0394
      1391.2034
 -13905142.85849 -10819524.21045  21131673.0664   21131671.5984
      3783.4844
 04  9  8 22 37 29.9960000  0  7G 3G 8G13G10G27G19G28
  -2345246.77047  -2503076.94043  22398584.9574   22398585.2544
     -1035.2344
 -19930226.86049 -15515151.67448  19430973.3014   19430971.0084
      2501.3444
   -149549.36248   -114218.28147  20322982.5594   20322981.7814
     -1564.9534
  -7939343.56548  -6156095.60943  21929441.6064   21929440.7464
      1092.7034
 -12373611.60449  -9629560.23347  19343600.7704   19343598.4884
      1291.4534
  -4714785.54348  -4832882.70246  21112402.5984   21112399.0354
      1379.7194
 -13961847.08249 -10863709.28945  21120882.9264   21120881.4144
      3776.7034
 04  9  8 22 37 44.9960000  0  7G 3G 8G13G10G27G19G28
  -2329647.24448  -2490921.45243  22401553.8164   22401553.6094
     -1044.8124
 -19967703.17949 -15544353.99748  19423841.7154   19423839.5824
      2495.2814
   -126014.94649    -95879.79146  20327461.6454   20327458.7974
     -1573.1724
  -7955648.68248  -6168800.90843  21926338.8324   21926337.5554
      1081.2504
 -12392942.21549  -9644623.05747  19339922.3164   19339919.5984
      1285.8594
  -4735397.76547  -4848944.16846  21108479.6844   21108476.6724
      1368.4064
 -14018449.56949 -10907815.09745  21110111.6294   21110109.8164
      3770.1254
 04  9  8 22 37 59.9960000  0  7G 3G 8G13G10G27G19G28
  -2313906.05547  -2478655.63143  22404548.5904   22404547.8984
     -1054.0624
 -20005091.57149 -15573487.80548  19416727.1844   19416725.1024
      2489.6254
   -102358.76949    -77446.42347  20331962.6374   20331961.1134
     -1581.1094
  -7971784.15648  -6181374.04443  21923268.4814   21923266.7384
      1069.9694
 -12412190.90749  -9659622.03747  19336259.3564   19336257.4384
      1280.5474
  -4755842.04448  -4864874.78446  21104589.1604   21104585.3404
      1357.3284
 -14074955.14849 -10951845.38745  21099359.5984   21099357.4884
      3763.7664
 04  9  8 22 38 14.9960000  0  7G 3G 8G13G10G27G19G28
  -2298029.18247  -2466284.06843  22407570.7704   22407569.6644
     -1063.0784
 -20042397.48449 -15602557.35048  19409628.0354   19409625.3634
      2484.2194
    -78586.82849    -58922.85946  20336486.9264   20336484.4574
     -1588.7194
  -7987755.83748  -6193819.50343  21920229.3404   21920227.7034
      1059.1884
 -12431363.28849  -9674561.55347  19332611.0044   19332608.1724
      1275.4694
  -4776124.04048  -4880678.92846  21100730.7854   21100726.7194
      1346.5634
 -14131369.55549 -10995804.64145  21088623.4734   21088622.3094
      3757.7814
 04  9  8 22 38 29.9960000  0  7G 3G 8G13G10G27G19G28
  -2282009.96447  -2453801.57542  22410618.3244   22410618.3714
     -1072.2664
 -20079613.83649 -15631557.08648  19402545.4814   19402544.3054
      2478.5634
    -54692.22349    -40303.69446  20341033.2464   20341031.5634
     -1596.6874
  -8003556.93848  -6206132.02743  21917222.4814   21917220.6334
      1048.1414
 -12450452.39649  -9689436.17847  19328978.1604   19328976.2154
      1270.2034
  -4796236.95448  -4896351.29746  21096902.4814   21096898.8674
      1335.6564
 -14187685.66349 -11039687.26645  21077906.8564   21077905.8834
      3751.4694
 04  9  8 22 38 44.9960000  0  7G 3G 8G13G10G27G19G28
  -2265861.54948  -2441218.41143  22413692.8244   22413691.6724
     -1081.2664
 -20116753.82549 -15660497.33848  19395478.6064   19395476.1644
      2473.0944
    -30688.15949    -21599.26946  20345601.1524   20345600.0124
     -1604.2814
  -8019200.33248  -6218321.68343  21914245.4414   21914244.1994
      1037.2974
 -12469471.17749  -9704256.01847  19325359.4024   19325356.4534
      1265.1414
  -4816193.51347  -4911901.87846  21093104.7154   21093101.5704
      1324.8284
 -14243916.37949 -11083503.39545  21067207.3484   21067204.5904
      3745.4224
 04  9  8 22 38 59.9960000  0  7G 3G 8G13G10G27G19G28
  -2249581.22947  -2428532.45242  22416789.6844   22416790.0124
     -1089.5314
 -20153814.16849 -15689375.53248  19388425.9884   19388423.4884
      2468.1414
     -6571.84649     -2807.34246  20350190.5984   20350188.3984
     -1611.3444
  -8034683.00048  -6230386.13743  21911299.5594   21911298.0554
      1027.0004
 -12488416.37249  -9719018.50047  19321753.9264   19321751.4574
      1260.7194
  -4835990.55648  -4927328.12846  21089337.8564   21089334.6644
      1314.6724
 -14300058.36249 -11127250.36445  21056523.4104   21056520.9734
      3740.0314
 04  9  8 22 39 14.9960000  0  7G 3G 8G13G10G27G19G28
  -2233168.13547  -2415743.05343  22419913.4814   22419912.5514
     -1099.1874
 -20190793.65549 -15718190.71348  19381389.0434   19381386.9494
      2462.1564
     17657.59248     16072.71846  20354801.1524   20354798.8164
     -1619.4694
  -8050004.03848  -6242324.61443  21908384.0124   21908382.4024
      1015.5944
 -12507286.82149  -9733722.74047  19318163.0204   19318160.8954
      1255.1564
  -4855626.99048  -4942629.20646  21085600.6684   21085597.5704
      1303.2974
 -14356110.42349 -11170927.25645  21045856.3714   21045854.5784
      3733.4064
 04  9  8 22 39 29.9960000  0  7G 3G 8G13G10G27G19G28
  -2216620.94747  -2402849.20543  22423062.1994   22423061.0784
     -1107.5474
 -20227690.43749 -15746941.44348  19374367.6214   19374365.8714
      2457.0004
     42001.55649     35042.03046  20359434.2384   20359433.0164
     -1626.8124
  -8065161.91848  -6254135.94243  21905497.5204   21905497.4814
      1005.1724
 -12526080.77449  -9748367.39047  19314586.8324   19314584.4224
      1250.3444
  -4875101.03847  -4957803.84845  21081894.7934   21081890.6174
      1292.9064
 -14412070.85949 -11214532.77645  21035208.0124   21035206.3404
      3727.6254
 04  9  8 22 39 44.9960000  0  7G 3G 8G13G10G27G19G28
  -2199947.64247  -2389856.96743  22426235.0274   22426235.0044
     -1115.5944
 -20264512.20749 -15775633.73848  19367360.5904   19367358.5664
      2452.4064
     66452.19849     54094.42646  20364086.3954   20364085.1844
     -1633.4534
  -8080164.37348  -6265826.17443  21902644.2934   21902643.3244
       995.1254
 -12544806.02649  -9762958.49847  19311023.3244   19311020.9924
      1246.2344
  -4894420.46648  -4972857.94045  21078218.6294   21078215.4144
      1282.9534
 -14467947.27749 -11258072.81245  21024575.3714   21024573.7114
      3722.5004
 04  9  8 22 39 59.9960000  0  7G 3G 8G13G10G27G19G28
  -2183142.04047  -2376761.65443  22429433.2624   22429432.7624
     -1124.7974
 -20301252.34149 -15804262.39548  19360368.9734   19360366.9304
      2446.6094
     91015.72449     73234.82146  20368760.7464   20368758.9964
     -1641.3914
  -8095005.11748  -6277390.40343  21899820.1604   21899819.1724
       983.9224
 -12563456.03949  -9777490.97947  19307474.1684   19307471.5704
      1240.7814
  -4913578.70649  -4987786.41946  21074573.9104   21074570.0784
      1271.7974
 -14523733.10349 -11301542.25545  21013958.8954   21013957.2934
      3715.9534
 04  9  8 22 40 14.9960000  0  7G 3G 8G13G10G27G19G28
  -2166203.18246  -2363562.62342  22432655.6454   22432655.3564
     -1133.7664
 -20337909.80149 -15832826.65647  19353393.6454   19353391.1764
      2441.0314
    115693.19549     92463.98846  20373456.5984   20373455.3204
     -1649.0624
  -8109683.02348  -6288827.76743  21897026.2314   21897025.3484
       973.0004
 -12582029.51349  -9791963.81047  19303940.3164   19303937.8834
      1235.5944
  -4932574.52149  -5002588.36146  21070958.6604   21070954.8014
      1260.8594
 -14579427.10249 -11344940.16745  21003361.3714   21003359.4184
      3709.6884
 04  9  8 22 40 29.9960000  0  7G 3G 8G13G10G27G19G28
  -2149135.25047  -2350262.96342  22435904.6844   22435904.3484
     -1142.1564
 -20374488.39749 -15861329.44748  19346433.1454   19346431.3054
      2435.9384
    140480.32549    111778.59846  20378173.6294   20378173.2384
     -1656.1254
  -8124202.01647  -6300141.26143  21894263.5904   21894262.8834
       962.6884
 -12600530.18549  -9806379.91147  19300419.8164   19300417.6294
      1231.0164
  -4951411.74849  -5017266.70546  21067374.1064   21067370.1374
      1250.6094
 -14635032.97549 -11388269.36945  20992779.4814   20992777.9654
      3704.2344
 04  9  8 22 40 44.9960000  0  7G 3G 8G13G10G27G19G28
  -2131934.99447  -2336860.19342  22439177.8794   22439177.0474
     -1150.9534
 -20410984.48149 -15889767.95448  19339487.8874   19339486.2344
      2430.4224
    165380.62149    131181.40446  20382911.9104   20382909.9264
     -1663.6564
  -8138558.66648  -6311328.27643  21891531.8484   21891530.7664
       951.8594
 -12618954.53349  -9820736.55547  19296913.2934   19296911.2274
      1225.9384
  -4970086.73749  -5031818.66646  21063819.6374   21063816.1214
      1239.7194
 -14690547.07849 -11431527.09545  20982215.5124   20982213.6524
      3698.0784
 04  9  8 22 40 59.9960000  0  7G 3G 8G13G10G27G19G28
  -2114599.27347  -2323351.84843  22442476.6374   22442475.5744
     -1160.1094
 -20447394.46449 -15918139.36448  19332559.4814   19332556.9884
      2424.5634
    190397.24549    150674.85546  20387673.0204   20387671.0904
     -1671.5474
  -8152749.56448  -6322386.13043  21888832.6374   21888830.5944
       940.5944
 -12637299.05749  -9835030.98447  19293422.6604   19293420.7664
      1220.3444
  -4988596.05649  -5046241.49446  21060297.9964   21060293.7274
      1228.4844
 -14745965.93749 -11474710.60445  20971669.8564   20971668.2734
      3691.4694
 04  9  8 22 41 14.9960000  0  7G 3G 8G13G10G27G19G28
  -2097126.76347  -2309736.93243  22445801.5744   22445800.4184
     -1169.0314
 -20483716.61349 -15946442.34648  19325647.6294   19325645.1294
      2418.8754
    215531.38749    170259.91746  20392455.1524   20392454.1024
     -1679.2814
  -8166773.31448  -6333313.73243  21886163.3404   21886161.9694
       929.6254
 -12655562.03849  -9849261.88147  19289947.2464   19289944.7584
      1215.1564
  -5006938.05149  -5060533.96446  21056807.3634   21056803.6484
      1217.5474
 -14801287.88449 -11517818.57845  20961141.9734   20961141.0274
      3685.2194
 04  9  8 22 41 29.9950000  0  7G 3G 8G13G10G27G19G28
  -2079520.23247  -2296017.58143  22449151.6794   22449151.5264
     -1178.0784
 -20519949.65049 -15974675.88148  19318752.7494   19318750.6404
      2413.0314
    240780.12749    189934.18946  20397260.8124   20397257.7924
     -1687.0314
  -8180630.43348  -6344111.49643  21883526.9604   21883525.7964
       918.5784
 -12673743.66849  -9863429.38548  19286487.4994   19286485.0464
      1209.7194
  -5025112.84648  -5074696.12246  21053348.7494   21053345.5774
      1206.4224
 -14856510.42449 -11560849.09045  20950634.3044   20950631.6754
      3678.7504
 04  9  8 22 41 44.9950000  0  7G 3G 8G13G10G27G19G28
  -2061776.73148  -2282191.45742  22452528.5694   22452527.7144
     -1187.3594
 -20556097.72749 -16002843.21148  19311874.0304   19311872.2064
      2407.0314
    266147.24849    209700.76446  20402087.6404   20402085.9054
     -1694.9694
  -8194322.04248  -6354780.30243  21880921.2414   21880919.8584
       907.4064
 -12691845.37949  -9877534.62147  19283042.7574   19283040.5264
      1204.1884
  -5043121.89649  -5088729.19346  21049922.3044   21049918.0974
      1195.1724
 -14911639.99249 -11603807.17745  20940142.9914   20940140.8864
      3672.2194
 04  9  8 22 41 59.9950000  0  7G 3G 8G13G10G27G19G28
  -2043897.88547  -2268259.94842  22455931.2184   22455929.2024
     -1196.3914
 -20592158.44249 -16030942.44548  19305011.5854   19305009.5264
      2401.2664
    291630.73649    229557.98446  20406937.0304   20406935.6794
     -1702.7034
  -8207847.32748  -6365319.47443  21878348.3904   21878346.0074
       896.2814
 -12709865.97349  -9891576.63547  19279613.4834   19279611.7964
      1198.7504
  -5060964.13048  -5102632.20046  21046526.4054   21046523.2374
      1184.0314
 -14966672.83449 -11646689.88345  20929670.2264   20929668.1484
      3665.7034
 04  9  8 22 42 14.9950000  0  7G 3G 8G13G10G27G19G28
  -2025884.57448  -2254223.62243  22459358.9214   22459356.6514
     -1205.1094
 -20628132.35749 -16058974.06248  19298166.2734   19298163.3944
      2395.6564
    317229.76749    249505.26946  20411808.6484   20411806.8624
     -1710.1094
  -8221207.02648  -6375729.62243  21875804.9374   21875803.5034
       885.4694
 -12727806.03349  -9905555.90647  19276199.5934   19276197.8904
      1193.6564
  -5078640.08749  -5116405.66546  21043163.4214   21043159.2104
      1173.1884
 -15021609.54949 -11689497.69245  20919216.1244   20919214.1794
      3659.5634
 04  9  8 22 42 29.9950000  0  7G 3G 8G13G10G27G19G28
  -2007739.86448  -2240084.92743  22462811.2334   22462810.7964
     -1214.7194
 -20664022.17449 -16086940.15648  19291336.7024   19291334.3984
      2389.1254
    342941.16849    269540.10146  20416700.7414   20416699.5194
     -1718.5944
  -8234404.21448  -6386013.13543  21873293.1404   21873292.2844
       873.6724
 -12745668.37449  -9919474.61448  19272800.5074   19272798.7884
      1187.4694
  -5096152.68149  -5130051.85546  21039830.8904   21039826.1554
      1161.3444
 -15076452.78749 -11732232.65445  20908779.7184   20908777.9014
      3652.2974
 04  9  8 22 42 44.9950000  0  7G 3G 8G13G10G27G19G28
  -1989458.54448  -2225839.71343  22466289.9294   22466289.7764
     -1223.0944
 -20699822.15049 -16114836.24848  19284523.5624   19284521.8864
      2383.8284
    368770.50049    289666.81346  20421616.0384   20421613.9214
     -1725.6564
  -8247433.38248  -6396165.79643  21870814.3514   21870813.0264
       863.2344
 -12763447.31849  -9933328.33947  19269417.3194   19269415.4404
      1182.7664
  -5113496.22849  -5143566.31746  21036530.5854   21036526.7804
      1150.8594
 -15131196.97449 -11774890.43645  20898361.9444   20898360.6054
      3646.5474
 04  9  8 22 42 59.9950000  0  7G 3G 8G13G10G27G19G28
  -1971048.84548  -2211494.49542  22469793.8194   22469792.0694
     -1231.6094
 -20735540.18149 -16142668.48048  19277727.4214   19277725.1324
      2378.3914
    394709.41949    309878.95446  20426552.7104   20426550.5504
     -1732.9694
  -8260302.64748  -6406193.74843  21868365.3514   21868364.0114
       852.5314
 -12781150.86849  -9947123.31547  19266048.5304   19266046.5584
      1177.5784
  -5130678.67048  -5156955.23746  21033260.1554   21033256.5154
      1140.0314
 -15185849.92649 -11817477.12845  20887962.5694   20887960.8084
      3640.4224
 04  9  8 22 43 14.9950000  0  7G 3G 8G13G10G27G19G28
  -1952510.35248  -2197048.93042  22473321.6164   22473319.6554
     -1240.4844
 -20771175.68049 -16170436.39348  19270945.6634   19270943.5854
      2372.6724
    420758.42249    330176.83446  20431508.8984   20431508.4134
     -1740.5624
  -8273011.37848  -6416096.68943  21865946.8044   21865945.7534
       841.5784
 -12798778.20049  -9960858.90947  19262694.1404   19262691.8744
      1172.3134
  -5147699.32348  -5170218.07446  21030021.7734   21030017.3044
      1129.0164
 -15240410.86649 -11859992.13245  20877579.7574   20877577.2374
      3634.0004
 04  9  8 22 43 29.9950000  0  7G 3G 8G13G10G27G19G28
  -1933847.66247  -2182506.64642  22476872.4764   22476871.6674
     -1248.1564
 -20806732.68249 -16198143.13548  19264179.4604   19264177.4094
      2368.0634
    446913.03149    350557.04246  20436486.0854   20436483.6554
     -1746.9694
  -8285563.90848  -6425877.86843  21863558.4444   21863556.2884
       831.7504
 -12816333.39749  -9974538.26847  19259353.7654   19259351.7304
      1168.0944
  -5164562.21948  -5183357.99246  21026813.4764   21026808.7574
      1119.1254
 -15294883.86149 -11902438.58046  20867213.8044   20867211.8744
      3628.8284
 04  9  8 22 43 44.9950000  0  7G 3G 8G13G10G27G19G28
  -1915061.22747  -2167867.84842  22480447.1014   22480446.6754
     -1256.8444
 -20842211.44749 -16225788.92048  19257428.1164   19257425.9404
      2362.2344
    473172.89249    371019.25746  20441482.8664   20441481.8984
     -1754.5784
  -8297960.60048  -6435537.62843  21861199.4294   21861198.4994
       820.8284
 -12833816.72649  -9988161.64147  19256026.5934   19256024.5894
      1162.7034
  -5181267.64948  -5196375.20546  21023633.3124   21023629.9914
      1108.0784
 -15349269.16349 -11944816.71646  20856864.6014   20856862.2764
      3622.3754
 04  9  8 22 43 59.9950000  0  7G 3G 8G13G10G27G19G28
  -1896148.74047  -2153130.85942  22484046.2184   22484045.8434
     -1264.8754
 -20877609.36349 -16253371.72448  19250692.2184   19250690.1244
      2357.1884
    499540.23249    391565.19346  20446501.2804   20446499.4644
     -1761.2814
  -8310198.97748  -6445074.07543  21858869.8274   21858869.1874
       810.6564
 -12851225.47549 -10001726.90747  19252713.8664   19252711.7304
      1158.1724
  -5197812.98547  -5209267.70146  21020485.0304   21020481.8434
      1097.8754
 -15403564.02349 -11987124.38245  20846532.6874   20846530.3944
      3616.7034
 04  9  8 22 44 14.9950000  0  7G 3G 8G13G10G27G19G28
  -1877114.86447  -2138299.30342  22487669.2884   22487667.6164
     -1273.2034
 -20912930.42749 -16280894.62248  19243970.7494   19243968.9014
      2351.9064
    526010.77649    412191.59446  20451537.1244   20451535.7334
     -1768.4064
  -8322283.37248  -6454490.48644  21856570.2804   21856569.3314
       800.2344
 -12868563.82049 -10015237.30447  19249414.4604   19249412.2884
      1153.2194
  -5214202.43148  -5222038.69146  21017365.8044   21017362.7614
      1087.0944
 -15457772.63249 -12029364.83145  20836216.8044   20836215.1484
      3610.7194
 04  9  8 22 44 29.9950000  0  7G 3G 8G13G10G27G19G28
  -1857953.57947  -2123368.44942  22491315.1164   22491313.2264
     -1281.3754
 -20948168.23249 -16308352.64348  19237265.2804   19237263.5114
      2346.6884
    552590.46449    432903.01746  20456596.3824   20456594.4014
     -1775.3124
  -8334207.60148  -6463782.10143  21854301.3824   21854299.8004
       789.9224
 -12885825.46649 -10028687.94347  19246129.3274   19246127.4954
      1148.5004
  -5230429.83249  -5234683.39346  21014278.4994   21014274.4874
      1076.6724
 -15511888.56149 -12071533.06745  20825919.0624   20825917.4374
      3604.8914
 04  9  8 22 44 44.9950000  0  7G 3G 8G13G10G27G19G28
  -1838664.96247  -2108338.34042  22494985.4914   22494985.3084
     -1290.5944
 -20983322.50449 -16335745.58448  19230575.4054   19230573.4484
      2340.4694
    579279.10748    453699.35546  20461674.1164   20461673.1244
     -1783.2504
  -8345971.62148  -6472948.85043  21852062.9444   21852061.9094
       778.5944
 -12903010.14449 -10042078.59948  19242859.3904   19242857.6124
      1142.6564
  -5246494.89649  -5247201.62146  21011220.6944   21011217.0384
      1065.1884
 -15565911.65749 -12113628.95746  20815638.7264   20815636.9604
      3598.0474
 04  9  8 22 44 59.9950000  0  7G 3G 8G13G10G27G19G28
  -1819243.66646  -2093204.89642  22498680.6714   22498680.1204
     -1298.7664
 -21018387.72349 -16363069.11748  19223903.0304   19223900.6904
      2335.0784
    606082.23549    474584.88346  20466775.7184   20466773.6834
     -1790.3284
  -8357569.90348  -6481986.46943  21849855.5694   21849854.9804
       768.0784
 -12920112.14949 -10055404.83447  19239605.0304   19239603.0154
      1137.6564
  -5262391.86648  -5259588.85846  21008196.2104   21008192.2654
      1054.5944
 -15619836.00249 -12155647.92246  20805377.3664   20805375.1904
      3591.9844
 04  9  8 22 45 14.9950000  0  7G 3G 8G13G10G27G19G28
  -1799694.43546  -2077971.68942  22502401.0304   22502399.9644
     -1307.7344
 -21053368.21149 -16390326.63748  19217246.4134   19217244.1714
      2328.9224
    632995.15449    495555.97546  20471896.0624   20471896.0234
     -1798.0944
  -8369007.04948  -6490898.56843  21847678.2884   21847678.3624
       756.8594
 -12937135.90649 -10068670.09347  19236365.4374   19236362.9914
      1132.0944
  -5278125.33848  -5271848.71246  21005202.2804   21005198.0584
      1043.1564
 -15673666.14449 -12197593.44446  20795133.8194   20795132.0734
      3585.2504
 04  9  8 22 45 29.9950000  0  7G 3G 8G13G10G27G19G28
  -1780012.60546  -2062635.21542  22506146.8124   22506145.2964
     -1316.0944
 -21088259.02049 -16417514.28248  19210606.9834   19210605.0974
      2323.4224
    660022.44048    516616.14946  20477039.3984   20477037.4014
     -1805.3124
  -8380278.39548  -6499681.44644  21845534.2494   21845533.1514
       746.2194
 -12954076.41649 -10081870.49747  19233141.6794   19233140.0264
      1126.9384
  -5293690.37949  -5283977.31946  21002240.7884   21002236.8474
      1032.4384
 -15727397.11749 -12239461.70945  20784909.6084   20784907.1484
      3579.1094
 04  9  8 22 45 44.9950000  0  7G 3G 8G13G10G27G19G28
  -1760203.60345  -2047199.67442  22509915.4214   22509915.2224
     -1325.4064
 -21123065.13649 -16444635.92848  19203983.3824   19203981.3194
      2317.0634
    687158.65249    537761.25446  20482203.8274   20482201.8864
     -1813.2194
  -8391389.02748  -6508339.10644  21843420.2964   21843419.6594
       734.8754
 -12970938.76449 -10095009.99247  19229932.9374   19229930.9444
      1120.9384
  -5309091.98649  -5295978.56846  20999309.5854   20999305.5154
      1020.7974
 -15781033.82349 -12281256.51946  20774702.1874   20774700.3354
      3572.0634
 04  9  8 22 45 59.9950000  0  7G 3G 8G13G10G27G19G28
  -1740259.11446  -2031658.42742  22513710.6324   22513710.7374
     -1334.2034
 -21157777.50149 -16471684.51848  19197377.9294   19197375.3664
      2310.9694
    714412.55949    558998.00046  20487389.6714   20487388.4644
     -1820.9374
  -8402330.39148  -6516864.86843  21841339.0304   21841336.8624
       723.6564
 -12987714.05149 -10108081.65547  19226741.0624   19226738.8704
      1115.3284
  -5324321.40349  -5307845.64346  20996411.3514   20996406.8314
      1009.4694
 -15834567.38749 -12322970.97946  20764515.2884   20764513.0464
      3565.3594
 04  9  8 22 46 14.9950000  0  7G 3G 8G13G10G27G19G28
  -1720182.86346  -2016014.66642  22517531.0304   22517530.6634
     -1342.5624
 -21192399.94949 -16498663.04648  19190789.5464   19190787.8944
      2305.4534
    741780.22048    580323.42146  20492597.5854   20492595.6874
     -1828.0944
  -8413106.30348  -6525261.67643  21839287.4834   21839285.5894
       713.0944
 -13004405.79349 -10121088.19947  19223564.4764   19223562.2654
      1110.2814
  -5339382.33748  -5319581.41246  20993545.2104   20993541.1284
       998.7344
 -15888001.35949 -12364607.82046  20754347.3434   20754345.1014
      3559.1564
 04  9  8 22 46 29.9950000  0  7G 3G 8G13G10G27G19G28
  -1699973.96946  -2000267.50442  22521376.5384   22521376.4334
     -1351.9064
 -21226930.96449 -16525570.33248  19184218.8354   19184216.3044
      2298.7974
    769262.69648    601738.30746  20497827.4214   20497825.0814
     -1836.2344
  -8423715.53148  -6533528.60043  21837268.3904   21837267.7654
       701.4844
 -13021012.84149 -10134028.75947  19220404.5304   19220402.4094
      1104.0634
  -5354273.37048  -5331184.83246  20990711.5624   20990708.1714
       986.8134
 -15941334.37949 -12406165.98946  20744198.2494   20744196.6444
      3551.9844
 04  9  8 22 46 44.9950000  0  7G 3G 8G13G10G27G19G28
  -1679628.88346  -1984414.26142  22525249.2264   22525247.3624
     -1360.8594
 -21261366.76149 -16552403.41148  19177665.4214   19177663.7694
      2292.5784
    796863.67349    623245.53246  20503080.7964   20503078.2414
     -1844.0164
  -8434154.25248  -6541662.68743  21835282.0234   21835281.8004
       690.1414
 -13037531.02149 -10146900.06947  19217260.8514   19217258.5654
      1098.2504
  -5368990.63049  -5342652.83445  20987910.7654   20987907.3514
       975.3594
 -15994562.34649 -12447642.28346  20734069.1634   20734067.5854
      3545.0944
 04  9  8 22 46 59.9950000  0  7G 3G 8G13G10G27G19G28
  -1659148.01546  -1968455.12442  22529146.8904   22529145.4134
     -1369.4844
 -21295707.25349 -16579162.23448  19171130.8044   19171128.2534
      2286.5314
    824582.64748    644844.72846  20508354.1944   20508353.4374
     -1851.5624
  -8444422.82148  -6549664.19043  21833328.1714   21833328.0934
       679.2034
 -13053960.46249 -10159702.23047  19214134.3354   19214132.0814
      1092.6724
  -5383534.26648  -5353985.51946  20985143.3434   20985139.4334
       964.0634
 -16047685.35749 -12489036.81246  20723960.1324   20723958.2654
      3538.3284
 04  9  8 22 47 14.9950000  0  7G 3G 8G13G10G27G19G28
  -1638531.31745  -1952390.20041  22533070.4914   22533068.9834
     -1378.8444
 -21329952.12549 -16605846.53348  19164614.2334   19164612.1484
      2279.8284
    852419.60448    666535.81346  20513652.6554   20513651.0154
     -1859.6254
  -8454521.13548  -6557533.03043  21831407.1554   21831405.3234
       667.6414
 -13070300.86349 -10172435.00547  19211025.3194   19211022.8514
      1086.4694
  -5397904.00949  -5365182.71246  20982409.2884   20982405.2024
       952.2504
 -16100703.20149 -12530349.39146  20713871.1874   20713869.4644
      3531.0784
 04  9  8 22 47 29.9950000  0  7G 3G 8G13G10G27G19G28
  -1617777.13046  -1936218.14342  22537019.4444   22537018.0194
     -1387.6414
 -21364099.22449 -16632454.67148  19158116.5774   19158114.0934
      2273.7034
    880376.42149    688320.32045  20518971.7414   20518969.8944
     -1867.3594
  -8464447.31748  -6565267.71344  21829517.5464   21829516.6794
       656.5164
 -13086550.21349 -10185096.83847  19207932.8824   19207930.9604
      1080.7194
  -5412097.85249  -5376242.83245  20979707.9214   20979703.5114
       940.8754
 -16153613.84049 -12571578.44646  20703802.8584   20703800.8124
      3524.2034
 04  9  8 22 47 44.9950000  0  7G 3G 8G13G10G27G19G28
  -1596893.81645  -1919945.38042  22540992.6404   22540992.6594
     -1396.1254
 -21398156.55649 -16658992.85348  19151635.1324   19151633.2494
      2267.7194
    908444.91848    710191.86446  20524313.5234   20524311.7694
     -1874.7194
  -8474209.51548  -6572874.65343  21827660.9214   21827659.0194
       645.5784
 -13102716.39549 -10197693.86747  19204856.3984   19204854.2734
      1075.1724
  -5426123.73949  -5387172.09646  20977039.4684   20977035.2764
       929.6094
 -16206425.08049 -12612730.04246  20693752.8744   20693751.3394
      3517.6724
 04  9  8 22 47 59.9950000  0  7G 3G 8G13G10G27G19G28
  -1575879.97745  -1903571.00542  22544991.9444   22544991.2764
     -1405.7664
 -21432122.34949 -16685459.70648  19145172.1634   19145169.7024
      2260.8134
    936626.38548    732151.40846  20529675.8824   20529675.6714
     -1883.0004
  -8483806.24948  -6580352.61943  21825833.5154   21825832.8044
       633.7664
 -13118797.77249 -10210224.81447  19201796.3514   19201794.5544
      1068.8134
  -5439980.16549  -5397969.31746  20974402.2494   20974397.5384
       917.6254
 -16259135.20149 -12653802.84346  20683722.0934   20683720.6754
      3510.2344
 04  9  8 22 48 14.9950000  0  7G 3G 8G13G10G27G19G28
  -1554728.24144  -1887089.14941  22549018.0544   22549015.9484
     -1414.2344
 -21465989.07349 -16711849.34748  19138727.2104   19138724.7184
      2254.8754
    964928.27648    754204.80745  20535061.4684   20535059.7144
     -1890.4844
  -8493230.00948  -6587695.82243  21824041.2494   21824039.5654
       622.8914
 -13134786.59049 -10222683.62847  19198753.8824   19198751.7024
      1063.2664
  -5453659.47449  -5408628.53246  20971799.6874   20971795.4994
       906.4694
 -16311736.46849 -12694790.80646  20673712.9524   20673711.6164
      3503.5004
 04  9  8 22 48 29.9950000  0  7G 3G 8G13G10G27G19G28
  -1533447.80645  -1870507.01342  22553065.8354   22553066.0074
     -1422.8284
 -21499765.22249 -16738168.40748  19132299.6794   19132297.6014
      2248.8594
    993341.47049    776344.95746  20540468.6324   20540467.2264
     -1897.7034
  -8502489.68448  -6594911.14443  21822277.7884   21822278.2764
       612.0164
 -13150691.59249 -10235077.13347  19195727.6244   19195724.9334
      1057.6094
  -5467170.50648  -5419156.57646  20969227.9834   20969225.3784
       895.2344
 -16364237.52449 -12735700.69546  20663722.3904   20663720.7104
      3496.8754
 04  9  8 22 48 44.9950000  0  7G 3G 8G13G10G27G19G28
  -1512035.08246  -1853821.81042  22557142.1554   22557140.5264
     -1431.9064
 -21533447.01349 -16764413.95648  19125890.3984   19125888.3704
      2242.3754
   1021869.56848    798574.59046  20545896.8904   20545895.4294
     -1905.6874
  -8511581.68847  -6601995.86843  21820547.9214   21820548.0544
       600.4224
 -13166508.86849 -10247402.28347  19192717.5074   19192715.5734
      1051.5474
  -5480509.29248  -5429550.43146  20966689.6244   20966685.3784
       883.5314
 -16416634.52549 -12776529.50646  20653751.5544   20653749.8354
      3489.6094
 04  9  8 22 48 59.9950000  0  7G 3G 8G13G10G27G19G28
  -1490492.81945  -1837035.67542  22561240.9444   22561239.4604
     -1440.2664
 -21567036.76549 -16790587.79048  19119498.5154   19119496.2924
      2236.4224
   1050510.07849    820891.86445  20551346.7804   20551344.9764
     -1912.9694
  -8520508.51247  -6608951.85943  21818849.6164   21818848.9174
       589.8754
 -13182240.75849 -10259660.90447  19189723.9054   19189721.6014
      1046.1254
  -5493678.23649  -5439811.95646  20964184.2884   20964179.1444
       872.4694
 -16468929.80349 -12817279.05246  20643800.5154   20643798.4174
      3483.1884
 04  9  8 22 49 14.9950000  0  7G 3G 8G13G10G27G19G28
  -1468815.26145  -1820144.08742  22565365.6484   22565364.5264
     -1449.1254
 -21600528.33449 -16816685.11848  19113125.1714   19113123.1054
      2229.9694
   1079268.67748    843301.12046  20556820.3434   20556818.6324
     -1920.7504
  -8529264.24848  -6615774.49043  21817183.6794   21817182.3394
       578.5164
 -13197881.08049 -10271848.18347  19186747.2734   19186745.3154
      1040.0314
  -5506671.37649  -5449936.51246  20961711.8274   20961707.9404
       860.8594
 -16521117.16749 -12857944.51546  20633869.1874   20633867.3354
      3476.0164
 04  9  8 22 49 29.9950000  0  7G 3G 8G13G10G27G19G28
  -1447013.19945  -1803155.40242  22569515.0234   22569513.9374
     -1457.5004
 -21633932.06149 -16842713.98548  19106768.4374   19106767.0974
      2223.9844
   1108134.57848    865794.00046  20562313.1484   20562313.1404
     -1927.9534
  -8537859.62648  -6622472.19843  21815548.1324   21815547.2374
       567.6414
 -13213440.29249 -10283972.22747  19183786.8984   19183784.8474
      1034.6094
  -5519499.16748  -5459932.15746  20959270.0774   20959266.8474
       849.6724
 -16573207.02949 -12898533.98346  20623956.6634   20623954.6874
      3469.4064
 04  9  8 22 49 44.9950000  0  7G 3G 8G13G10G27G19G28
  -1425083.73345  -1786067.60641  22573687.3354   22573686.5934
     -1465.9374
 -21667244.53549 -16868671.75248  19100429.3664   19100427.6084
      2218.0784
   1137110.91148    888372.94245  20567827.0304   20567824.6514
     -1935.1874
  -8546291.51048  -6629042.50044  21813943.8664   21813942.9094
       556.9064
 -13228915.07949 -10296030.50847  19180841.8584   19180839.1204
      1029.0944
  -5532158.40849  -5469796.50146  20956861.0694   20956857.4724
       838.5784
 -16625196.18549 -12939044.98346  20614062.8274   20614061.3864
      3462.8134
 04  9  8 22 49 59.9950000  0  7G 3G 8G13G10G27G19G28
  -1403023.23746  -1768877.62541  22577887.3744   22577884.0264
     -1474.9534
 -21700461.88349 -16894555.39848  19094108.4054   19094106.3314
      2211.3754
   1166201.29149    911040.73546  20573362.7184   20573360.9054
     -1943.1094
  -8554556.07747  -6635482.45543  21812370.1794   21812370.0504
       545.4224
 -13244301.43849 -10308019.88547  19177913.8904   19177911.7414
      1022.8914
  -5544645.07749  -5479526.38246  20954485.6164   20954480.9174
       826.7504
 -16677080.52449 -12979474.31146  20604189.6324   20604187.8154
      3455.5314
 04  9  8 22 50 14.9950000  0  7G 3G 8G13G10G27G19G28
  -1380838.53945  -1751590.77741  22582106.8434   22582106.0264
     -1482.9374
 -21733590.55449 -16920369.93748  19087804.4214   19087802.2734
      2205.7194
   1195398.86048    933792.05746  20578918.3194   20578917.1364
     -1949.9224
  -8562660.16748  -6641797.33944  21810828.7494   21810828.5854
       535.0314
 -13259606.01249 -10319945.52247  19175001.6164   19174999.2264
      1017.7344
  -5556965.89949  -5489127.01446  20952140.7414   20952136.8314
       816.0634
 -16728866.58749 -13019827.05946  20594335.5304   20594333.1874
      3449.2974
 04  9  8 22 50 29.9950000  0  7G 3G 8G13G10G27G19G28
  -1358527.872 5                  22586352.265
     -1491.672
 -21766628.34749 -16946113.67848  19081517.2184   19081515.5774
      2199.4224
   1224705.42749    956628.32145  20584495.7494   20584494.1204
     -1957.4534
  -8570601.69448  -6647985.55043  21809318.1794   21809316.5234
       523.9694
 -13274826.50049 -10331805.65047  19172105.2264   19172103.5194
      1011.8284
  -5569118.68048  -5498596.69846  20949827.5774   20949823.8704
       804.5004
 -16780552.17149 -13060101.51846  20584500.3354   20584498.1244
      3442.3284
 04  9  8 22 50 44.9950000  0  7G 3G 8G13G10G27G19G28
  -1336091.746 5                  22590622.858
     -1500.031
 -21799575.49049 -16971786.77748  19075247.7734   19075245.5384
      2193.4844
   1254120.58348    979549.20145  20590092.8664   20590091.4054
     -1964.6094
  -8578381.03448  -6654047.38543  21807837.0304   21807835.5974
       513.1884
 -13289963.07449 -10343600.38847  19169224.8434   19169222.5194
      1006.3594
  -5581103.64949  -5507935.66146  20947547.7734   20947543.0384
       793.4064
 -16832137.39549 -13100297.76946  20574683.7574   20574682.2454
      3435.6254
 04  9  8 22 50 59.9950000  0  7G 3G 8G13G10G27G19G28
  -1313530.68644  -1699143.02351  22594915.0234   22594915.8274
     -1508.2194
 -21832431.85849 -16997389.12848  19068995.4914   19068993.3314
      2187.3134
   1283644.07748   1002554.47945  20595711.3664   20595710.6674
     -1971.9064
  -8585998.37548  -6659982.98843  21806387.4994   21806385.8154
       502.3444
 -13305015.64349 -10355329.66247  19166360.3514   19166358.2454
      1000.6724
  -5592920.90049  -5517143.91246  20945299.1014   20945294.7654
       782.1724
 -16883622.19049 -13140415.75646  20564886.4764   20564884.2184
      3428.9064
 04  9  8 22 51 14.9950000  0  7G 3G 8G13G10G27G19G28
  -1290849.28345  -1681469.21541  22599231.1014   22599231.0894
     -1516.5164
 -21865202.19249 -17022924.45348  19062759.3194   19062757.3704
      2181.5314
   1313270.93448   1025640.32546  20601349.3744   20601347.3664
     -1978.8754
  -8593458.52847  -6665796.10743  21804967.9134   21804966.8154
       491.8284
 -13319988.90849 -10366997.12347  19163511.4374   19163509.0974
       995.2504
  -5604575.10549  -5526225.10646  20943080.7494   20943077.3314
       771.1254
 -16935011.13149 -13180459.06846  20555107.5694   20555105.7804
      3422.4384
 04  9  8 22 51 29.9950000  0  7G 3G 8G13G10G27G19G28
  -1268040.55144  -1663696.27741  22603571.5304   22603571.6054
     -1524.6094
 -21897878.68049 -17048386.64648  19056541.2334   19056539.5154
      2175.3594
   1343008.44348   1048812.37346  20607007.7104   20607007.7264
     -1986.0624
  -8600754.32948  -6671481.16643  21803579.6014   21803578.8904
       481.0634
 -13334875.25149 -10378596.87947  19160678.3664   19160676.1984
       989.6564
  -5616058.88149  -5535173.49646  20940895.6014   20940891.7764
       759.9384
 -16986296.67649 -13220421.80546  20545347.9764   20545346.2804
      3415.6414
 04  9  8 22 51 44.9950000  0  7G 3G 8G13G10G27G19G28
  -1245104.89244  -1645824.37941  22607935.9054   22607935.1514
     -1533.5784
 -21930461.44049 -17073775.80648  19050341.0384   19050338.9404
      2169.0314
   1372856.19648   1072070.31746  20612687.9524   20612686.6444
     -1993.5784
  -8607886.00447  -6677038.32943  21802222.1714   21802221.2844
       469.9694
 -13349674.68649 -10390128.91347  19157862.2184   19157860.4374
       983.7664
  -5627372.31049  -5543989.16846  20938742.7964   20938738.7964
       748.5004
 -17037478.93549 -13260304.04646  20535608.6874   20535606.3864
      3408.6564
 04  9  8 22 51 59.9950000  0  7G 3G 8G13G10G27G19G28
  -1222048.05544  -1627858.02741  22612323.6794   22612323.3084
     -1540.9844
 -21962955.72049 -17099096.01448  19044157.6324   19044155.9254
      2163.1724
   1402808.83348   1095410.01645  20618387.8124   20618386.1984
     -2000.5164
  -8614858.92347  -6682471.76143  21800895.7964   21800894.9764
       459.4064
 -13364392.47449 -10401597.32347  19155061.1714   19155059.1594
       978.2664
  -5638520.60249  -5552676.13046  20936621.5544   20936617.1514
       737.4844
 -17088563.10449 -13300109.86146  20525887.0934   20525885.6794
      3402.1564
 04  9  8 22 52 14.9950000  0  6G 8G13G10G27G19G28
 -21995358.27849 -17124344.75048  19037991.2264   19037989.1124
      2156.8914
   1432869.19149   1118833.63046  20624107.8274   20624107.2064
     -2007.7974
  -8621670.10547  -6687779.17944  21799599.7334   21799598.8314
       448.5004
 -13379025.32449 -10412999.53847  19152276.7884   19152274.8864
       972.5314
  -5649500.70649  -5561232.04746  20934531.7414   20934528.4334
       726.2504
 -17139545.82849 -13339836.63246  20516185.5624   20516183.4444
      3395.2974
 04  9  8 22 52 29.9950000  0  6G 8G13G10G27G19G28
 -22027669.65449 -17149522.45548  19031842.7334   19031840.7734
      2150.6724
   1463035.99749   1142340.18846  20629848.6794   20629847.9914
     -2014.9844
  -8628320.61747  -6692961.42043  21798333.1164   21798333.1714
       437.5474
 -13393574.25149 -10424336.36947  19149508.2104   19149506.0774
       966.7664
  -5660313.58049  -5569657.66446  20932474.9834   20932470.2064
       714.9224
 -17190428.05249 -13379485.10046  20506503.0384   20506500.8354
      3388.3914
 04  9  8 22 52 44.9950000  0  6G 8G13G10G27G19G28
 -22059880.37649 -17174621.71748  19025713.5854   19025711.3554
      2143.8444
   1493318.58049   1165936.98945  20635611.4604   20635609.0234
     -2022.9064
  -8634801.11447  -6698011.14443  21797099.7184   21797099.7574
       426.2034
 -13408029.41449 -10435600.13547  19146757.8904   19146755.8704
       960.2974
  -5670949.69348  -5577945.55646  20930449.4764   20930446.9644
       702.9064
 -17241200.11149 -13419047.71446  20496841.2334   20496839.0814
      3380.8754
 04  9  8 22 52 59.9950000  0  6G 8G13G10G27G19G28
 -22091995.39149 -17199646.39448  19019601.7334   19019600.0154
      2137.8754
   1523711.84848   1189620.03446  20641395.1014   20641394.0694
     -2029.8284
  -8641116.56147  -6702932.30943  21795899.3664   21795898.1054
       415.6414
 -13422395.65949 -10446794.60447  19144023.6714   19144021.3744
       954.8284
  -5681413.96149  -5586099.52946  20928458.9914   20928454.0814
       692.0004
 -17291866.71349 -13458528.16346  20487200.0154   20487197.8124
      3374.3284
 04  9  8 22 53 14.9950000  0  6G 8G13G10G27G19G28
 -22124012.97149 -17224595.15548  19013509.6244   19013507.1404
      2131.4534
   1554217.14948   1213390.34245  20647199.7414   20647198.6944
     -2037.2504
  -8647265.66347  -6707723.82743  21794729.1164   21794726.9334
       404.6724
 -13436671.43449 -10457918.59447  19141306.7574   19141304.7734
       948.9064
  -5691704.67549  -5594118.27046  20926500.3044   20926496.8434
       680.4224
 -17342426.22749 -13497925.15246  20477578.6634   20477576.4684
      3367.2664
 04  9  8 22 53 29.9950000  0  6G 8G13G10G27G19G28
 -22155934.46649 -17249469.05048  19007434.9604   19007432.5304
      2125.3444
   1584832.60348   1237246.52645  20653025.9134   20653023.4604
     -2044.2504
  -8653250.12347  -6712387.03843  21793589.9134   21793589.0194
       393.9534
 -13450858.05449 -10468973.10447  19138607.6014   19138605.2654
       943.3284
  -5701823.45449  -5602003.04246  20924575.4444   20924571.2764
       669.3444
 -17392880.16449 -13537239.87946  20467977.9214   20467975.1834
      3360.5474
 04  9  8 22 53 44.9950000  0  6G 8G13G10G27G19G28
 -22187766.02749 -17274272.84848  19001377.3984   19001375.4684
      2118.9694
   1615551.87948   1261183.60145  20658871.3904   20658870.4524
     -2051.6094
  -8659076.23547  -6716926.89543  21792481.6014   21792481.4294
       383.0004
 -13464961.69149 -10479962.94247  19135923.7414   19135921.5854
       937.3284
  -5711776.58149  -5609758.70346  20922681.3044   20922677.4294
       657.8914
 -17443234.59549 -13576477.07546  20458395.8044   20458393.0774
      3353.3914
 04  9  8 22 53 59.9950000  0  6G 8G13G10G27G19G28
 -22219504.93449 -17299004.45948  18995337.7734   18995335.9644
      2112.4844
   1646377.33149   1285203.39046  20664738.0304   20664736.6754
     -2058.8754
  -8664741.63447  -6721341.46443  21791403.4604   21791401.7494
       372.0784
 -13478979.78549 -10490886.13847  19133256.1794   19133253.9294
       931.4224
  -5721561.53848  -5617383.34045  20920818.5154   20920814.5934
       646.4384
 -17493486.89349 -13615634.67246  20448832.2334   20448831.1124
      3346.4224
 04  9  8 22 54 14.9950000  0  6G 8G13G10G27G19G28
 -22251149.57549 -17323662.61548  18989316.1164   18989314.1794
      2106.5784
   1677310.38948   1309307.05145  20670623.1404   20670622.2924
     -2065.6564
  -8670244.64647  -6725629.54843  21790355.3584   21790354.5234
       361.5784
 -13492910.41549 -10501741.17447  19130605.3824   19130602.6984
       925.8284
  -5731176.52649  -5624875.53246  20918989.6244   20918985.3154
       635.4384
 -17543635.22149 -13654711.26346  20439289.7804   20439287.7454
      3339.8134
 04  9  8 22 54 29.9950000  0  6G 8G13G10G27G19G28
 -22282703.06449 -17348249.75048  18983311.3194   18983309.3434
      2100.6094
   1708347.63048   1333491.88245  20676530.2184   20676528.6284
     -2072.5624
  -8675588.64247  -6729793.74843  21789338.9914   21789338.1244
       351.0944
 -13506756.73749 -10512530.51347  19127970.6944   19127968.8664
       920.3444
  -5740624.86849  -5632237.84346  20917191.8744   20917187.5234
       624.4224
 -17593682.69149 -13693709.27246  20429766.5234   20429764.2614
      3333.2504
 04  9  8 22 54 44.9950000  0  6G 8G13G10G27G19G28
 -22314165.78249 -17372766.14548  18977324.3744   18977322.1714
      2094.3754
   1739487.97348   1357757.05946  20682456.3904   20682454.5974
     -2079.5314
  -8680774.53048  -6733834.71544  21788352.5464   21788351.6904
       340.4384
 -13520519.37749 -10523254.65748  19125351.6084   19125349.3434
       914.6254
  -5749907.26549  -5639470.89746  20915424.9834   20915421.1634
       613.2194
 -17643630.07049 -13732629.28546  20420261.4374   20420259.5034
      3326.4064
 04  9  8 22 54 59.9950000  0  6G 8G13G10G27G19G28
 -22345531.75849 -17397207.16948  18971355.8124   18971353.3984
      2087.8914
   1770737.32048   1382107.17345  20688402.6714   20688400.5814
     -2086.9374
  -8685796.44247  -6737747.90243  21787397.2104   21787396.1204
       329.4224
 -13534192.26249 -10533908.85847  19122749.7574   19122747.7734
       908.5784
  -5759017.70649  -5646569.96746  20913691.5624   20913687.1904
       601.6884
 -17693471.13649 -13771466.46646  20410777.5074   20410774.5344
      3319.2664
 04  9  8 22 55 14.9950000  0  6G 8G13G10G27G19G28
 -22376800.70649 -17421572.56648  18965405.2884   18965403.4014
      2081.7194
   1802095.27448   1406541.93145  20694370.0464   20694368.4484
     -2093.7664
  -8690654.75648  -6741533.58243  21786472.2494   21786471.6904
       318.7974
 -13547775.31349 -10544493.04447  19120164.3904   19120162.6514
       902.8594
  -5767956.29849  -5653535.09146  20911990.3434   20911985.7144
       590.5314
 -17743205.85649 -13810220.76046  20401313.1164   20401310.9174
      3312.4844
 04  9  8 22 55 29.9950000  0  6G 8G13G10G27G19G28
 -22407983.35449 -17445870.73848  18959471.6404   18959469.5194
      2076.2344
   1833550.93149   1431052.80145  20700356.0544   20700354.3314
     -2100.0314
  -8695360.31248  -6745200.28343  21785577.2964   21785575.4764
       308.8754
 -13561279.18149 -10555015.54747  19117595.2184   19117592.9724
       897.9384
  -5776733.73049  -5660374.64945  20910319.8904   20910315.6874
       580.1564
 -17792844.82449 -13848900.46546  20391866.9374   20391864.8124
      3306.3594
 04  9  8 22 55 44.9950000  0  6G 8G13G10G27G19G28
 -22439071.52949 -17470095.28648  18953555.5694   18953553.8664
      2069.0634
   1865112.31849   1455646.03345  20706361.5934   20706360.3824
     -2107.8284
  -8699905.04348  -6748741.64343  21784712.2574   21784711.1444
       297.3134
 -13574695.58749 -10565469.90447  19115041.9914   19115039.6834
       891.2034
  -5785341.81248  -5667082.23746  20908681.7804   20908678.4764
       567.9224
 -17842379.80049 -13887499.12146  20382440.6014   20382438.0734
      3298.5784
 04  9  8 22 55 59.9950000  0  6G 8G13G10G27G19G28
 -22470070.14349 -17494250.04548  18947656.8274   18947654.3904
      2063.2344
   1896773.96648   1480317.43745  20712387.4444   20712385.5154
     -2114.3914
  -8704294.28548  -6752161.84643  21783877.0774   21783875.8554
       287.1724
 -13588029.61149 -10575860.04747  19112504.2414   19112502.6444
       885.8754
  -5793785.87448  -5673662.01346  20907074.9444   20907071.6204
       557.2194
 -17891815.85849 -13926020.69946  20373033.1874   20373030.5034
      3292.1094
 04  9  8 22 56 14.9950000  0  6G 8G13G10G27G19G28
 -22500979.19149 -17518335.00148  18941774.8584   18941772.5194
      2057.0944
   1928535.55148   1505066.70145  20718430.4444   20718430.1674
     -2121.2664
  -8708528.40348  -6755461.17843  21783070.3744   21783070.1404
       276.6564
 -13601281.34449 -10586186.07148  19109983.1324   19109980.8044
       880.2504
  -5802066.02748  -5680114.06145  20905498.5074   20905495.6284
       546.0634
 -17941152.98649 -13964465.17446  20363644.1014   20363642.3744
      3285.3594
 04  9  8 22 56 29.9950000  0  6G 8G13G10G27G19G28
 -22531793.72249 -17542346.32548  18935911.2884   18935909.3584
      2051.1724
   1960401.81349   1529897.48845  20724494.4444   20724492.9094
     -2127.7974
  -8712602.44348  -6758635.77943  21782296.2264   21782295.0544
       266.3444
 -13614445.53449 -10596443.88248  19107478.1944   19107476.2414
       874.7814
  -5810177.14748  -5686434.41746  20903955.8584   20903952.0304
       535.1724
 -17990386.08049 -14002828.60446  20354275.5624   20354273.4764
      3278.8284
 04  9  8 22 56 44.9950000  0  6G 8G13G10G27G19G28
 -22562517.30149 -17566286.77348  18930064.6634   18930062.4254
      2045.1884
   1992368.79449   1554806.82245  20730578.1404   20730575.4684
     -2134.4844
  -8716520.26048  -6761688.62943  21781549.2964   21781549.4724
       256.0164
 -13627525.93249 -10606636.40047  19104988.8744   19104986.5734
       869.2194
  -5818123.06649  -5692626.03946  20902443.8354   20902440.4604
       524.2504
 -18039518.88749 -14041113.88546  20344926.6944   20344924.3904
      3272.1884
 04  9  8 22 56 59.9950000  0  6G 8G13G10G27G19G28
 -22593147.04149 -17590154.10648  18924235.7804   18924233.9294
      2038.9224
   2024439.04249   1579796.57945  20736680.5934   20736679.5854
     -2141.3284
  -8720279.29948  -6764617.78644  21780835.2884   21780834.7304
       245.4534
 -13640519.50949 -10616761.27347  19102516.0774   19102513.7534
       863.4064
  -5825901.02049  -5698686.78646  20900963.9994   20900959.8944
       513.0164
 -18088548.43849 -14079318.71346  20335596.7264   20335593.9374
      3265.2814
 04  9  8 22 57 14.9950000  0  6G 8G13G10G27G19G28
 -22623685.48649 -17613950.27148  18918424.5854   18918422.5854
      2033.1884
   2056609.67349   1604864.58345  20742802.7334   20742801.3274
     -2147.7974
  -8723882.48048  -6767425.44243  21780149.9684   21780148.1404
       235.3134
 -13653428.90249 -10626820.52447  19100059.1874   19100057.0734
       858.1254
  -5833513.64449  -5704618.68046  20899515.1874   20899511.0234
       502.2974
 -18137477.32449 -14117445.08446  20326284.8434   20326282.6324
      3258.8444
 04  9  8 22 57 29.9950000  0  6G 8G13G10G27G19G28
 -22654127.81549 -17637671.57348  18912631.7654   18912629.9914
      2026.6094
   2088885.23249   1630014.32345  20748944.6164   20748942.5464
     -2154.9064
  -8727325.12648  -6770108.02143  21779493.8354   21779492.6484
       224.5164
 -13666249.31149 -10636810.47347  19097620.2414   19097617.7334
       852.0314
  -5840956.23548  -5710418.09246  20898098.8274   20898095.3904
       490.8134
 -18186300.60949 -14155489.18046  20316994.3514   20316992.2334
      3251.6724
 04  9  8 22 57 44.9950000  0  6G 8G13G10G27G19G28
 -22684474.49649 -17661318.33048  18906856.7964   18906855.0694
      2020.1884
   2121264.61648   1655244.98645  20755105.9374   20755104.7104
     -2161.8124
  -8730608.17847  -6772666.25743  21778870.0624   21778868.6364
       213.8444
 -13678981.31349 -10646731.50447  19095197.1324   19095194.6834
       846.1254
  -5848229.61949  -5716085.67546  20896715.6324   20896710.9604
       479.5634
 -18235019.02249 -14193451.55846  20307723.9444   20307720.9874
      3244.7344
 04  9  8 22 57 59.9950000  0  6G 8G13G10G27G19G28
 -22714721.19749 -17684887.18448  18901101.1014   18901098.9604
      2013.2194
   2153751.93948   1680559.75445  20761287.6634   20761286.5584
     -2169.2664
  -8733727.55447  -6775096.92443  21778275.2414   21778275.3944
       202.5944
 -13691620.67549 -10656580.36647  19092792.0854   19092789.8474
       839.6414
  -5855329.62248  -5721618.13146  20895363.4684   20895359.7144
       467.7034
 -18283628.30549 -14231328.89446  20298473.4054   20298471.4094
      3237.0944
 04  9  8 22 58 14.9950000  0  6G 8G13G10G27G19G28
 -22744871.29649 -17708380.77048  18895363.8124   18895361.7454
      2006.3914
   2186343.46148   1705955.71745  20767490.2734   20767488.5774
     -2176.6254
  -8736686.87047  -6777402.93143  21777712.0624   21777712.1484
       191.6724
 -13704170.79549 -10666359.68447  19090403.5854   19090401.8554
       833.2504
  -5862259.71649  -5727018.21846  20894045.4684   20894041.3194
       455.9064
 -18332131.89249 -14269123.87246  20289243.5074   20289241.4564
      3229.6414
 04  9  8 22 58 29.9950000  0  6G 8G13G10G27G19G28
 -22774922.21649 -17731797.06248  18889645.4764   18889643.4914
      2000.0634
   2219041.48448   1731434.66345  20773712.5304   20773710.5504
     -2183.4224
  -8739483.91447  -6779582.43443  21777180.5624   21777179.8044
       181.0474
 -13716628.93249 -10676067.31647  19088032.9994   19088030.6444
       827.4844
  -5869017.41748  -5732283.94346  20892759.0854   20892755.7884
       444.7344
 -18380527.06049 -14306834.37746  20280034.5074   20280031.9174
      3222.6724
 04  9  8 22 58 44.9950000  0  6G 8G13G10G27G19G28
 -22804876.37549 -17755137.95648  18883945.5384   18883943.4254
      1993.3134
   2251843.25048   1756994.45445  20779954.5774   20779953.2304
     -2190.5624
  -8742121.27148  -6781637.54043  21776679.5934   21776678.0694
       170.1564
 -13728997.54249 -10685705.19647  19085679.1164   19085677.6364
       821.2034
  -5875605.27948  -5737417.34046  20891505.2184   20891501.5194
       433.1254
 -18428816.13149 -14344462.19746  20270845.3984   20270843.3044
      3215.4064
 04  9  8 22 58 59.9950000  0  6G 8G13G10G27G19G28
 -22834732.38549 -17778402.38248  18878263.6484   18878261.9484
      1987.3594
   2284749.62448   1782635.72244  20786216.2104   20786214.4174
     -2197.0474
  -8744598.05647  -6783567.49043  21776207.6554   21776206.1874
       159.9534
 -13741275.30549 -10695272.28747  19083342.8904   19083340.7454
       815.7034
  -5882022.23849  -5742417.58146  20890284.7884   20890280.0504
       422.2974
 -18476998.00949 -14382006.48946  20261676.1164   20261673.8354
      3208.7194
 04  9  8 22 59 14.9950000  0  6G 8G13G10G27G19G28
 -22864492.98749 -17801592.45648  18872600.5854   18872598.4764
      1980.8134
   2317757.69748   1808356.30145  20792497.6244   20792495.7734
     -2203.9844
  -8746917.03447  -6785374.51042  21775765.2264   21775764.9604
       149.4384
 -13753464.95049 -10704770.71347  19081023.0694   19081021.2024
       809.6414
  -5888270.94849  -5747286.70546  20889095.1944   20889091.3904
       410.8444
 -18525075.35349 -14419469.32346  20252527.3584   20252526.1984
      3201.6414
 04  9  8 22 59 29.9950000  0  6G 8G13G10G27G19G28
 -22894158.38349 -17824708.34348  18866955.3274   18866953.8124
      1974.5634
   2350866.65448   1834155.44545  20798797.8904   20798797.2574
     -2210.5164
  -8749078.80647  -6787059.01643  21775355.7734   21775353.1204
       138.9694
 -13765566.82049 -10714200.74647  19078720.6084   19078718.5424
       803.9534
  -5894351.90049  -5752025.11245  20887937.5304   20887934.1714
       399.8754
 -18573048.47849 -14456850.95246  20243399.0074   20243396.0734
      3194.8284
 04  9  8 22 59 44.9950000  0  6G 8G13G10G27G19G28
 -22923724.56049 -17847746.92248  18861329.4054   18861327.2024
      1967.1254
   2384080.37648   1860036.21745  20805118.8584   20805117.4564
     -2218.3594
  -8751079.67247  -6788618.17043  21774973.2884   21774973.1324
       127.3754
 -13777576.83949 -10723559.20447  19076434.7884   19076432.9564
       796.9224
  -5900261.25149  -5756629.79545  20886813.3984   20886809.6484
       387.5784
 -18620913.34649 -14494148.24246  20234290.4604   20234287.9054
      3186.7814
 04  9  8 22 59 59.9950000  0  6G 8G13G10G27G19G28
 -22953184.36649 -17870702.60848  18855723.2654   18855721.1284
      1960.9694
   2417405.69948   1886003.97845  20811460.0934   20811459.0974
     -2224.8594
  -8752912.75248  -6790046.56043  21774625.8584   21774624.3664
       117.1254
 -13789487.82249 -10732840.49347  19074168.1634   19074166.5624
       791.2504
  -5905992.06949  -5761095.34845  20885722.9374   20885718.3394
       376.6094
 -18668662.71149 -14531355.51046  20225203.3354   20225201.2844
      3179.9064
 04  9  8 23  0 14.9950000  0  6G 8G13G10G27G19G28
 -22982548.74649 -17893583.94148  18850135.5694   18850133.3434
      1954.4534
   2450831.21248   1912049.81345  20817819.9214   20817819.2734
     -2231.6874
  -8754589.39248  -6791353.00943  21774306.6244   21774305.6594
       106.5634
 -13801310.71149 -10742053.13747  19071918.9214   19071916.4404
       785.3284
  -5911555.26548  -5765430.31546  20884663.9994   20884660.3784
       365.3134
 -18716307.60549 -14568481.38946  20216136.9834   20216135.4484
      3172.8444
 04  9  8 23  0 29.9950000  0  6G 8G13G10G27G19G28
 -23011821.42249 -17916393.80948  18844564.9294   18844563.3124
      1948.2974
   2484352.86048   1938170.54545  20824199.7104   20824198.8944
     -2238.0944
  -8756113.42048  -6792540.59843  21774016.6874   21774015.2734
        96.4064
 -13813049.25249 -10751200.05147  19069684.9374   19069683.1944
       779.6254
  -5916954.70449  -5769637.65146  20883637.0464   20883633.5114
       354.3134
 -18763851.78749 -14605528.76546  20207089.6714   20207088.4524
      3166.1414
 04  9  8 23  0 44.9950000  0  6G 8G13G10G27G19G28
 -23040994.18749 -17939125.83048  18839013.5694   18839011.7844
      1941.3444
   2517978.36048   1964372.19145  20830598.8124   20830596.8354
     -2245.2814
  -8757477.15947  -6793603.26643  21773755.8434   21773755.2224
        85.4844
 -13824695.47349 -10760275.02047  19067468.4684   19067467.1324
       773.2194
  -5922182.61948  -5773711.36046  20882641.5854   20882638.6984
       342.6724
 -18811287.22849 -14642491.41946  20198063.2024   20198061.1754
      3158.6254
 04  9  8 23  0 59.9950000  0  6G 8G13G10G27G19G28
 -23070069.51449 -17961781.93648  18833480.6484   18833478.2494
      1935.0474
   2551705.06748   1990652.71045  20837016.4764   20837014.9484
     -2251.8124
  -8758683.17147  -6794543.03444  21773527.3274   21773526.4404
        75.1724
 -13836251.54249 -10769279.75547  19065269.5624   19065267.0694
       767.3444
  -5927241.46648  -5777653.32746  20881679.0544   20881675.8864
       331.5944
 -18858616.26549 -14679371.16646  20189056.8194   20189054.5854
      3151.7194
 04  9  8 23  1 14.9950000  0  6G 8G13G10G27G19G28
 -23099046.48649 -17984361.39948  18827966.7184   18827964.1014
      1928.7194
   2585533.60748   2017012.58145  20843453.3824   20843452.1944
     -2258.4374
  -8759730.95448  -6795359.50144  21773327.6244   21773326.8434
        64.7974
 -13847716.58949 -10778213.56847  19063087.5544   19063085.7534
       761.4534
  -5932130.34748  -5781462.84246  20880749.0854   20880744.8514
       320.3914
 -18905837.94149 -14716167.26446  20180070.8434   20180068.2694
      3144.7344
 04  9  8 23  1 29.9950000  0  6G 8G13G10G27G19G28
 -23127928.72049 -18006867.02348  18822470.5304   18822468.5344
      1922.3754
   2619459.64448   2043448.41945  20849909.4524   20849908.8584
     -2264.9374
  -8760624.46248  -6796055.74543  21773157.8194   21773157.0624
        54.4694
 -13859094.49249 -10787079.45147  19060922.7184   19060920.4764
       755.6254
  -5936853.37249  -5785143.10646  20879849.7334   20879846.2184
       309.4064
 -18952956.12149 -14752882.70246  20171104.7964   20171102.1944
      3137.7664
 04  9  8 23  1 44.9950000  0  6G 8G13G10G27G19G28
 -23156711.73349 -18029295.34548  18816992.8904   18816991.0814
      1915.7814
   2653487.75348   2069963.78645  20856385.3194   20856383.9914
     -2271.6874
  -8761359.39048  -6796628.42443  21773017.5384   21773017.3434
        43.9384
 -13870380.56949 -10795873.80347  19058774.8124   19058772.3944
       749.5634
  -5941405.95449  -5788690.57146  20878983.8584   20878979.7534
       298.0164
 -18999966.18949 -14789513.90046  20162158.9054   20162156.2144
      3130.7194
 04  9  8 23  1 59.9950000  0  6G 8G13G10G27G19G28
 -23185402.35949 -18051651.67248  18811533.5154   18811531.3584
      1909.5004
   2687610.34148   2096552.79245  20862878.9524   20862876.8704
     -2278.0944
  -8761943.14448  -6797083.29743  21772906.5074   21772905.8584
        33.7814
 -13881581.83349 -10804602.05947  19056643.6944   19056641.4874
       743.8134
  -5945795.30949  -5792110.84146  20878148.2804   20878145.2064
       287.0314
 -19046875.17949 -14826066.34146  20153232.3044   20153229.8474
      3123.7504
 04  9  8 23  2 14.9950000  0  6G 8G13G10G27G19G28
 -23214000.70349 -18073936.10048  18806091.3124   18806089.0974
      1903.6884
   2721827.20048   2123215.26145  20869389.9214   20869388.4644
     -2284.0004
  -8762375.85748  -6797420.49143  21772824.3584   21772823.4374
        24.0004
 -13892698.27849 -10813264.21847  19054527.6554   19054525.8984
       738.4844
  -5950021.51249  -5795404.00246  20877344.2884   20877341.8154
       276.4844
 -19093683.13249 -14862540.05846  20144325.2574   20144322.8234
      3117.4384
 04  9  8 23  2 29.9950000  0  6G 8G13G10G27G19G28
 -23242510.09449 -18096151.20148  18800666.6164   18800664.4874
      1897.7194
   2756134.72348   2149948.35544  20875918.3744   20875917.5694
     -2290.1414
  -8762661.26248  -6797642.88843  21772769.7734   21772769.1484
        14.1564
 -13903733.04849 -10821862.74947  19052428.5234   19052426.5774
       732.9694
  -5954088.14049  -5798572.79046  20876570.9054   20876567.2064
       265.8914
 -19140393.26449 -14898937.52846  20135436.6714   20135434.5344
      3110.8134
 04  9  8 23  2 44.9950000  0  6G 8G13G10G27G19G28
 -23270923.37749 -18118291.40848  18795259.8664   18795257.0424
      1890.8444
   2790539.51548   2176757.25444  20882465.2494   20882463.2494
     -2297.0944
  -8762792.58448  -6797745.23843  21772745.0154   21772744.6984
         3.4064
 -13914679.38049 -10830392.35847  19050345.2264   19050342.9484
       726.6414
  -5957988.31049  -5801611.89346  20875828.1324   20875823.6554
       254.3134
 -19186998.61349 -14935253.35646  20126568.0464   20126565.2884
      3103.3914
 04  9  8 23  2 59.9950000  0  6G 8G13G10G27G19G28
 -23299241.45549 -18140357.45648  18789870.7414   18789868.6754
      1884.7344
   2825040.45948   2203641.07545  20889030.4604   20889029.2334
     -2303.1564
  -8762771.07748  -6797728.49943  21772748.2964   21772748.4094
        -6.3914
 -13925538.01049 -10838853.62747  19048279.1634   19048276.7734
       721.1094
  -5961722.98448  -5804522.02646  20875117.3434   20875114.3554
       243.5004
 -19233500.04049 -14971488.21946  20117719.2494   20117716.8984
      3096.7344
 04  9  8 23  3 14.9950000  0  6G 8G13G10G27G19G28
 -23327467.32549 -18162351.63048  18784499.6944   18784497.3554
      1878.7664
   2859634.01748   2230597.04545  20895613.4764   20895612.2534
     -2309.1874
  -8762599.96648  -6797595.17543  21772782.0304   21772780.8584
       -16.2814
 -13936312.04949 -10847248.99047  19046228.9214   19046226.8744
       715.6414
  -5965295.46048  -5807305.78045  20874437.2184   20874433.8474
       232.8594
 -19279900.76749 -15007644.60847  20108889.2574   20108886.7104
      3090.1414
 04  9  8 23  3 29.9950000  0  6G 8G13G10G27G19G28
 -23355606.63849 -18184278.36548  18779144.6944   18779142.1904
      1873.4224
   2894314.09748   2257620.45744  20902213.2024   20902211.8664
     -2314.5944
  -8762285.29347  -6797349.99443  21772841.6714   21772840.9914
       -25.4374
 -13947007.23649 -10855582.89047  19044193.6714   19044191.4294
       710.7504
  -5968711.60648  -5809967.70845  20873787.5774   20873783.8474
       222.9384
 -19326206.49849 -15043726.96746  20100077.3434   20100075.2264
      3084.1564
 04  9  8 23  3 44.9950000  0  6G 8G13G10G27G19G28
 -23383658.56749 -18206137.00548  18773806.6164   18773804.4874
      1866.8914
   2929081.12648   2284711.61845  20908829.5774   20908827.3904
     -2320.9844
  -8761826.52148  -6796992.50943  21772929.0384   21772928.7064
       -35.7504
 -13957622.73249 -10863854.71047  19042173.3664   19042170.9914
       704.7814
  -5971970.67848  -5812507.23746  20873167.9134   20873163.4294
       211.7194
 -19372416.31349 -15079734.59646  20091283.6634   20091281.4174
      3077.1724
 04  9  8 23  3 59.9950000  0  6G 8G13G10G27G19G28
 -23411621.39549 -18227926.22148  18768485.4374   18768483.8664
      1861.4064
   2963936.70048   2311871.76545  20915461.2414   20915460.8084
     -2326.5164
  -8761222.15748  -6796521.57243  21773044.3904   21773043.5974
       -45.0784
 -13968156.55049 -10872062.88347  19040169.2734   19040166.7374
       699.6564
  -5975070.92748  -5814923.01146  20872577.6874   20872573.5114
       201.5164
 -19418528.39049 -15115666.05646  20082508.6944   20082506.5894
      3071.0474
 04  9  8 23  4 14.9950000  0  6G 8G13G10G27G19G28
 -23439495.32549 -18249646.15848  18763181.3044   18763178.8354
      1855.1414
   2998880.27348   2339100.49545  20922111.4684   20922110.7064
     -2332.6874
  -8760472.78148  -6795937.67143  21773186.1244   21773185.6874
       -54.9844
 -13978609.06849 -10880207.69548  19038179.8664   19038177.7104
       694.0004
  -5978012.94548  -5817215.48845  20872017.3274   20872013.4524
       190.7344
 -19464542.99949 -15151521.57347  20073752.7734   20073750.5854
      3064.1724
 04  9  8 23  4 29.9950000  0  6G 8G13G10G27G19G28
 -23467285.69449 -18271300.99248  18757892.5074   18757890.9804
      1850.2034
   3033906.05148   2366393.24144  20928775.5624   20928775.8554
     -2337.4694
  -8759584.03948  -6795245.18343  21773356.0154   21773355.1124
       -63.5944
 -13988985.68549 -10888293.37847  19036205.1084   19036203.3584
       689.4844
  -5980802.33948  -5819389.04246  20871487.6794   20871483.5154
       181.1564
 -19510465.65149 -15187305.44047  20065013.8744   20065011.8624
      3058.7194
 04  9  8 23  4 44.9950000  0  6G 8G13G10G27G19G28
 -23494988.03449 -18292887.23148  18752621.6014   18752619.6874
      1843.5314
   3069018.02648   2393753.19444  20935458.1714   20935457.0304
     -2344.0314
  -8758551.92048  -6794440.93043  21773552.6084   21773551.1874
       -73.9064
 -13999282.08049 -10896316.54747  19034245.8354   19034243.4054
       683.4534
  -5983434.87148  -5821440.38046  20870985.8664   20870982.1124
       169.9534
 -19556292.07049 -15223014.31047  20056292.9994   20056290.7574
      3051.5004
 04  9  8 23  4 59.9950000  0  6G 8G13G10G27G19G28
 -23522597.68249 -18314401.23348  18747367.2184   18747365.4254
      1837.3134
   3104220.69848   2421183.79445  20942156.8984   20942155.9374
     -2350.0944
  -8757372.01047  -6793521.53343  21773776.7104   21773775.7614
       -83.8754
 -14009493.39949 -10904273.41347  19032302.9054   19032300.4524
       677.7194
  -5985906.02349  -5823365.95646  20870516.1714   20870511.6204
       159.1254
 -19602017.47649 -15258644.49046  20047592.1714   20047589.2804
      3044.7194
 04  9  8 23  5 14.9950000  0  6G 8G13G10G27G19G28
 -23550120.60849 -18335847.66848  18742130.0774   18742128.0894
      1832.0784
   3139507.38048   2448679.91044  20948872.2574   20948870.5774
     -2355.1724
  -8756050.54947  -6792491.84744  21774028.0774   21774028.4214
       -92.7034
 -14019625.72749 -10912168.74047  19030375.1944   19030372.6014
       672.9694
  -5988221.78548  -5825170.44546  20870075.8124   20870071.4334
       149.3134
 -19647647.86249 -15294200.60746  20038908.9134   20038906.3434
      3038.9064
 04  9  8 23  5 29.9950000  0  6G 8G13G10G27G19G28
 -23577554.21249 -18357224.50248  18736909.5694   18736907.5584
      1826.0634
   3174880.46048   2476243.30145  20955604.0154   20955602.4054
     -2360.8444
  -8754585.39148  -6791350.19443  21774307.2414   21774306.0734
      -102.2814
 -14029676.54549 -10920000.54347  19028462.1244   19028460.0774
       667.5164
  -5990379.96049  -5826852.13046  20869664.3824   20869660.2844
       138.7504
 -19693180.82149 -15329680.81146  20030243.5624   20030241.4834
      3032.4534
 04  9  8 23  5 44.9950000  0  6G 8G13G10G27G19G28
 -23604900.45949 -18378533.26548  18731705.8514   18731703.4764
      1820.1414
   3210337.83848   2503872.38045  20962351.0154   20962350.1084
     -2366.5624
  -8752978.73447  -6790098.27243  21774612.2494   21774611.8434
      -111.7974
 -14039647.74249 -10927770.30947  19026564.9294   19026562.9604
       662.1094
  -5992382.56049  -5828412.60546  20869284.2334   20869279.6794
       128.3594
 -19738618.14549 -15365086.50746  20021598.1164   20021595.2224
      3026.0004
 04  9  8 23  5 59.9950000  0  6G 8G13G10G27G19G28
 -23632156.43649 -18399771.68848  18726519.1794   18726516.4214
      1813.8444
   3245882.15148   2531569.19044  20969114.4214   20969113.6834
     -2372.7974
  -8751227.78448  -6788733.92743  21774946.3744   21774945.3664
      -121.7504
 -14049536.31449 -10935475.69347  19024683.0234   19024680.4134
       656.2974
  -5994226.68249  -5829849.60146  20868932.5384   20868927.9484
       117.4064
 -19783956.83449 -15400415.32946  20012970.0624   20012967.2224
      3019.1094
 04  9  8 23  6 14.9950000  0  6G 8G13G10G27G19G28
 -23659323.27349 -18420940.63848  18721349.4294   18721347.8904
      1807.7504
   3281511.58848   2559332.34644  20975894.6874   20975893.5464
     -2378.5164
  -8749334.35047  -6787258.53243  21775306.4294   21775306.4484
      -131.3594
 -14059343.52249 -10943117.67347  19022816.6944   19022814.3784
       650.6724
  -5995913.98348  -5831164.36246  20868611.5154   20868607.3704
       106.8134
 -19829198.46949 -15435668.53446  20004360.5384   20004358.0304
      3012.4694
 04  9  8 23  6 29.9950000  0  6G 8G13G10G27G19G28
 -23686396.34549 -18442036.53948  18716197.7184   18716195.5154
      1801.6564
   3317230.28948   2587165.08144  20982691.2804   20982690.3004
     -2384.3124
  -8747294.21347  -6785668.85043  21775694.2574   21775693.8314
      -141.0004
 -14069064.93549 -10950692.79547  19020966.6324   19020963.9604
       645.0944
  -5997440.02448  -5832353.52246  20868321.1944   20868316.6484
        96.3134
 -19874338.35849 -15470842.46347  19995771.2024   19995768.2764
      3005.7504
 04  9  8 23  6 44.9950000  0  6G 8G13G10G27G19G28
 -23713378.53849 -18463061.61748  18711062.8354   18711060.7374
      1795.7194
   3353035.24648   2615064.99645  20989505.1634   20989503.9294
     -2390.0474
  -8745110.35947  -6783967.12143  21776109.7964   21776110.2104
      -150.5624
 -14078703.25749 -10958203.18847  19019132.7804   19019130.4374
       639.6564
  -5998807.79148  -5833419.30246  20868060.2024   20868056.6904
        85.8134
 -19919379.40949 -15505939.36047  19987199.8434   19987197.7764
      2999.3914
 04  9  8 23  6 59.9940000  0  6G 8G13G10G27G19G28
 -23740267.86749 -18484014.32948  18705946.2754   18705944.4204
      1789.5314
   3388923.88448   2643030.12144  20996334.8544   20996333.6434
     -2395.7194
  -8742783.18547  -6782153.75743  21776552.6744   21776552.6154
      -160.0314
 -14088257.75849 -10965648.25347  19017314.5184   19017312.3034
       634.0944
  -6000017.28549  -5834361.76746  20867831.0024   20867826.7794
        75.2344
 -19964318.48249 -15540956.78446  19978648.1824   19978646.1864
      2992.6884
 04  9  8 23  7 14.9940000  0  6G 8G13G10G27G19G28
 -23767067.54949 -18504897.20248  18700846.5494   18700844.1664
      1783.5784
   3424900.98048   2671064.16945  21003181.3074   21003179.8304
     -2401.3594
  -8740312.21447  -6780228.35043  21777022.3854   21777022.3304
      -169.5624
 -14097729.29749 -10973028.67547  19015511.9554   19015510.0494
       628.6564
  -6001068.42748  -5835180.83346  20867630.7134   20867625.7214
        64.7344
 -20009161.05349 -15575899.04747  19970114.9554   19970112.3304
      2986.1414
 04  9  8 23  7 29.9940000  0  6G 8G13G10G27G19G28
 -23793780.63249 -18525712.58648  18695762.7364   18695761.0574
      1778.0474
   3460958.90248   2699161.23844  21010041.8694   21010041.1114
     -2406.4224
  -8737702.76547  -6778195.02043  21777520.3694   21777519.5804
      -178.4374
 -14107121.94749 -10980347.62247  19013724.6744   19013722.5884
       623.6414
  -6001966.09148  -5835880.31246  20867460.5494   20867455.8224
        54.8134
 -20053909.04049 -15610767.57246  19961599.6434   19961596.8424
      2980.1254
 04  9  8 23  7 44.9940000  0  6G 8G13G10G27G19G28
 -23820406.24649 -18546459.81348  18690696.5104   18690693.7604
      1772.4224
   3497097.97548   2727321.53944  21016918.9244   21016918.2604
     -2411.6874
  -8734954.47148  -6776053.52843  21778043.6584   21778041.7444
      -187.5164
 -14116435.10349 -10987604.62447  19011952.5654   19011950.2294
       618.5004
  -6002709.85348  -5836459.85946  20867318.2684   20867314.7564
        44.8134
 -20098561.89049 -15645561.99346  19953102.6114   19953100.0804
      2973.9844
 04  9  8 23  7 59.9940000  0  6G 8G13G10G27G19G28
 -23846941.25749 -18567136.44948  18685647.3074   18685645.0454
      1766.0784
   3533321.08248   2755547.28644  21023812.2134   21023812.0804
     -2417.5164
  -8732064.52646  -6773801.61843  21778592.0724   21778591.8504
      -197.2504
 -14125665.59649 -10994797.21847  19010196.0654   19010193.6864
       612.7344
  -6003296.67248  -5836917.12946  20867206.0104   20867202.2644
        34.0314
 -20143116.29949 -15680279.69046  19944624.4794   19944621.8464
      2967.1414
 04  9  8 23  8 14.9940000  0  6G 8G13G10G27G19G28
 -23873387.80149 -18587744.13448  18680614.1194   18680612.4474
      1759.9844
   3569625.45948   2783836.38344  21030719.6194   21030719.6474
     -2423.1094
  -8729035.51647  -6771441.36843  21779169.4324   21779169.2254
      -206.6254
 -14134815.64749 -11001927.12947  19008455.1434   19008452.6584
       607.2034
  -6003729.03448  -5837254.04046  20867124.2604   20867120.4284
        23.5474
 -20187574.76849 -15714922.63146  19936163.9634   19936161.4474
      2960.5784
 04  9  8 23  8 29.9940000  0  6G 8G13G10G27G19G28
 -23899743.60749 -18608281.11948  18675598.7054   18675596.7794
      1753.9384
   3606013.35348   2812190.51744  21037644.6974   21037644.5614
     -2428.7504
  -8725865.32747  -6768971.11443  21779772.4004   21779771.7094
      -216.1564
 -14143882.97449 -11008992.57447  19006729.2754   19006727.2324
       601.6254
  -6004004.74748  -5837468.87546  20867071.8074   20867067.8114
        13.0944
 -20231934.84749 -15749488.90746  19927722.3384   19927720.1544
      2953.9844
 04  9  8 23  8 44.9940000  0  6G 8G13G10G27G19G28
 -23926010.07149 -18628748.49448  18670600.2834   18670598.7604
      1748.1724
   3642482.88748   2840608.31844  21044585.8224   21044584.1354
     -2434.0164
  -8722555.78946  -6766392.27643  21780402.1744   21780401.4244
      -225.1724
 -14152868.95549 -11015994.64347  19005019.3854   19005017.3694
       596.3594
  -6004125.33848  -5837562.86846  20867048.7364   20867045.1544
         2.7974
 -20276197.97949 -15783979.64647  19919299.3074   19919296.9944
      2947.6884
 04  9  8 23  8 59.9940000  0  7G29G 8G13G10G27G19G28
   -234076.31915                  22336236.166
      4143.484
 -23952185.79349 -18649145.15448  18665619.2834   18665617.6354
      1742.8754
   3679035.20247   2869090.60744  21051540.4554   21051539.6624
     -2438.7034
  -8719105.72947  -6763703.93143  21781058.2684   21781058.5064
      -233.7814
 -14161772.17849 -11022932.20347  19003324.6194   19003322.9474
       591.6254
  -6004089.69147  -5837535.07645  20867054.9164   20867050.8814
        -6.7664
 -20320362.77849 -15818393.74546  19910895.1664   19910893.0964
      2941.9224
 04  9  8 23  9 14.9940000  0  7G29G 8G13G10G27G19G28
   -296194.572 4                  22324412.893
      4139.359
 -23978279.94449 -18669478.25748  18660653.5964   18660651.4554
      1736.8444
   3715660.72448   2897629.94044  21058510.3854   21058509.4364
     -2444.0944
  -8715524.67846  -6760913.53843  21781740.0414   21781739.2134
      -243.0944
 -14170601.65349 -11029812.32547  19001644.4084   19001642.5294
       586.2504
  -6003907.11048  -5837392.81346  20867090.7754   20867086.5454
       -17.0474
 -20364438.37249 -15852738.35047  19902508.1434   19902505.4244
      2935.3754
 04  9  8 23  9 29.9940000  0  7G29G 8G13G10G27G19G28
   -358254.992 4                  22312603.900
      4135.344
 -24004287.22549 -18689743.67948  18655704.8854   18655702.6584
      1730.7814
   3752364.21548   2926230.01144  21065495.4554   21065494.1474
     -2449.6724
  -8711807.87447  -6758017.35043  21782448.1274   21782446.6784
      -252.4534
 -14179352.37249 -11036631.06947  18999979.6824   18999977.2684
       580.6564
  -6003572.66947  -5837132.21545  20867153.3074   20867149.7014
       -27.5314
 -20408419.80249 -15887009.57347  19894138.9244   19894136.3814
      2928.7974
 04  9  8 23  9 44.9940000  0  7G29G 8G13G10G27G19G28
   -420256.34344   -255113.94551  22300804.5574   22300806.2994
      4131.2034
 -24030206.81149 -18709940.75548  18650772.3614   18650770.5104
      1724.8754
   3789146.10448   2954891.19744  21072494.1044   21072493.7564
     -2454.8914
  -8707954.70946  -6755014.86343  21783180.1744   21783180.3774
      -261.5164
 -14188023.54249 -11043387.82447  18998329.7524   18998327.1234
       575.2814
  -6003085.81848  -5836752.84246  20867246.8614   20867242.8304
       -37.7194
 -20452306.12149 -15921206.67747  19885787.0884   19885784.6274
      2922.4534
 04  9  8 23  9 59.9940000  0  7G29G 8G13G10G27G19G28
   -482200.40045   -303382.03141  22289016.9794   22289017.0964
      4127.8594
 -24056040.66349 -18730071.01848  18645856.2294   18645854.5334
      1719.5314
   3826004.20148   2983611.75244  21079507.8224   21079507.3614
     -2459.6094
  -8703967.48046  -6751907.99043  21783940.0494   21783938.9714
      -270.0474
 -14196617.10149 -11050084.09947  18996694.2214   18996691.7954
       570.4534
  -6002448.51448  -5836256.23346  20867368.5884   20867364.0064
       -47.3754
 -20496099.44349 -15955331.32847  19877453.4634   19877450.6934
      2916.6254
 04  9  8 23 10 14.9940000  0  7G29G 8G13G10G27G19G28
   -544086.90745   -351605.29341  22277240.6504   22277240.0224
      4124.3284
 -24081788.70749 -18750134.43148  18640956.9324   18640954.6114
      1714.0784
   3862938.23948   3012391.48244  21086535.9554   21086535.8574
     -2464.2814
  -8699846.46446  -6748696.82843  21784723.1974   21784723.0804
      -278.6724
 -14205132.87749 -11056719.77747  18995073.8384   18995071.2954
       565.5944
  -6001660.98348  -5835642.55746  20867517.7754   20867514.0414
       -57.0004
 -20539799.67449 -15989383.43947  19869137.2524   19869134.9204
      2910.6724
 04  9  8 23 10 29.9940000  0  7G29G 8G13G10G27G19G28
   -605917.84146   -399785.22341  22265475.6824   22265473.2794
      4118.9534
 -24107453.14449 -18770132.69148  18636072.9554   18636070.8464
      1706.7974
   3899945.49348   3041228.28044  21093579.1044   21093578.6824
     -2470.8444
  -8695594.42447  -6745383.57344  21785532.8384   21785532.2174
      -289.1724
 -14213573.09649 -11063296.56547  18993467.6114   18993465.5764
       558.8444
  -6000725.59848  -5834913.70946  20867695.7364   20867691.5184
       -68.6094
 -20583409.01849 -16023364.71547  19860839.3544   19860836.8894
      2902.9224
 04  9  8 23 10 44.9940000  0  7G29G 8G13G10G27G19G28
   -667690.35846   -447919.63042  22253719.7684   22253718.2134
      4116.7504
 -24133031.21849 -18790063.64948  18631205.6824   18631203.4824
      1702.9224
   3937028.36148   3070123.95944  21100635.6974   21100635.4634
     -2474.0944
  -8691208.88247  -6741966.29643  21786367.1274   21786367.3344
      -296.3444
 -14221935.13349 -11069812.44447  18991876.7054   18991874.3154
       555.4534
  -5999639.97148  -5834067.76046  20867903.1354   20867898.4984
       -76.7974
 -20626924.88549 -16057273.15547  19852558.1434   19852555.9084
      2898.5164
 04  9  8 23 10 59.9940000  0  8G29G 8G13G10G31G27G19G28
   -729416.06347   -496017.57642  22241974.7054   22241972.4714
      4113.2034
 -24158534.75449 -18809936.53548  18626352.2754   18626350.3734
      1697.4384
   3974174.65948   3099069.09944  21107705.0574   21107702.7834
     -2478.8444
  -8686701.92546  -6738454.39243  21787226.0104   21787224.9754
      -304.8914
   -153837.20956   -106587.17152  22298757.2214   22298758.4794
      4880.5314
 -14230230.83349 -11076276.62147  18990297.4004   18990295.6394
       550.5004
  -5998416.14648  -5833114.12046  20868136.1584   20868130.8074
       -86.5784
 -20670359.13249 -16091118.00247  19844292.7444   19844290.5684
      2892.5314
 04  9  8 23 11 14.9940000  0  8G29G 8G13G10G31G27G19G28
   -791084.08847   -544070.49442  22230238.1504   22230237.1474
      4109.2344
 -24183953.21549 -18829743.13648  18621515.3224   18621513.1314
      1691.7344
   4011394.70848   3128071.68444  21114787.6744   21114786.3974
     -2483.8124
  -8682063.35946  -6734839.96243  21788106.7364   21788107.1544
      -313.6414
   -227036.30046   -163625.35142  22284828.3074   22284828.3464
      4879.2974
 -14238449.54749 -11082680.82447  18988733.9004   18988731.6744
       545.3594
  -5997043.61148  -5832044.62146  20868395.9404   20868392.1074
       -96.4534
 -20713701.19149 -16124891.01947  19836045.3384   19836042.7914
      2886.3594
 04  9  8 23 11 29.9940000  0  8G29G 8G13G10G31G27G19G28
   -852701.06846   -592083.72642  22218512.1044   22218512.3034
      4106.0784
 -24209293.26549 -18849488.62448  18616693.6504   18616691.3544
      1686.5944
   4048681.14148   3157126.00944  21121882.4554   21121881.9514
     -2488.0944
  -8677300.15647  -6731128.38043  21789014.3934   21789013.7994
      -321.8124
   -300223.16347   -220654.03343  22270901.8854   22270901.4714
      4878.6414
 -14246598.04349 -11089030.30347  18987183.5574   18987181.1704
       540.7344
  -5995529.37548  -5830864.70645  20868684.3934   20868680.1434
      -105.8284
 -20756957.93949 -16158597.55247  19827813.9554   19827811.6784
      2880.8594
 04  9  8 23 11 44.9940000  0  8G29G 8G13G10G31G27G19G28
   -914261.29047   -640052.66742  22206798.7994   22206797.2484
      4101.9224
 -24234549.36049 -18869168.69448  18611887.6504   18611885.2364
      1680.6884
   4086039.26748   3186236.19344  21128991.6194   21128991.9244
     -2493.1564
  -8672407.33447  -6727315.83043  21789946.2294   21789945.0494
      -330.8124
   -373392.04447   -277668.65043  22256977.6114   22256978.2294
      4876.9534
 -14254670.85549 -11095320.81047  18985647.1744   18985644.5924
       535.4844
  -5993868.26948  -5829570.34146  20869000.2754   20868997.1864
      -115.8754
 -20800123.85949 -16192233.31247  19819599.3384   19819596.6744
      2874.5004
 04  9  8 23 11 59.9940000  0  8G29G 8G13G10G31G27G19G28
   -975768.51847   -687980.40242  22195094.6044   22195093.0494
      4098.7504
 -24259725.77549 -18888786.68148  18607096.6504   18607094.5374
      1675.7814
   4123464.58148   3215398.73244  21136113.7294   21136112.3854
     -2497.1874
  -8667389.43447  -6723405.77543  21790900.2294   21790899.7794
      -338.5164
   -446546.86947   -334672.31142  22243055.4164   22243058.0254
      4876.6414
 -14262672.14449 -11101555.58247  18984124.5184   18984122.2954
       531.1094
  -5992064.59648  -5828164.89346  20869344.3304   20869340.5494
      -124.9534
 -20843203.22449 -16225801.63947  19811401.9634   19811399.1584
      2869.2034
 04  9  8 23 12 14.9940000  0  8G29G 8G13G10G31G27G19G28
  -1037225.82847   -735869.17242  22183400.4794   22183397.9324
      4095.5944
 -24284825.48049 -18908344.88748  18602320.4864   18602318.6974
      1670.8134
   4160953.54048   3244610.89244  21143246.9244   21143246.7684
     -2501.3284
  -8662249.79347  -6719400.87243  21791877.9474   21791877.4754
      -346.6094
   -519690.52646   -391667.29242  22229136.8934   22229137.8734
      4875.9384
 -14270605.07249 -11107737.09247  18982614.7834   18982612.6934
       526.6254
  -5990121.69149  -5826650.93846  20869714.3384   20869709.3074
      -134.0314
 -20886199.14749 -16259304.92547  19803219.4944   19803217.8694
      2863.7194
 04  9  8 23 12 29.9940000  0  8G29G 8G13G10G31G27G19G28
  -1098627.24247   -783714.38442  22171715.2684   22171713.2324
      4091.6724
 -24309842.76249 -18927838.87248  18597559.5254   18597557.6974
      1665.2034
   4198511.59348   3273876.84144  21150395.0024   21150394.7724
     -2505.9694
  -8656983.07246  -6715296.96643  21792880.9714   21792880.6004
      -355.2034
   -592816.95345   -448648.88342  22215220.1504   22215222.7604
      4874.7194
 -14278463.90549 -11113860.85447  18981119.4864   18981117.0574
       521.6254
  -5988034.08748  -5825024.22746  20870111.2444   20870107.2754
      -143.7504
 -20929105.86349 -16292738.71147  19795055.4404   19795052.6474
      2857.5944
